Wetterdaten: Montag, 11.04.2016
Datum Zeit Temp. A. Feuchte A. Luftdruck Regen Wind Richtung Richtung Sonnenschein ET UV Solar Taupunkt Windchill Windben Empfang
11.04.2016 00:00 6,5 C 85 % 1012,6 hPa 0,0 l/m 5,0 km/h (1 Bft) NO 38 0 min 0,000 mm 0,0 UV-I 0 W/m 4,2 C 6,5 C 6,4 km/h (2 Bft) 100,00 %
11.04.2016 00:02 6,4 C 86 % 1012,6 hPa 0,0 l/m 6,0 km/h (2 Bft) NO 51 0 min 0,000 mm 0,0 UV-I 0 W/m 4,2 C 6,4 C 9,7 km/h (2 Bft) 100,00 %
11.04.2016 00:03 6,4 C 86 % 1012,5 hPa 0,0 l/m 6,0 km/h (2 Bft) O-NO 68 0 min 0,000 mm 0,0 UV-I 0 W/m 4,2 C 6,4 C 8,0 km/h (2 Bft) 100,00 %
11.04.2016 00:04 6,3 C 86 % 1012,5 hPa 0,0 l/m 6,8 km/h (2 Bft) O-NO 63 0 min 0,000 mm 0,0 UV-I 0 W/m 4,1 C 6,0 C 8,0 km/h (2 Bft) 100,00 %
11.04.2016 00:05 6,3 C 86 % 1012,5 hPa 0,0 l/m 7,6 km/h (2 Bft) NO 52 0 min 0,000 mm 0,0 UV-I 0 W/m 4,1 C 5,3 C 9,7 km/h (2 Bft) 95,65 %
11.04.2016 00:06 6,3 C 86 % 1012,5 hPa 0,0 l/m 4,5 km/h (1 Bft) N-NO 24 0 min 0,000 mm 0,0 UV-I 0 W/m 4,1 C 6,3 C 6,4 km/h (2 Bft) 100,00 %
11.04.2016 00:07 6,3 C 86 % 1012,5 hPa 0,0 l/m 5,5 km/h (1 Bft) NO 44 0 min 0,000 mm 0,0 UV-I 0 W/m 4,1 C 6,3 C 8,0 km/h (2 Bft) 100,00 %
11.04.2016 00:08 6,3 C 86 % 1012,5 hPa 0,0 l/m 4,8 km/h (1 Bft) NO 42 0 min 0,000 mm 0,0 UV-I 0 W/m 4,1 C 6,3 C 6,4 km/h (2 Bft) 100,00 %
11.04.2016 00:09 6,2 C 86 % 1012,5 hPa 0,0 l/m 5,7 km/h (1 Bft) NO 49 0 min 0,000 mm 0,0 UV-I 0 W/m 4,0 C 6,2 C 8,0 km/h (2 Bft) 100,00 %
11.04.2016 00:10 6,2 C 86 % 1012,5 hPa 0,0 l/m 5,3 km/h (1 Bft) NO 49 0 min 0,000 mm 0,0 UV-I 0 W/m 4,0 C 6,2 C 8,0 km/h (2 Bft) 100,00 %
11.04.2016 00:11 6,1 C 87 % 1012,5 hPa 0,0 l/m 4,7 km/h (1 Bft) NO 45 0 min 0,000 mm 0,0 UV-I 0 W/m 4,1 C 6,1 C 6,4 km/h (2 Bft) 100,00 %
11.04.2016 00:12 6,1 C 87 % 1012,5 hPa 0,0 l/m 6,7 km/h (2 Bft) N-NO 32 0 min 0,000 mm 0,0 UV-I 0 W/m 4,1 C 5,9 C 8,0 km/h (2 Bft) 100,00 %
11.04.2016 00:13 6,0 C 87 % 1012,5 hPa 0,0 l/m 6,0 km/h (2 Bft) NO 46 0 min 0,000 mm 0,0 UV-I 0 W/m 4,0 C 6,0 C 8,0 km/h (2 Bft) 100,00 %
11.04.2016 00:14 6,0 C 87 % 1012,5 hPa 0,0 l/m 5,9 km/h (2 Bft) NO 54 0 min 0,000 mm 0,0 UV-I 0 W/m 4,0 C 6,0 C 8,0 km/h (2 Bft) 100,00 %
11.04.2016 00:15 6,0 C 87 % 1012,5 hPa 0,0 l/m 4,8 km/h (1 Bft) NO 35 0 min 0,000 mm 0,0 UV-I 0 W/m 4,0 C 6,0 C 6,4 km/h (2 Bft) 100,00 %
11.04.2016 00:16 6,0 C 87 % 1012,5 hPa 0,0 l/m 5,1 km/h (1 Bft) NO 34 0 min 0,000 mm 0,0 UV-I 0 W/m 4,0 C 6,0 C 8,0 km/h (2 Bft) 100,00 %
11.04.2016 00:17 6,0 C 87 % 1012,5 hPa 0,0 l/m 5,9 km/h (2 Bft) NO 49 0 min 0,000 mm 0,0 UV-I 0 W/m 4,0 C 6,0 C 8,0 km/h (2 Bft) 95,83 %
11.04.2016 00:18 6,0 C 87 % 1012,5 hPa 0,0 l/m 5,5 km/h (1 Bft) NO 56 0 min 0,000 mm 0,0 UV-I 0 W/m 4,0 C 6,0 C 8,0 km/h (2 Bft) 95,65 %
11.04.2016 00:19 6,0 C 87 % 1012,5 hPa 0,0 l/m 6,2 km/h (2 Bft) NO 53 0 min 0,000 mm 0,0 UV-I 0 W/m 4,0 C 6,0 C 8,0 km/h (2 Bft) 100,00 %
11.04.2016 00:20 6,0 C 87 % 1012,5 hPa 0,0 l/m 6,3 km/h (2 Bft) O-NO 61 0 min 0,000 mm 0,0 UV-I 0 W/m 4,0 C 6,0 C 8,0 km/h (2 Bft) 100,00 %
11.04.2016 00:21 6,0 C 87 % 1012,5 hPa 0,0 l/m 7,6 km/h (2 Bft) NO 45 0 min 0,000 mm 0,0 UV-I 0 W/m 4,0 C 5,0 C 9,7 km/h (2 Bft) 100,00 %
11.04.2016 00:22 5,9 C 87 % 1012,5 hPa 0,0 l/m 4,6 km/h (1 Bft) O-NO 63 0 min 0,000 mm 0,0 UV-I 0 W/m 3,9 C 5,9 C 6,4 km/h (2 Bft) 100,00 %
11.04.2016 00:23 5,9 C 87 % 1012,5 hPa 0,0 l/m 6,2 km/h (2 Bft) NO 46 0 min 0,000 mm 0,0 UV-I 0 W/m 3,9 C 5,9 C 9,7 km/h (2 Bft) 100,00 %
11.04.2016 00:24 6,0 C 87 % 1012,5 hPa 0,0 l/m 5,7 km/h (1 Bft) O-NO 57 0 min 0,000 mm 0,0 UV-I 0 W/m 4,0 C 6,0 C 8,0 km/h (2 Bft) 100,00 %
11.04.2016 00:25 5,9 C 87 % 1012,5 hPa 0,0 l/m 5,7 km/h (1 Bft) NO 49 0 min 0,000 mm 0,0 UV-I 0 W/m 3,9 C 5,9 C 6,4 km/h (2 Bft) 100,00 %
11.04.2016 00:26 5,9 C 87 % 1012,5 hPa 0,0 l/m 5,1 km/h (1 Bft) NO 48 0 min 0,000 mm 0,0 UV-I 0 W/m 3,9 C 5,9 C 6,4 km/h (2 Bft) 100,00 %
11.04.2016 00:27 5,9 C 87 % 1012,4 hPa 0,0 l/m 7,5 km/h (2 Bft) O-NO 64 0 min 0,000 mm 0,0 UV-I 0 W/m 3,9 C 5,0 C 9,7 km/h (2 Bft) 100,00 %
11.04.2016 00:28 5,9 C 87 % 1012,4 hPa 0,0 l/m 6,4 km/h (2 Bft) NO 48 0 min 0,000 mm 0,0 UV-I 0 W/m 3,9 C 5,9 C 8,0 km/h (2 Bft) 100,00 %
11.04.2016 00:29 5,9 C 87 % 1012,5 hPa 0,0 l/m 6,1 km/h (2 Bft) NO 34 0 min 0,000 mm 0,0 UV-I 0 W/m 3,9 C 5,9 C 9,7 km/h (2 Bft) 95,83 %
11.04.2016 00:30 5,8 C 87 % 1012,5 hPa 0,0 l/m 7,4 km/h (2 Bft) NO 41 0 min 0,000 mm 0,0 UV-I 0 W/m 3,8 C 4,9 C 9,7 km/h (2 Bft) 91,30 %
11.04.2016 00:31 5,8 C 87 % 1012,5 hPa 0,0 l/m 6,4 km/h (2 Bft) NO 44 0 min 0,000 mm 0,0 UV-I 0 W/m 3,8 C 5,8 C 9,7 km/h (2 Bft) 100,00 %
11.04.2016 00:32 5,7 C 87 % 1012,4 hPa 0,0 l/m 8,3 km/h (2 Bft) NO 38 0 min 0,000 mm 0,0 UV-I 0 W/m 3,7 C 4,1 C 14,5 km/h (3 Bft) 95,65 %
11.04.2016 00:33 5,7 C 87 % 1012,5 hPa 0,0 l/m 13,4 km/h (3 Bft) NO 46 0 min 0,000 mm 0,0 UV-I 0 W/m 3,7 C 0,8 C 16,1 km/h (3 Bft) 100,00 %
11.04.2016 00:34 5,7 C 88 % 1012,4 hPa 0,0 l/m 11,0 km/h (2 Bft) NO 34 0 min 0,000 mm 0,0 UV-I 0 W/m 3,9 C 2,2 C 17,7 km/h (3 Bft) 93,33 %
11.04.2016 00:35 5,6 C 88 % 1012,4 hPa 0,0 l/m 11,4 km/h (2 Bft) NO 39 0 min 0,000 mm 0,0 UV-I 0 W/m 3,8 C 1,8 C 14,5 km/h (3 Bft) 97,56 %
11.04.2016 00:36 5,6 C 88 % 1012,5 hPa 0,0 l/m 12,4 km/h (3 Bft) NO 41 0 min 0,000 mm 0,0 UV-I 0 W/m 3,8 C 1,2 C 16,1 km/h (3 Bft) 95,83 %
11.04.2016 00:37 5,6 C 88 % 1012,5 hPa 0,0 l/m 13,2 km/h (3 Bft) NO 43 0 min 0,000 mm 0,0 UV-I 0 W/m 3,8 C 0,8 C 16,1 km/h (3 Bft) 100,00 %
11.04.2016 00:38 5,7 C 89 % 1012,5 hPa 0,0 l/m 14,9 km/h (3 Bft) NO 44 0 min 0,000 mm 0,0 UV-I 0 W/m 4,0 C -0,0 C 17,7 km/h (3 Bft) 96,97 %
11.04.2016 00:39 5,7 C 88 % 1012,5 hPa 0,0 l/m 13,8 km/h (3 Bft) NO 37 0 min 0,000 mm 0,0 UV-I 0 W/m 3,9 C 0,5 C 17,7 km/h (3 Bft) 96,15 %
11.04.2016 00:40 5,7 C 89 % 1012,5 hPa 0,0 l/m 15,9 km/h (3 Bft) NO 38 0 min 0,000 mm 0,0 UV-I 0 W/m 4,0 C -0,5 C 19,3 km/h (3 Bft) 98,68 %
11.04.2016 00:41 5,7 C 88 % 1012,5 hPa 0,0 l/m 13,0 km/h (3 Bft) NO 41 0 min 0,000 mm 0,0 UV-I 0 W/m 3,9 C 1,0 C 16,1 km/h (3 Bft) 97,56 %
11.04.2016 00:42 5,8 C 88 % 1012,5 hPa 0,0 l/m 12,4 km/h (3 Bft) NO 36 0 min 0,000 mm 0,0 UV-I 0 W/m 4,0 C 1,4 C 16,1 km/h (3 Bft) 100,00 %
11.04.2016 00:43 5,8 C 88 % 1012,5 hPa 0,0 l/m 12,6 km/h (3 Bft) N-NO 27 0 min 0,000 mm 0,0 UV-I 0 W/m 4,0 C 1,3 C 16,1 km/h (3 Bft) 96,15 %
11.04.2016 00:44 5,8 C 88 % 1012,5 hPa 0,0 l/m 12,4 km/h (3 Bft) N-NO 22 0 min 0,000 mm 0,0 UV-I 0 W/m 4,0 C 1,4 C 16,1 km/h (3 Bft) 100,00 %
11.04.2016 00:45 5,8 C 88 % 1012,5 hPa 0,0 l/m 15,8 km/h (3 Bft) N-NO 19 0 min 0,000 mm 0,0 UV-I 0 W/m 4,0 C -0,3 C 17,7 km/h (3 Bft) 96,15 %
11.04.2016 00:46 5,8 C 88 % 1012,5 hPa 0,0 l/m 12,3 km/h (3 Bft) N-NO 29 0 min 0,000 mm 0,0 UV-I 0 W/m 4,0 C 1,5 C 16,1 km/h (3 Bft) 100,00 %
11.04.2016 00:47 5,8 C 88 % 1012,5 hPa 0,0 l/m 11,0 km/h (2 Bft) NO 49 0 min 0,000 mm 0,0 UV-I 0 W/m 4,0 C 2,3 C 16,1 km/h (3 Bft) 96,15 %
11.04.2016 00:48 5,8 C 87 % 1012,5 hPa 0,0 l/m 10,0 km/h (2 Bft) N-NO 28 0 min 0,000 mm 0,0 UV-I 0 W/m 3,8 C 3,0 C 14,5 km/h (3 Bft) 100,00 %
11.04.2016 00:49 5,8 C 87 % 1012,5 hPa 0,0 l/m 10,6 km/h (2 Bft) NO 36 0 min 0,000 mm 0,0 UV-I 0 W/m 3,8 C 2,6 C 14,5 km/h (3 Bft) 92,59 %
11.04.2016 00:50 5,7 C 87 % 1012,5 hPa 0,0 l/m 11,8 km/h (2 Bft) NO 36 0 min 0,000 mm 0,0 UV-I 0 W/m 3,7 C 1,7 C 17,7 km/h (3 Bft) 95,65 %
11.04.2016 00:51 5,7 C 87 % 1012,5 hPa 0,0 l/m 8,8 km/h (2 Bft) NO 42 0 min 0,000 mm 0,0 UV-I 0 W/m 3,7 C 3,7 C 12,9 km/h (3 Bft) 100,00 %
11.04.2016 00:52 5,7 C 87 % 1012,5 hPa 0,0 l/m 10,9 km/h (2 Bft) N-NO 32 0 min 0,000 mm 0,0 UV-I 0 W/m 3,7 C 2,2 C 14,5 km/h (3 Bft) 95,65 %
11.04.2016 00:53 5,7 C 87 % 1012,5 hPa 0,0 l/m 8,6 km/h (2 Bft) NO 38 0 min 0,000 mm 0,0 UV-I 0 W/m 3,7 C 3,9 C 11,3 km/h (2 Bft) 100,00 %
11.04.2016 00:54 5,7 C 87 % 1012,5 hPa 0,0 l/m 11,1 km/h (2 Bft) NO 39 0 min 0,000 mm 0,0 UV-I 0 W/m 3,7 C 2,1 C 16,1 km/h (3 Bft) 95,65 %
11.04.2016 00:55 5,7 C 87 % 1012,5 hPa 0,0 l/m 10,3 km/h (2 Bft) NO 47 0 min 0,000 mm 0,0 UV-I 0 W/m 3,7 C 2,6 C 14,5 km/h (3 Bft) 100,00 %
11.04.2016 00:56 5,7 C 87 % 1012,5 hPa 0,0 l/m 10,4 km/h (2 Bft) NO 42 0 min 0,000 mm 0,0 UV-I 0 W/m 3,7 C 2,6 C 16,1 km/h (3 Bft) 94,12 %
11.04.2016 00:57 5,7 C 87 % 1012,5 hPa 0,0 l/m 12,3 km/h (3 Bft) NO 41 0 min 0,000 mm 0,0 UV-I 0 W/m 3,7 C 1,4 C 17,7 km/h (3 Bft) 100,00 %
11.04.2016 00:58 5,7 C 87 % 1012,5 hPa 0,0 l/m 11,1 km/h (2 Bft) N-NO 18 0 min 0,000 mm 0,0 UV-I 0 W/m 3,7 C 2,1 C 14,5 km/h (3 Bft) 96,97 %
11.04.2016 00:59 5,6 C 87 % 1012,6 hPa 0,0 l/m 10,4 km/h (2 Bft) NO 44 0 min 0,000 mm 0,0 UV-I 0 W/m 3,6 C 2,5 C 14,5 km/h (3 Bft) 100,00 %
11.04.2016 01:00 5,6 C 87 % 1012,6 hPa 0,0 l/m 11,3 km/h (2 Bft) NO 43 0 min 0,000 mm 0,0 UV-I 0 W/m 3,6 C 1,9 C 14,5 km/h (3 Bft) 96,15 %
11.04.2016 01:01 5,6 C 87 % 1012,5 hPa 0,0 l/m 9,7 km/h (2 Bft) NO 44 0 min 0,000 mm 0,0 UV-I 0 W/m 3,6 C 2,9 C 12,9 km/h (3 Bft) 93,33 %
11.04.2016 01:02 5,6 C 87 % 1012,6 hPa 0,0 l/m 11,4 km/h (2 Bft) NO 42 0 min 0,000 mm 0,0 UV-I 0 W/m 3,6 C 1,8 C 14,5 km/h (3 Bft) 100,00 %
11.04.2016 01:03 5,6 C 87 % 1012,5 hPa 0,0 l/m 9,5 km/h (2 Bft) NO 46 0 min 0,000 mm 0,0 UV-I 0 W/m 3,6 C 3,1 C 12,9 km/h (3 Bft) 91,67 %
11.04.2016 01:04 5,6 C 87 % 1012,6 hPa 0,0 l/m 12,6 km/h (3 Bft) NO 41 0 min 0,000 mm 0,0 UV-I 0 W/m 3,6 C 1,1 C 14,5 km/h (3 Bft) 95,65 %
11.04.2016 01:05 5,6 C 87 % 1012,5 hPa 0,0 l/m 10,8 km/h (2 Bft) NO 55 0 min 0,000 mm 0,0 UV-I 0 W/m 3,6 C 2,2 C 16,1 km/h (3 Bft) 95,83 %
11.04.2016 01:06 5,6 C 87 % 1012,5 hPa 0,0 l/m 8,5 km/h (2 Bft) N-NO 30 0 min 0,000 mm 0,0 UV-I 0 W/m 3,6 C 3,8 C 16,1 km/h (3 Bft) 100,00 %
11.04.2016 01:07 5,6 C 87 % 1012,5 hPa 0,0 l/m 12,8 km/h (3 Bft) NO 46 0 min 0,000 mm 0,0 UV-I 0 W/m 3,6 C 1,0 C 16,1 km/h (3 Bft) 100,00 %
11.04.2016 01:08 5,6 C 87 % 1012,5 hPa 0,0 l/m 10,0 km/h (2 Bft) NO 46 0 min 0,000 mm 0,0 UV-I 0 W/m 3,6 C 2,7 C 14,5 km/h (3 Bft) 100,00 %
11.04.2016 01:09 5,6 C 87 % 1012,5 hPa 0,0 l/m 8,3 km/h (2 Bft) NO 34 0 min 0,000 mm 0,0 UV-I 0 W/m 3,6 C 4,0 C 9,7 km/h (2 Bft) 100,00 %
11.04.2016 01:10 5,5 C 87 % 1012,5 hPa 0,0 l/m 9,4 km/h (2 Bft) N-NO 17 0 min 0,000 mm 0,0 UV-I 0 W/m 3,5 C 3,1 C 14,5 km/h (3 Bft) 100,00 %
11.04.2016 01:11 5,5 C 87 % 1012,6 hPa 0,0 l/m 10,3 km/h (2 Bft) NO 41 0 min 0,000 mm 0,0 UV-I 0 W/m 3,5 C 2,4 C 12,9 km/h (3 Bft) 100,00 %
11.04.2016 01:12 5,6 C 87 % 1012,5 hPa 0,0 l/m 11,6 km/h (2 Bft) NO 46 0 min 0,000 mm 0,0 UV-I 0 W/m 3,6 C 1,7 C 17,7 km/h (3 Bft) 100,00 %
11.04.2016 01:13 5,6 C 87 % 1012,5 hPa 0,0 l/m 9,3 km/h (2 Bft) NO 39 0 min 0,000 mm 0,0 UV-I 0 W/m 3,6 C 3,2 C 14,5 km/h (3 Bft) 96,15 %
11.04.2016 01:14 5,6 C 87 % 1012,5 hPa 0,0 l/m 6,6 km/h (2 Bft) O-NO 65 0 min 0,000 mm 0,0 UV-I 0 W/m 3,6 C 5,4 C 8,0 km/h (2 Bft) 95,83 %
11.04.2016 01:15 5,5 C 87 % 1012,5 hPa 0,0 l/m 4,3 km/h (1 Bft) NO 48 0 min 0,000 mm 0,0 UV-I 0 W/m 3,5 C 5,5 C 6,4 km/h (2 Bft) 100,00 %
11.04.2016 01:16 5,5 C 87 % 1012,5 hPa 0,0 l/m 6,3 km/h (2 Bft) NO 46 0 min 0,000 mm 0,0 UV-I 0 W/m 3,5 C 5,5 C 8,0 km/h (2 Bft) 100,00 %
11.04.2016 01:17 5,5 C 87 % 1012,6 hPa 0,0 l/m 5,6 km/h (1 Bft) NO 42 0 min 0,000 mm 0,0 UV-I 0 W/m 3,5 C 5,5 C 9,7 km/h (2 Bft) 100,00 %
11.04.2016 01:18 5,5 C 87 % 1012,6 hPa 0,0 l/m 5,0 km/h (1 Bft) O-NO 78 0 min 0,000 mm 0,0 UV-I 0 W/m 3,5 C 5,5 C 8,0 km/h (2 Bft) 95,83 %
11.04.2016 01:19 5,4 C 87 % 1012,6 hPa 0,0 l/m 8,4 km/h (2 Bft) NO 35 0 min 0,000 mm 0,0 UV-I 0 W/m 3,4 C 3,7 C 11,3 km/h (2 Bft) 100,00 %
11.04.2016 01:20 5,4 C 87 % 1012,6 hPa 0,0 l/m 8,2 km/h (2 Bft) N-NO 22 0 min 0,000 mm 0,0 UV-I 0 W/m 3,4 C 3,9 C 12,9 km/h (3 Bft) 100,00 %
11.04.2016 01:21 5,3 C 87 % 1012,6 hPa 0,0 l/m 8,6 km/h (2 Bft) NO 40 0 min 0,000 mm 0,0 UV-I 0 W/m 3,3 C 3,4 C 12,9 km/h (3 Bft) 100,00 %
11.04.2016 01:22 5,3 C 87 % 1012,6 hPa 0,0 l/m 8,9 km/h (2 Bft) NO 40 0 min 0,000 mm 0,0 UV-I 0 W/m 3,3 C 3,2 C 14,5 km/h (3 Bft) 100,00 %
11.04.2016 01:23 5,3 C 87 % 1012,6 hPa 0,0 l/m 8,5 km/h (2 Bft) NO 41 0 min 0,000 mm 0,0 UV-I 0 W/m 3,3 C 3,5 C 12,9 km/h (3 Bft) 100,00 %
11.04.2016 01:24 5,3 C 87 % 1012,6 hPa 0,0 l/m 8,1 km/h (2 Bft) N-NO 24 0 min 0,000 mm 0,0 UV-I 0 W/m 3,3 C 3,8 C 12,9 km/h (3 Bft) 96,30 %
11.04.2016 01:25 5,2 C 87 % 1012,6 hPa 0,0 l/m 6,4 km/h (2 Bft) O-NO 65 0 min 0,000 mm 0,0 UV-I 0 W/m 3,2 C 5,2 C 9,7 km/h (2 Bft) 100,00 %
11.04.2016 01:26 5,3 C 87 % 1012,6 hPa 0,0 l/m 7,1 km/h (2 Bft) NO 46 0 min 0,000 mm 0,0 UV-I 0 W/m 3,3 C 4,7 C 11,3 km/h (2 Bft) 100,00 %
11.04.2016 01:27 5,2 C 87 % 1012,6 hPa 0,0 l/m 6,5 km/h (2 Bft) NO 51 0 min 0,000 mm 0,0 UV-I 0 W/m 3,2 C 5,1 C 8,0 km/h (2 Bft) 100,00 %
11.04.2016 01:28 5,2 C 87 % 1012,6 hPa 0,0 l/m 4,3 km/h (1 Bft) O-NO 60 0 min 0,000 mm 0,0 UV-I 0 W/m 3,2 C 5,2 C 6,4 km/h (2 Bft) 100,00 %
11.04.2016 01:29 5,3 C 87 % 1012,6 hPa 0,0 l/m 5,8 km/h (2 Bft) NO 36 0 min 0,000 mm 0,0 UV-I 0 W/m 3,3 C 5,3 C 8,0 km/h (2 Bft) 96,15 %
11.04.2016 01:30 5,3 C 87 % 1012,6 hPa 0,0 l/m 6,3 km/h (2 Bft) O-NO 66 0 min 0,000 mm 0,0 UV-I 0 W/m 3,3 C 5,3 C 8,0 km/h (2 Bft) 91,67 %
11.04.2016 01:31 5,3 C 87 % 1012,6 hPa 0,0 l/m 8,4 km/h (2 Bft) NO 40 0 min 0,000 mm 0,0 UV-I 0 W/m 3,3 C 3,6 C 9,7 km/h (2 Bft) 100,00 %
11.04.2016 01:32 5,3 C 87 % 1012,6 hPa 0,0 l/m 6,6 km/h (2 Bft) NO 49 0 min 0,000 mm 0,0 UV-I 0 W/m 3,3 C 5,1 C 8,0 km/h (2 Bft) 100,00 %
11.04.2016 01:33 5,3 C 87 % 1012,6 hPa 0,0 l/m 6,0 km/h (2 Bft) NO 44 0 min 0,000 mm 0,0 UV-I 0 W/m 3,3 C 5,3 C 8,0 km/h (2 Bft) 100,00 %
11.04.2016 01:34 5,3 C 87 % 1012,6 hPa 0,0 l/m 5,4 km/h (1 Bft) O-NO 61 0 min 0,000 mm 0,0 UV-I 0 W/m 3,3 C 5,3 C 8,0 km/h (2 Bft) 100,00 %
11.04.2016 01:35 5,3 C 87 % 1012,6 hPa 0,0 l/m 5,4 km/h (1 Bft) NO 49 0 min 0,000 mm 0,0 UV-I 0 W/m 3,3 C 5,3 C 8,0 km/h (2 Bft) 100,00 %
11.04.2016 01:36 5,3 C 87 % 1012,6 hPa 0,0 l/m 4,9 km/h (1 Bft) NO 53 0 min 0,000 mm 0,0 UV-I 0 W/m 3,3 C 5,3 C 6,4 km/h (2 Bft) 100,00 %
11.04.2016 01:37 5,2 C 87 % 1012,7 hPa 0,0 l/m 5,0 km/h (1 Bft) NO 36 0 min 0,000 mm 0,0 UV-I 0 W/m 3,2 C 5,2 C 6,4 km/h (2 Bft) 100,00 %
11.04.2016 01:38 5,2 C 87 % 1012,7 hPa 0,0 l/m 5,8 km/h (2 Bft) N-NO 24 0 min 0,000 mm 0,0 UV-I 0 W/m 3,2 C 5,2 C 8,0 km/h (2 Bft) 100,00 %
11.04.2016 01:39 5,2 C 87 % 1012,7 hPa 0,0 l/m 5,1 km/h (1 Bft) NO 44 0 min 0,000 mm 0,0 UV-I 0 W/m 3,2 C 5,2 C 8,0 km/h (2 Bft) 98,39 %
11.04.2016 01:40 5,2 C 87 % 1012,7 hPa 0,0 l/m 5,6 km/h (1 Bft) O-NO 63 0 min 0,000 mm 0,0 UV-I 0 W/m 3,2 C 5,2 C 8,0 km/h (2 Bft) 100,00 %
11.04.2016 01:41 5,2 C 87 % 1012,7 hPa 0,0 l/m 6,8 km/h (2 Bft) O-NO 59 0 min 0,000 mm 0,0 UV-I 0 W/m 3,2 C 4,9 C 8,0 km/h (2 Bft) 100,00 %
11.04.2016 01:42 5,2 C 87 % 1012,7 hPa 0,0 l/m 6,8 km/h (2 Bft) O-NO 63 0 min 0,000 mm 0,0 UV-I 0 W/m 3,2 C 4,9 C 9,7 km/h (2 Bft) 100,00 %
11.04.2016 01:43 5,2 C 87 % 1012,7 hPa 0,0 l/m 6,4 km/h (2 Bft) NO 40 0 min 0,000 mm 0,0 UV-I 0 W/m 3,2 C 5,2 C 9,7 km/h (2 Bft) 98,45 %
11.04.2016 01:44 5,2 C 87 % 1012,6 hPa 0,0 l/m 7,5 km/h (2 Bft) N-NO 13 0 min 0,000 mm 0,0 UV-I 0 W/m 3,2 C 4,2 C 9,7 km/h (2 Bft) 97,56 %
11.04.2016 01:45 5,2 C 87 % 1012,6 hPa 0,0 l/m 6,1 km/h (2 Bft) N 11 0 min 0,000 mm 0,0 UV-I 0 W/m 3,2 C 5,2 C 6,4 km/h (2 Bft) 100,00 %
11.04.2016 01:46 5,1 C 86 % 1012,6 hPa 0,0 l/m 6,5 km/h (2 Bft) NO 44 0 min 0,000 mm 0,0 UV-I 0 W/m 3,0 C 5,0 C 9,7 km/h (2 Bft) 96,15 %
11.04.2016 01:47 5,1 C 87 % 1012,6 hPa 0,0 l/m 6,4 km/h (2 Bft) N-NO 30 0 min 0,000 mm 0,0 UV-I 0 W/m 3,1 C 5,1 C 12,9 km/h (3 Bft) 100,00 %
11.04.2016 01:48 5,1 C 87 % 1012,5 hPa 0,0 l/m 5,2 km/h (1 Bft) NO 55 0 min 0,000 mm 0,0 UV-I 0 W/m 3,1 C 5,1 C 8,0 km/h (2 Bft) 100,00 %
11.04.2016 01:49 5,1 C 87 % 1012,5 hPa 0,0 l/m 4,7 km/h (1 Bft) O-NO 59 0 min 0,000 mm 0,0 UV-I 0 W/m 3,1 C 5,1 C 6,4 km/h (2 Bft) 100,00 %
11.04.2016 01:50 5,1 C 87 % 1012,6 hPa 0,0 l/m 4,3 km/h (1 Bft) NO 46 0 min 0,000 mm 0,0 UV-I 0 W/m 3,1 C 5,1 C 8,0 km/h (2 Bft) 100,00 %
11.04.2016 01:51 5,1 C 87 % 1012,6 hPa 0,0 l/m 5,1 km/h (1 Bft) O-NO 59 0 min 0,000 mm 0,0 UV-I 0 W/m 3,1 C 5,1 C 8,0 km/h (2 Bft) 100,00 %
11.04.2016 01:52 5,1 C 87 % 1012,5 hPa 0,0 l/m 4,8 km/h (1 Bft) NO 55 0 min 0,000 mm 0,0 UV-I 0 W/m 3,1 C 5,1 C 6,4 km/h (2 Bft) 96,30 %
11.04.2016 01:53 5,1 C 87 % 1012,6 hPa 0,0 l/m 5,4 km/h (1 Bft) NO 56 0 min 0,000 mm 0,0 UV-I 0 W/m 3,1 C 5,1 C 8,0 km/h (2 Bft) 100,00 %
11.04.2016 01:54 5,1 C 87 % 1012,6 hPa 0,0 l/m 6,0 km/h (2 Bft) NO 41 0 min 0,000 mm 0,0 UV-I 0 W/m 3,1 C 5,1 C 8,0 km/h (2 Bft) 92,59 %
11.04.2016 01:55 5,1 C 87 % 1012,6 hPa 0,0 l/m 5,0 km/h (1 Bft) O-NO 59 0 min 0,000 mm 0,0 UV-I 0 W/m 3,1 C 5,1 C 6,4 km/h (2 Bft) 100,00 %
11.04.2016 01:56 5,1 C 87 % 1012,6 hPa 0,0 l/m 6,2 km/h (2 Bft) O-NO 62 0 min 0,000 mm 0,0 UV-I 0 W/m 3,1 C 5,1 C 9,7 km/h (2 Bft) 100,00 %
11.04.2016 01:57 5,1 C 87 % 1012,6 hPa 0,0 l/m 5,9 km/h (2 Bft) O-NO 57 0 min 0,000 mm 0,0 UV-I 0 W/m 3,1 C 5,1 C 6,4 km/h (2 Bft) 96,15 %
11.04.2016 01:58 5,1 C 87 % 1012,6 hPa 0,0 l/m 5,8 km/h (2 Bft) N-NO 27 0 min 0,000 mm 0,0 UV-I 0 W/m 3,1 C 5,1 C 9,7 km/h (2 Bft) 100,00 %
11.04.2016 01:59 5,1 C 87 % 1012,6 hPa 0,0 l/m 6,3 km/h (2 Bft) NO 34 0 min 0,000 mm 0,0 UV-I 0 W/m 3,1 C 5,1 C 9,7 km/h (2 Bft) 100,00 %
11.04.2016 02:00 5,0 C 87 % 1012,6 hPa 0,0 l/m 7,6 km/h (2 Bft) NO 53 0 min 0,000 mm 0,0 UV-I 0 W/m 3,0 C 3,9 C 9,7 km/h (2 Bft) 100,00 %
11.04.2016 02:01 4,9 C 87 % 1012,6 hPa 0,0 l/m 7,7 km/h (2 Bft) NO 35 0 min 0,000 mm 0,0 UV-I 0 W/m 2,9 C 3,8 C 9,7 km/h (2 Bft) 100,00 %
11.04.2016 02:02 4,8 C 87 % 1012,6 hPa 0,0 l/m 6,9 km/h (2 Bft) NO 34 0 min 0,000 mm 0,0 UV-I 0 W/m 2,8 C 4,4 C 9,7 km/h (2 Bft) 96,15 %
11.04.2016 02:03 4,8 C 87 % 1012,6 hPa 0,0 l/m 6,5 km/h (2 Bft) NO 38 0 min 0,000 mm 0,0 UV-I 0 W/m 2,8 C 4,7 C 8,0 km/h (2 Bft) 100,00 %
11.04.2016 02:04 4,7 C 88 % 1012,5 hPa 0,0 l/m 6,4 km/h (2 Bft) NO 36 0 min 0,000 mm 0,0 UV-I 0 W/m 2,9 C 4,7 C 8,0 km/h (2 Bft) 100,00 %
11.04.2016 02:05 4,7 C 88 % 1012,5 hPa 0,0 l/m 5,4 km/h (1 Bft) NO 51 0 min 0,000 mm 0,0 UV-I 0 W/m 2,9 C 4,7 C 8,0 km/h (2 Bft) 100,00 %
11.04.2016 02:06 4,6 C 88 % 1012,5 hPa 0,0 l/m 6,4 km/h (2 Bft) NO 38 0 min 0,000 mm 0,0 UV-I 0 W/m 2,8 C 4,6 C 9,7 km/h (2 Bft) 96,15 %
11.04.2016 02:07 4,6 C 88 % 1012,6 hPa 0,0 l/m 8,2 km/h (2 Bft) N-NO 20 0 min 0,000 mm 0,0 UV-I 0 W/m 2,8 C 3,0 C 11,3 km/h (2 Bft) 100,00 %
11.04.2016 02:08 4,6 C 88 % 1012,6 hPa 0,0 l/m 7,6 km/h (2 Bft) NO 41 0 min 0,000 mm 0,0 UV-I 0 W/m 2,8 C 3,5 C 9,7 km/h (2 Bft) 100,00 %
11.04.2016 02:09 4,6 C 88 % 1012,6 hPa 0,0 l/m 5,7 km/h (1 Bft) NO 34 0 min 0,000 mm 0,0 UV-I 0 W/m 2,8 C 4,6 C 8,0 km/h (2 Bft) 100,00 %
11.04.2016 02:10 4,6 C 88 % 1012,6 hPa 0,0 l/m 5,7 km/h (1 Bft) NO 48 0 min 0,000 mm 0,0 UV-I 0 W/m 2,8 C 4,6 C 9,7 km/h (2 Bft) 100,00 %
11.04.2016 02:11 4,7 C 88 % 1012,5 hPa 0,0 l/m 5,2 km/h (1 Bft) NO 36 0 min 0,000 mm 0,0 UV-I 0 W/m 2,9 C 4,7 C 8,0 km/h (2 Bft) 98,52 %
11.04.2016 02:12 4,7 C 88 % 1012,5 hPa 0,0 l/m 6,7 km/h (2 Bft) N-NO 19 0 min 0,000 mm 0,0 UV-I 0 W/m 2,9 C 4,4 C 9,7 km/h (2 Bft) 100,00 %
11.04.2016 02:13 4,7 C 88 % 1012,5 hPa 0,0 l/m 7,3 km/h (2 Bft) N-NO 30 0 min 0,000 mm 0,0 UV-I 0 W/m 2,9 C 3,9 C 9,7 km/h (2 Bft) 100,00 %
11.04.2016 02:14 4,7 C 88 % 1012,5 hPa 0,0 l/m 7,3 km/h (2 Bft) NO 40 0 min 0,000 mm 0,0 UV-I 0 W/m 2,9 C 3,9 C 9,7 km/h (2 Bft) 100,00 %
11.04.2016 02:15 4,7 C 88 % 1012,5 hPa 0,0 l/m 6,9 km/h (2 Bft) N-NO 31 0 min 0,000 mm 0,0 UV-I 0 W/m 2,9 C 4,3 C 9,7 km/h (2 Bft) 100,00 %
11.04.2016 02:16 4,7 C 88 % 1012,6 hPa 0,0 l/m 7,1 km/h (2 Bft) NO 46 0 min 0,000 mm 0,0 UV-I 0 W/m 2,9 C 4,1 C 9,7 km/h (2 Bft) 95,65 %
11.04.2016 02:17 4,7 C 88 % 1012,6 hPa 0,0 l/m 5,9 km/h (2 Bft) NO 37 0 min 0,000 mm 0,0 UV-I 0 W/m 2,9 C 4,7 C 8,0 km/h (2 Bft) 100,00 %
11.04.2016 02:18 4,7 C 88 % 1012,6 hPa 0,0 l/m 7,2 km/h (2 Bft) NO 42 0 min 0,000 mm 0,0 UV-I 0 W/m 2,9 C 4,0 C 9,7 km/h (2 Bft) 100,00 %
11.04.2016 02:19 4,7 C 88 % 1012,6 hPa 0,0 l/m 7,0 km/h (2 Bft) NO 35 0 min 0,000 mm 0,0 UV-I 0 W/m 2,9 C 4,2 C 9,7 km/h (2 Bft) 100,00 %
11.04.2016 02:20 4,7 C 88 % 1012,6 hPa 0,0 l/m 8,5 km/h (2 Bft) NO 42 0 min 0,000 mm 0,0 UV-I 0 W/m 2,9 C 2,9 C 14,5 km/h (3 Bft) 100,00 %
11.04.2016 02:21 4,6 C 88 % 1012,5 hPa 0,0 l/m 9,0 km/h (2 Bft) N-NO 27 0 min 0,000 mm 0,0 UV-I 0 W/m 2,8 C 2,4 C 14,5 km/h (3 Bft) 100,00 %
11.04.2016 02:22 4,6 C 88 % 1012,5 hPa 0,0 l/m 9,2 km/h (2 Bft) NO 50 0 min 0,000 mm 0,0 UV-I 0 W/m 2,8 C 2,2 C 14,5 km/h (3 Bft) 96,15 %
11.04.2016 02:23 4,7 C 88 % 1012,5 hPa 0,0 l/m 7,8 km/h (2 Bft) N-NO 20 0 min 0,000 mm 0,0 UV-I 0 W/m 2,9 C 3,5 C 9,7 km/h (2 Bft) 93,33 %
11.04.2016 02:24 4,7 C 88 % 1012,5 hPa 0,0 l/m 6,8 km/h (2 Bft) O-NO 60 0 min 0,000 mm 0,0 UV-I 0 W/m 2,9 C 4,4 C 9,7 km/h (2 Bft) 100,00 %
11.04.2016 02:25 4,7 C 88 % 1012,5 hPa 0,0 l/m 7,9 km/h (2 Bft) NO 36 0 min 0,000 mm 0,0 UV-I 0 W/m 2,9 C 3,4 C 12,9 km/h (3 Bft) 96,30 %
11.04.2016 02:26 4,8 C 88 % 1012,5 hPa 0,0 l/m 5,1 km/h (1 Bft) NO 51 0 min 0,000 mm 0,0 UV-I 0 W/m 3,0 C 4,8 C 8,0 km/h (2 Bft) 100,00 %
11.04.2016 02:27 4,8 C 88 % 1012,5 hPa 0,0 l/m 8,3 km/h (2 Bft) NO 51 0 min 0,000 mm 0,0 UV-I 0 W/m 3,0 C 3,1 C 12,9 km/h (3 Bft) 95,65 %
11.04.2016 02:28 4,9 C 87 % 1012,5 hPa 0,0 l/m 6,7 km/h (2 Bft) NO 46 0 min 0,000 mm 0,0 UV-I 0 W/m 2,9 C 4,7 C 8,0 km/h (2 Bft) 100,00 %
11.04.2016 02:29 4,9 C 87 % 1012,5 hPa 0,0 l/m 8,6 km/h (2 Bft) NO 50 0 min 0,000 mm 0,0 UV-I 0 W/m 2,9 C 3,0 C 11,3 km/h (2 Bft) 100,00 %
11.04.2016 02:30 4,9 C 87 % 1012,5 hPa 0,0 l/m 8,5 km/h (2 Bft) NO 36 0 min 0,000 mm 0,0 UV-I 0 W/m 2,9 C 3,1 C 12,9 km/h (3 Bft) 100,00 %
11.04.2016 02:31 4,9 C 87 % 1012,5 hPa 0,0 l/m 9,6 km/h (2 Bft) N-NO 31 0 min 0,000 mm 0,0 UV-I 0 W/m 2,9 C 2,2 C 14,5 km/h (3 Bft) 100,00 %
11.04.2016 02:32 4,9 C 87 % 1012,5 hPa 0,0 l/m 9,3 km/h (2 Bft) NO 38 0 min 0,000 mm 0,0 UV-I 0 W/m 2,9 C 2,5 C 12,9 km/h (3 Bft) 100,00 %
11.04.2016 02:33 4,9 C 87 % 1012,5 hPa 0,0 l/m 9,5 km/h (2 Bft) NO 46 0 min 0,000 mm 0,0 UV-I 0 W/m 2,9 C 2,3 C 14,5 km/h (3 Bft) 100,00 %
11.04.2016 02:34 4,9 C 87 % 1012,5 hPa 0,0 l/m 8,2 km/h (2 Bft) NO 44 0 min 0,000 mm 0,0 UV-I 0 W/m 2,9 C 3,3 C 14,5 km/h (3 Bft) 100,00 %
11.04.2016 02:35 4,8 C 87 % 1012,5 hPa 0,0 l/m 9,1 km/h (2 Bft) NO 34 0 min 0,000 mm 0,0 UV-I 0 W/m 2,8 C 2,5 C 11,3 km/h (2 Bft) 100,00 %
11.04.2016 02:36 4,8 C 87 % 1012,5 hPa 0,0 l/m 11,7 km/h (2 Bft) NO 52 0 min 0,000 mm 0,0 UV-I 0 W/m 2,8 C 0,7 C 16,1 km/h (3 Bft) 97,62 %
11.04.2016 02:37 4,8 C 87 % 1012,5 hPa 0,0 l/m 9,2 km/h (2 Bft) NO 55 0 min 0,000 mm 0,0 UV-I 0 W/m 2,8 C 2,4 C 12,9 km/h (3 Bft) 100,00 %
11.04.2016 02:38 4,8 C 87 % 1012,5 hPa 0,0 l/m 8,8 km/h (2 Bft) NO 49 0 min 0,000 mm 0,0 UV-I 0 W/m 2,8 C 2,7 C 9,7 km/h (2 Bft) 96,97 %
11.04.2016 02:39 4,9 C 87 % 1012,5 hPa 0,0 l/m 10,0 km/h (2 Bft) NO 35 0 min 0,000 mm 0,0 UV-I 0 W/m 2,9 C 2,0 C 14,5 km/h (3 Bft) 100,00 %
11.04.2016 02:40 4,8 C 87 % 1012,5 hPa 0,0 l/m 11,4 km/h (2 Bft) NO 40 0 min 0,000 mm 0,0 UV-I 0 W/m 2,8 C 0,9 C 16,1 km/h (3 Bft) 96,30 %
11.04.2016 02:41 4,8 C 87 % 1012,5 hPa 0,0 l/m 9,7 km/h (2 Bft) NO 42 0 min 0,000 mm 0,0 UV-I 0 W/m 2,8 C 2,1 C 14,5 km/h (3 Bft) 92,31 %
11.04.2016 02:42 4,8 C 87 % 1012,5 hPa 0,0 l/m 9,0 km/h (2 Bft) NO 47 0 min 0,000 mm 0,0 UV-I 0 W/m 2,8 C 2,6 C 12,9 km/h (3 Bft) 98,54 %
11.04.2016 02:43 4,8 C 87 % 1012,5 hPa 0,0 l/m 8,5 km/h (2 Bft) O-NO 59 0 min 0,000 mm 0,0 UV-I 0 W/m 2,8 C 3,0 C 12,9 km/h (3 Bft) 97,37 %
11.04.2016 02:44 4,9 C 87 % 1012,5 hPa 0,0 l/m 8,7 km/h (2 Bft) NO 39 0 min 0,000 mm 0,0 UV-I 0 W/m 2,9 C 2,9 C 12,9 km/h (3 Bft) 100,00 %
11.04.2016 02:45 4,8 C 87 % 1012,5 hPa 0,0 l/m 9,0 km/h (2 Bft) NO 55 0 min 0,000 mm 0,0 UV-I 0 W/m 2,8 C 2,6 C 14,5 km/h (3 Bft) 96,15 %
11.04.2016 02:46 4,8 C 87 % 1012,5 hPa 0,0 l/m 10,7 km/h (2 Bft) NO 40 0 min 0,000 mm 0,0 UV-I 0 W/m 2,8 C 1,4 C 14,5 km/h (3 Bft) 100,00 %
11.04.2016 02:47 4,8 C 87 % 1012,5 hPa 0,0 l/m 11,2 km/h (2 Bft) N-NO 30 0 min 0,000 mm 0,0 UV-I 0 W/m 2,8 C 1,0 C 14,5 km/h (3 Bft) 93,33 %
11.04.2016 02:48 4,8 C 87 % 1012,5 hPa 0,0 l/m 9,0 km/h (2 Bft) N-NO 24 0 min 0,000 mm 0,0 UV-I 0 W/m 2,8 C 2,6 C 12,9 km/h (3 Bft) 100,00 %
11.04.2016 02:49 4,8 C 87 % 1012,5 hPa 0,0 l/m 11,5 km/h (2 Bft) N-NO 22 0 min 0,000 mm 0,0 UV-I 0 W/m 2,8 C 0,8 C 14,5 km/h (3 Bft) 97,14 %
11.04.2016 02:50 4,8 C 87 % 1012,5 hPa 0,0 l/m 12,2 km/h (2 Bft) N-NO 32 0 min 0,000 mm 0,0 UV-I 0 W/m 2,8 C 0,4 C 16,1 km/h (3 Bft) 92,59 %
11.04.2016 02:51 4,8 C 87 % 1012,5 hPa 0,0 l/m 9,6 km/h (2 Bft) N-NO 28 0 min 0,000 mm 0,0 UV-I 0 W/m 2,8 C 2,1 C 12,9 km/h (3 Bft) 100,00 %
11.04.2016 02:52 4,7 C 87 % 1012,5 hPa 0,0 l/m 10,8 km/h (2 Bft) NO 46 0 min 0,000 mm 0,0 UV-I 0 W/m 2,7 C 1,2 C 14,5 km/h (3 Bft) 96,15 %
11.04.2016 02:53 4,8 C 87 % 1012,5 hPa 0,0 l/m 10,6 km/h (2 Bft) NO 35 0 min 0,000 mm 0,0 UV-I 0 W/m 2,8 C 1,4 C 14,5 km/h (3 Bft) 100,00 %
11.04.2016 02:54 4,8 C 87 % 1012,5 hPa 0,0 l/m 10,3 km/h (2 Bft) NO 40 0 min 0,000 mm 0,0 UV-I 0 W/m 2,8 C 1,6 C 14,5 km/h (3 Bft) 92,86 %
11.04.2016 02:55 4,8 C 87 % 1012,6 hPa 0,0 l/m 8,9 km/h (2 Bft) NO 40 0 min 0,000 mm 0,0 UV-I 0 W/m 2,8 C 2,7 C 11,3 km/h (2 Bft) 100,00 %
11.04.2016 02:56 4,8 C 87 % 1012,6 hPa 0,0 l/m 11,1 km/h (2 Bft) NO 38 0 min 0,000 mm 0,0 UV-I 0 W/m 2,8 C 1,1 C 17,7 km/h (3 Bft) 92,31 %
11.04.2016 02:57 4,8 C 87 % 1012,5 hPa 0,0 l/m 12,7 km/h (3 Bft) NO 37 0 min 0,000 mm 0,0 UV-I 0 W/m 2,8 C 0,1 C 16,1 km/h (3 Bft) 96,30 %
11.04.2016 02:58 4,8 C 87 % 1012,6 hPa 0,0 l/m 9,9 km/h (2 Bft) NO 38 0 min 0,000 mm 0,0 UV-I 0 W/m 2,8 C 1,9 C 12,9 km/h (3 Bft) 92,86 %
11.04.2016 02:59 4,8 C 86 % 1012,6 hPa 0,0 l/m 9,1 km/h (2 Bft) NO 46 0 min 0,000 mm 0,0 UV-I 0 W/m 2,7 C 2,5 C 12,9 km/h (3 Bft) 96,67 %
11.04.2016 03:00 4,8 C 86 % 1012,6 hPa 0,0 l/m 10,8 km/h (2 Bft) N-NO 27 0 min 0,000 mm 0,0 UV-I 0 W/m 2,7 C 1,3 C 14,5 km/h (3 Bft) 100,00 %
11.04.2016 03:01 4,8 C 87 % 1012,6 hPa 0,0 l/m 11,5 km/h (2 Bft) NO 40 0 min 0,000 mm 0,0 UV-I 0 W/m 2,8 C 0,8 C 14,5 km/h (3 Bft) 95,83 %
11.04.2016 03:02 4,8 C 86 % 1012,6 hPa 0,0 l/m 10,9 km/h (2 Bft) NO 50 0 min 0,000 mm 0,0 UV-I 0 W/m 2,7 C 1,2 C 16,1 km/h (3 Bft) 100,00 %
11.04.2016 03:03 4,8 C 86 % 1012,6 hPa 0,0 l/m 8,3 km/h (2 Bft) NO 34 0 min 0,000 mm 0,0 UV-I 0 W/m 2,7 C 3,1 C 9,7 km/h (2 Bft) 95,83 %
11.04.2016 03:04 4,8 C 86 % 1012,6 hPa 0,0 l/m 8,0 km/h (2 Bft) NO 48 0 min 0,000 mm 0,0 UV-I 0 W/m 2,7 C 3,4 C 11,3 km/h (2 Bft) 100,00 %
11.04.2016 03:05 4,8 C 86 % 1012,6 hPa 0,0 l/m 9,6 km/h (2 Bft) N 11 0 min 0,000 mm 0,0 UV-I 0 W/m 2,7 C 2,1 C 11,3 km/h (2 Bft) 95,83 %
11.04.2016 03:06 4,8 C 86 % 1012,6 hPa 0,0 l/m 8,9 km/h (2 Bft) NO 47 0 min 0,000 mm 0,0 UV-I 0 W/m 2,7 C 2,7 C 14,5 km/h (3 Bft) 96,15 %
11.04.2016 03:07 4,9 C 86 % 1012,6 hPa 0,0 l/m 7,9 km/h (2 Bft) N-NO 26 0 min 0,000 mm 0,0 UV-I 0 W/m 2,8 C 3,6 C 11,3 km/h (2 Bft) 100,00 %
11.04.2016 03:08 4,9 C 86 % 1012,6 hPa 0,0 l/m 8,7 km/h (2 Bft) O-NO 58 0 min 0,000 mm 0,0 UV-I 0 W/m 2,8 C 2,9 C 12,9 km/h (3 Bft) 96,67 %
11.04.2016 03:09 4,9 C 86 % 1012,6 hPa 0,0 l/m 5,6 km/h (1 Bft) NO 41 0 min 0,000 mm 0,0 UV-I 0 W/m 2,8 C 4,9 C 8,0 km/h (2 Bft) 100,00 %
11.04.2016 03:10 4,9 C 86 % 1012,6 hPa 0,0 l/m 7,4 km/h (2 Bft) NO 39 0 min 0,000 mm 0,0 UV-I 0 W/m 2,8 C 4,0 C 12,9 km/h (3 Bft) 96,15 %
11.04.2016 03:11 4,9 C 85 % 1012,6 hPa 0,0 l/m 6,5 km/h (2 Bft) NO 44 0 min 0,000 mm 0,0 UV-I 0 W/m 2,6 C 4,8 C 9,7 km/h (2 Bft) 91,67 %
11.04.2016 03:12 4,9 C 85 % 1012,6 hPa 0,0 l/m 6,0 km/h (2 Bft) NO 36 0 min 0,000 mm 0,0 UV-I 0 W/m 2,6 C 4,9 C 8,0 km/h (2 Bft) 96,67 %
11.04.2016 03:13 4,9 C 85 % 1012,7 hPa 0,0 l/m 5,7 km/h (1 Bft) O-NO 57 0 min 0,000 mm 0,0 UV-I 0 W/m 2,6 C 4,9 C 8,0 km/h (2 Bft) 100,00 %
11.04.2016 03:14 4,9 C 85 % 1012,7 hPa 0,0 l/m 5,2 km/h (1 Bft) O-NO 59 0 min 0,000 mm 0,0 UV-I 0 W/m 2,6 C 4,9 C 6,4 km/h (2 Bft) 95,83 %
11.04.2016 03:15 4,9 C 85 % 1012,7 hPa 0,0 l/m 6,1 km/h (2 Bft) O-NO 61 0 min 0,000 mm 0,0 UV-I 0 W/m 2,6 C 4,9 C 9,7 km/h (2 Bft) 100,00 %
11.04.2016 03:16 4,9 C 85 % 1012,7 hPa 0,0 l/m 8,3 km/h (2 Bft) O-NO 60 0 min 0,000 mm 0,0 UV-I 0 W/m 2,6 C 3,3 C 12,9 km/h (3 Bft) 100,00 %
11.04.2016 03:17 4,9 C 85 % 1012,6 hPa 0,0 l/m 6,4 km/h (2 Bft) NO 51 0 min 0,000 mm 0,0 UV-I 0 W/m 2,6 C 4,9 C 8,0 km/h (2 Bft) 100,00 %
11.04.2016 03:18 4,9 C 85 % 1012,6 hPa 0,0 l/m 6,8 km/h (2 Bft) O-NO 67 0 min 0,000 mm 0,0 UV-I 0 W/m 2,6 C 4,6 C 8,0 km/h (2 Bft) 100,00 %
11.04.2016 03:19 4,9 C 85 % 1012,6 hPa 0,0 l/m 8,0 km/h (2 Bft) O-NO 57 0 min 0,000 mm 0,0 UV-I 0 W/m 2,6 C 3,5 C 11,3 km/h (2 Bft) 95,65 %
11.04.2016 03:20 4,9 C 85 % 1012,6 hPa 0,0 l/m 8,7 km/h (2 Bft) NO 56 0 min 0,000 mm 0,0 UV-I 0 W/m 2,6 C 2,9 C 11,3 km/h (2 Bft) 100,00 %
11.04.2016 03:21 4,8 C 85 % 1012,6 hPa 0,0 l/m 9,3 km/h (2 Bft) O-NO 74 0 min 0,000 mm 0,0 UV-I 0 W/m 2,5 C 2,4 C 14,5 km/h (3 Bft) 100,00 %
11.04.2016 03:22 4,8 C 85 % 1012,6 hPa 0,0 l/m 6,8 km/h (2 Bft) NO 51 0 min 0,000 mm 0,0 UV-I 0 W/m 2,5 C 4,5 C 9,7 km/h (2 Bft) 93,33 %
11.04.2016 03:23 4,8 C 85 % 1012,6 hPa 0,0 l/m 9,0 km/h (2 Bft) NO 53 0 min 0,000 mm 0,0 UV-I 0 W/m 2,5 C 2,6 C 12,9 km/h (3 Bft) 100,00 %
11.04.2016 03:24 4,8 C 85 % 1012,6 hPa 0,0 l/m 8,5 km/h (2 Bft) O-NO 57 0 min 0,000 mm 0,0 UV-I 0 W/m 2,5 C 3,0 C 14,5 km/h (3 Bft) 100,00 %
11.04.2016 03:25 4,8 C 85 % 1012,6 hPa 0,0 l/m 7,4 km/h (2 Bft) O-NO 65 0 min 0,000 mm 0,0 UV-I 0 W/m 2,5 C 3,9 C 9,7 km/h (2 Bft) 96,15 %
11.04.2016 03:26 4,8 C 85 % 1012,6 hPa 0,0 l/m 7,2 km/h (2 Bft) NO 46 0 min 0,000 mm 0,0 UV-I 0 W/m 2,5 C 4,1 C 9,7 km/h (2 Bft) 95,83 %
11.04.2016 03:27 4,8 C 85 % 1012,6 hPa 0,0 l/m 8,0 km/h (2 Bft) O-NO 57 0 min 0,000 mm 0,0 UV-I 0 W/m 2,5 C 3,4 C 11,3 km/h (2 Bft) 100,00 %
11.04.2016 03:28 4,8 C 85 % 1012,6 hPa 0,0 l/m 8,6 km/h (2 Bft) O-NO 61 0 min 0,000 mm 0,0 UV-I 0 W/m 2,5 C 2,9 C 9,7 km/h (2 Bft) 96,15 %
11.04.2016 03:29 4,7 C 85 % 1012,6 hPa 0,0 l/m 7,8 km/h (2 Bft) O-NO 58 0 min 0,000 mm 0,0 UV-I 0 W/m 2,4 C 3,5 C 9,7 km/h (2 Bft) 100,00 %
11.04.2016 03:30 4,7 C 85 % 1012,6 hPa 0,0 l/m 8,9 km/h (2 Bft) NO 56 0 min 0,000 mm 0,0 UV-I 0 W/m 2,4 C 2,6 C 12,9 km/h (3 Bft) 100,00 %
11.04.2016 03:31 4,7 C 85 % 1012,6 hPa 0,0 l/m 8,8 km/h (2 Bft) O-NO 59 0 min 0,000 mm 0,0 UV-I 0 W/m 2,4 C 2,6 C 14,5 km/h (3 Bft) 100,00 %
11.04.2016 03:32 4,7 C 85 % 1012,6 hPa 0,0 l/m 7,6 km/h (2 Bft) NO 55 0 min 0,000 mm 0,0 UV-I 0 W/m 2,4 C 3,6 C 9,7 km/h (2 Bft) 95,65 %
11.04.2016 03:33 4,7 C 85 % 1012,6 hPa 0,0 l/m 7,6 km/h (2 Bft) O-NO 58 0 min 0,000 mm 0,0 UV-I 0 W/m 2,4 C 3,6 C 9,7 km/h (2 Bft) 100,00 %
11.04.2016 03:34 4,7 C 85 % 1012,6 hPa 0,0 l/m 7,6 km/h (2 Bft) O-NO 73 0 min 0,000 mm 0,0 UV-I 0 W/m 2,4 C 3,6 C 8,0 km/h (2 Bft) 100,00 %
11.04.2016 03:35 4,7 C 85 % 1012,6 hPa 0,0 l/m 8,3 km/h (2 Bft) O-NO 61 0 min 0,000 mm 0,0 UV-I 0 W/m 2,4 C 3,0 C 11,3 km/h (2 Bft) 91,67 %
11.04.2016 03:36 4,7 C 85 % 1012,6 hPa 0,0 l/m 8,1 km/h (2 Bft) O-NO 63 0 min 0,000 mm 0,0 UV-I 0 W/m 2,4 C 3,2 C 9,7 km/h (2 Bft) 92,31 %
11.04.2016 03:37 4,7 C 85 % 1012,6 hPa 0,0 l/m 7,1 km/h (2 Bft) NO 44 0 min 0,000 mm 0,0 UV-I 0 W/m 2,4 C 4,1 C 9,7 km/h (2 Bft) 100,00 %
11.04.2016 03:38 4,7 C 85 % 1012,6 hPa 0,0 l/m 7,1 km/h (2 Bft) NO 34 0 min 0,000 mm 0,0 UV-I 0 W/m 2,4 C 4,1 C 9,7 km/h (2 Bft) 100,00 %
11.04.2016 03:39 4,7 C 85 % 1012,6 hPa 0,0 l/m 6,4 km/h (2 Bft) O-NO 58 0 min 0,000 mm 0,0 UV-I 0 W/m 2,4 C 4,7 C 11,3 km/h (2 Bft) 100,00 %
11.04.2016 03:40 4,7 C 85 % 1012,6 hPa 0,0 l/m 7,0 km/h (2 Bft) O-NO 61 0 min 0,000 mm 0,0 UV-I 0 W/m 2,4 C 4,2 C 11,3 km/h (2 Bft) 100,00 %
11.04.2016 03:41 4,6 C 85 % 1012,6 hPa 0,0 l/m 7,0 km/h (2 Bft) O-NO 58 0 min 0,000 mm 0,0 UV-I 0 W/m 2,3 C 4,1 C 9,7 km/h (2 Bft) 100,00 %
11.04.2016 03:42 4,6 C 85 % 1012,6 hPa 0,0 l/m 7,8 km/h (2 Bft) NO 53 0 min 0,000 mm 0,0 UV-I 0 W/m 2,3 C 3,4 C 9,7 km/h (2 Bft) 96,55 %
11.04.2016 03:43 4,6 C 85 % 1012,6 hPa 0,0 l/m 7,8 km/h (2 Bft) O-NO 60 0 min 0,000 mm 0,0 UV-I 0 W/m 2,3 C 3,4 C 12,9 km/h (3 Bft) 100,00 %
11.04.2016 03:44 4,6 C 86 % 1012,6 hPa 0,0 l/m 7,5 km/h (2 Bft) O-NO 65 0 min 0,000 mm 0,0 UV-I 0 W/m 2,5 C 3,6 C 11,3 km/h (2 Bft) 100,00 %
11.04.2016 03:45 4,5 C 86 % 1012,6 hPa 0,0 l/m 7,8 km/h (2 Bft) O-NO 59 0 min 0,000 mm 0,0 UV-I 0 W/m 2,4 C 3,2 C 9,7 km/h (2 Bft) 100,00 %
11.04.2016 03:46 4,5 C 86 % 1012,6 hPa 0,0 l/m 7,4 km/h (2 Bft) O-NO 58 0 min 0,000 mm 0,0 UV-I 0 W/m 2,4 C 3,6 C 11,3 km/h (2 Bft) 100,00 %
11.04.2016 03:47 4,5 C 86 % 1012,6 hPa 0,0 l/m 5,4 km/h (1 Bft) O-NO 63 0 min 0,000 mm 0,0 UV-I 0 W/m 2,4 C 4,5 C 8,0 km/h (2 Bft) 100,00 %
11.04.2016 03:48 4,4 C 86 % 1012,6 hPa 0,0 l/m 5,1 km/h (1 Bft) NO 51 0 min 0,000 mm 0,0 UV-I 0 W/m 2,3 C 4,4 C 8,0 km/h (2 Bft) 100,00 %
11.04.2016 03:49 4,4 C 86 % 1012,6 hPa 0,0 l/m 5,4 km/h (1 Bft) O-NO 70 0 min 0,000 mm 0,0 UV-I 0 W/m 2,3 C 4,4 C 6,4 km/h (2 Bft) 100,00 %
11.04.2016 03:50 4,4 C 86 % 1012,6 hPa 0,0 l/m 5,5 km/h (1 Bft) NO 41 0 min 0,000 mm 0,0 UV-I 0 W/m 2,3 C 4,4 C 8,0 km/h (2 Bft) 100,00 %
11.04.2016 03:51 4,4 C 86 % 1012,6 hPa 0,0 l/m 7,6 km/h (2 Bft) O-NO 60 0 min 0,000 mm 0,0 UV-I 0 W/m 2,3 C 3,3 C 12,9 km/h (3 Bft) 100,00 %
11.04.2016 03:52 4,4 C 86 % 1012,6 hPa 0,0 l/m 9,1 km/h (2 Bft) O-NO 67 0 min 0,000 mm 0,0 UV-I 0 W/m 2,3 C 2,1 C 14,5 km/h (3 Bft) 96,30 %
11.04.2016 03:53 4,4 C 86 % 1012,6 hPa 0,0 l/m 6,9 km/h (2 Bft) O-NO 68 0 min 0,000 mm 0,0 UV-I 0 W/m 2,3 C 4,0 C 9,7 km/h (2 Bft) 100,00 %
11.04.2016 03:54 4,4 C 86 % 1012,6 hPa 0,0 l/m 7,9 km/h (2 Bft) NO 54 0 min 0,000 mm 0,0 UV-I 0 W/m 2,3 C 3,1 C 11,3 km/h (2 Bft) 100,00 %
11.04.2016 03:55 4,4 C 86 % 1012,6 hPa 0,0 l/m 8,9 km/h (2 Bft) O-NO 67 0 min 0,000 mm 0,0 UV-I 0 W/m 2,3 C 2,2 C 12,9 km/h (3 Bft) 100,00 %
11.04.2016 03:56 4,4 C 86 % 1012,5 hPa 0,0 l/m 9,2 km/h (2 Bft) O-NO 71 0 min 0,000 mm 0,0 UV-I 0 W/m 2,3 C 2,0 C 12,9 km/h (3 Bft) 96,30 %
11.04.2016 03:57 4,3 C 86 % 1012,6 hPa 0,0 l/m 7,9 km/h (2 Bft) O-NO 57 0 min 0,000 mm 0,0 UV-I 0 W/m 2,2 C 3,0 C 12,9 km/h (3 Bft) 100,00 %
11.04.2016 03:58 4,4 C 86 % 1012,6 hPa 0,0 l/m 7,3 km/h (2 Bft) O-NO 59 0 min 0,000 mm 0,0 UV-I 0 W/m 2,3 C 3,6 C 9,7 km/h (2 Bft) 100,00 %
11.04.2016 03:59 4,4 C 86 % 1012,6 hPa 0,0 l/m 8,5 km/h (2 Bft) O-NO 61 0 min 0,000 mm 0,0 UV-I 0 W/m 2,3 C 2,6 C 12,9 km/h (3 Bft) 100,00 %
11.04.2016 04:00 4,4 C 86 % 1012,6 hPa 0,0 l/m 8,8 km/h (2 Bft) O-NO 63 0 min 0,000 mm 0,0 UV-I 0 W/m 2,3 C 2,3 C 12,9 km/h (3 Bft) 100,00 %
11.04.2016 04:01 4,4 C 86 % 1012,6 hPa 0,0 l/m 9,3 km/h (2 Bft) NO 52 0 min 0,000 mm 0,0 UV-I 0 W/m 2,3 C 1,9 C 12,9 km/h (3 Bft) 100,00 %
11.04.2016 04:02 4,4 C 86 % 1012,6 hPa 0,0 l/m 9,3 km/h (2 Bft) NO 55 0 min 0,000 mm 0,0 UV-I 0 W/m 2,3 C 1,9 C 12,9 km/h (3 Bft) 100,00 %
11.04.2016 04:03 4,4 C 86 % 1012,6 hPa 0,0 l/m 8,5 km/h (2 Bft) NO 46 0 min 0,000 mm 0,0 UV-I 0 W/m 2,3 C 2,6 C 14,5 km/h (3 Bft) 100,00 %
11.04.2016 04:04 4,4 C 86 % 1012,6 hPa 0,0 l/m 9,4 km/h (2 Bft) O-NO 61 0 min 0,000 mm 0,0 UV-I 0 W/m 2,3 C 1,9 C 12,9 km/h (3 Bft) 96,30 %
11.04.2016 04:05 4,4 C 86 % 1012,6 hPa 0,0 l/m 9,0 km/h (2 Bft) NO 54 0 min 0,000 mm 0,0 UV-I 0 W/m 2,3 C 2,2 C 11,3 km/h (2 Bft) 96,15 %
11.04.2016 04:06 4,4 C 86 % 1012,6 hPa 0,0 l/m 9,1 km/h (2 Bft) O-NO 59 0 min 0,000 mm 0,0 UV-I 0 W/m 2,3 C 2,1 C 12,9 km/h (3 Bft) 100,00 %
11.04.2016 04:07 4,4 C 86 % 1012,6 hPa 0,0 l/m 8,7 km/h (2 Bft) NO 53 0 min 0,000 mm 0,0 UV-I 0 W/m 2,3 C 2,4 C 12,9 km/h (3 Bft) 95,65 %
11.04.2016 04:08 4,4 C 86 % 1012,6 hPa 0,0 l/m 7,4 km/h (2 Bft) O-NO 59 0 min 0,000 mm 0,0 UV-I 0 W/m 2,3 C 3,5 C 11,3 km/h (2 Bft) 95,83 %
11.04.2016 04:09 4,4 C 86 % 1012,7 hPa 0,0 l/m 8,7 km/h (2 Bft) O-NO 78 0 min 0,000 mm 0,0 UV-I 0 W/m 2,3 C 2,4 C 12,9 km/h (3 Bft) 100,00 %
11.04.2016 04:10 4,4 C 86 % 1012,7 hPa 0,0 l/m 9,7 km/h (2 Bft) O-NO 57 0 min 0,000 mm 0,0 UV-I 0 W/m 2,3 C 1,6 C 12,9 km/h (3 Bft) 100,00 %
11.04.2016 04:11 4,4 C 86 % 1012,7 hPa 0,0 l/m 9,7 km/h (2 Bft) O-NO 61 0 min 0,000 mm 0,0 UV-I 0 W/m 2,3 C 1,6 C 14,5 km/h (3 Bft) 100,00 %
11.04.2016 04:12 4,4 C 86 % 1012,7 hPa 0,0 l/m 11,7 km/h (2 Bft) O-NO 68 0 min 0,000 mm 0,0 UV-I 0 W/m 2,3 C 0,3 C 14,5 km/h (3 Bft) 100,00 %
11.04.2016 04:13 4,4 C 86 % 1012,6 hPa 0,0 l/m 10,7 km/h (2 Bft) O-NO 67 0 min 0,000 mm 0,0 UV-I 0 W/m 2,3 C 0,9 C 14,5 km/h (3 Bft) 100,00 %
11.04.2016 04:14 4,4 C 86 % 1012,7 hPa 0,0 l/m 12,2 km/h (2 Bft) NO 52 0 min 0,000 mm 0,0 UV-I 0 W/m 2,3 C -0,1 C 16,1 km/h (3 Bft) 100,00 %
11.04.2016 04:15 4,4 C 86 % 1012,6 hPa 0,0 l/m 11,2 km/h (2 Bft) O-NO 71 0 min 0,000 mm 0,0 UV-I 0 W/m 2,3 C 0,6 C 14,5 km/h (3 Bft) 100,00 %
11.04.2016 04:16 4,4 C 86 % 1012,7 hPa 0,0 l/m 10,5 km/h (2 Bft) O 88 0 min 0,000 mm 0,0 UV-I 0 W/m 2,3 C 1,1 C 12,9 km/h (3 Bft) 100,00 %
11.04.2016 04:17 4,4 C 86 % 1012,7 hPa 0,0 l/m 10,5 km/h (2 Bft) O-NO 61 0 min 0,000 mm 0,0 UV-I 0 W/m 2,3 C 1,1 C 12,9 km/h (3 Bft) 100,00 %
11.04.2016 04:18 4,4 C 86 % 1012,6 hPa 0,0 l/m 7,1 km/h (2 Bft) O-NO 65 0 min 0,000 mm 0,0 UV-I 0 W/m 2,3 C 3,8 C 8,0 km/h (2 Bft) 100,00 %
11.04.2016 04:19 4,3 C 86 % 1012,6 hPa 0,0 l/m 6,1 km/h (2 Bft) O-NO 58 0 min 0,000 mm 0,0 UV-I 0 W/m 2,2 C 4,3 C 8,0 km/h (2 Bft) 100,00 %
11.04.2016 04:20 4,3 C 86 % 1012,6 hPa 0,0 l/m 5,9 km/h (2 Bft) O-NO 62 0 min 0,000 mm 0,0 UV-I 0 W/m 2,2 C 4,3 C 8,0 km/h (2 Bft) 100,00 %
11.04.2016 04:21 4,2 C 86 % 1012,7 hPa 0,0 l/m 5,9 km/h (2 Bft) O-NO 71 0 min 0,000 mm 0,0 UV-I 0 W/m 2,1 C 4,2 C 8,0 km/h (2 Bft) 100,00 %
11.04.2016 04:22 4,2 C 86 % 1012,7 hPa 0,0 l/m 5,8 km/h (2 Bft) O-NO 67 0 min 0,000 mm 0,0 UV-I 0 W/m 2,1 C 4,2 C 6,4 km/h (2 Bft) 100,00 %
11.04.2016 04:23 4,1 C 86 % 1012,6 hPa 0,0 l/m 5,1 km/h (1 Bft) O 97 0 min 0,000 mm 0,0 UV-I 0 W/m 2,0 C 4,1 C 6,4 km/h (2 Bft) 100,00 %
11.04.2016 04:24 4,0 C 86 % 1012,6 hPa 0,0 l/m 3,9 km/h (1 Bft) O 92 0 min 0,000 mm 0,0 UV-I 0 W/m 1,9 C 4,0 C 4,8 km/h (1 Bft) 100,00 %
11.04.2016 04:25 3,9 C 87 % 1012,7 hPa 0,0 l/m 3,4 km/h (1 Bft) O 92 0 min 0,000 mm 0,0 UV-I 0 W/m 1,9 C 3,9 C 6,4 km/h (2 Bft) 100,00 %
11.04.2016 04:26 3,9 C 87 % 1012,6 hPa 0,0 l/m 4,4 km/h (1 Bft) O-NO 76 0 min 0,000 mm 0,0 UV-I 0 W/m 1,9 C 3,9 C 8,0 km/h (2 Bft) 100,00 %
11.04.2016 04:27 3,8 C 87 % 1012,6 hPa 0,0 l/m 4,3 km/h (1 Bft) O-NO 70 0 min 0,000 mm 0,0 UV-I 0 W/m 1,8 C 3,8 C 8,0 km/h (2 Bft) 100,00 %
11.04.2016 04:28 3,8 C 88 % 1012,7 hPa 0,0 l/m 5,1 km/h (1 Bft) O 80 0 min 0,000 mm 0,0 UV-I 0 W/m 2,0 C 3,8 C 6,4 km/h (2 Bft) 95,65 %
11.04.2016 04:29 3,7 C 88 % 1012,7 hPa 0,0 l/m 2,0 km/h (1 Bft) O 80 0 min 0,000 mm 0,0 UV-I 0 W/m 1,9 C 3,7 C 4,8 km/h (1 Bft) 100,00 %
11.04.2016 04:30 3,7 C 88 % 1012,7 hPa 0,0 l/m 3,8 km/h (1 Bft) O 79 0 min 0,000 mm 0,0 UV-I 0 W/m 1,9 C 3,7 C 6,4 km/h (2 Bft) 100,00 %
11.04.2016 04:31 3,7 C 88 % 1012,7 hPa 0,0 l/m 4,1 km/h (1 Bft) O 84 0 min 0,000 mm 0,0 UV-I 0 W/m 1,9 C 3,7 C 4,8 km/h (1 Bft) 100,00 %
11.04.2016 04:32 3,6 C 89 % 1012,7 hPa 0,0 l/m 2,5 km/h (1 Bft) O 84 0 min 0,000 mm 0,0 UV-I 0 W/m 2,0 C 3,6 C 4,8 km/h (1 Bft) 100,00 %
11.04.2016 04:33 3,6 C 89 % 1012,7 hPa 0,0 l/m 3,1 km/h (1 Bft) O-NO 78 0 min 0,000 mm 0,0 UV-I 0 W/m 2,0 C 3,6 C 6,4 km/h (2 Bft) 100,00 %
11.04.2016 04:34 3,6 C 89 % 1012,7 hPa 0,0 l/m 6,3 km/h (2 Bft) O-NO 74 0 min 0,000 mm 0,0 UV-I 0 W/m 2,0 C 3,6 C 9,7 km/h (2 Bft) 96,30 %
11.04.2016 04:35 3,7 C 89 % 1012,7 hPa 0,0 l/m 6,4 km/h (2 Bft) O 82 0 min 0,000 mm 0,0 UV-I 0 W/m 2,1 C 3,7 C 8,0 km/h (2 Bft) 96,15 %
11.04.2016 04:36 3,7 C 89 % 1012,8 hPa 0,0 l/m 4,7 km/h (1 Bft) O 79 0 min 0,000 mm 0,0 UV-I 0 W/m 2,1 C 3,7 C 6,4 km/h (2 Bft) 100,00 %
11.04.2016 04:37 3,7 C 89 % 1012,8 hPa 0,0 l/m 4,7 km/h (1 Bft) O-NO 66 0 min 0,000 mm 0,0 UV-I 0 W/m 2,1 C 3,7 C 6,4 km/h (2 Bft) 90,91 %
11.04.2016 04:38 3,7 C 88 % 1012,8 hPa 0,0 l/m 3,8 km/h (1 Bft) O 90 0 min 0,000 mm 0,0 UV-I 0 W/m 1,9 C 3,7 C 4,8 km/h (1 Bft) 100,00 %
11.04.2016 04:39 3,7 C 88 % 1012,8 hPa 0,0 l/m 5,7 km/h (1 Bft) O 82 0 min 0,000 mm 0,0 UV-I 0 W/m 1,9 C 3,7 C 8,0 km/h (2 Bft) 100,00 %
11.04.2016 04:40 3,7 C 88 % 1012,8 hPa 0,0 l/m 6,8 km/h (2 Bft) O 89 0 min 0,000 mm 0,0 UV-I 0 W/m 1,9 C 3,3 C 11,3 km/h (2 Bft) 100,00 %
11.04.2016 04:41 3,8 C 89 % 1012,8 hPa 0,0 l/m 5,7 km/h (1 Bft) O-NO 77 0 min 0,000 mm 0,0 UV-I 0 W/m 2,2 C 3,8 C 8,0 km/h (2 Bft) 100,00 %
11.04.2016 04:42 3,8 C 89 % 1012,8 hPa 0,0 l/m 6,6 km/h (2 Bft) O-NO 61 0 min 0,000 mm 0,0 UV-I 0 W/m 2,2 C 3,6 C 8,0 km/h (2 Bft) 100,00 %
11.04.2016 04:43 3,8 C 88 % 1012,8 hPa 0,0 l/m 6,4 km/h (2 Bft) O-NO 69 0 min 0,000 mm 0,0 UV-I 0 W/m 2,0 C 3,8 C 8,0 km/h (2 Bft) 100,00 %
11.04.2016 04:44 3,8 C 88 % 1012,8 hPa 0,0 l/m 6,2 km/h (2 Bft) O-NO 72 0 min 0,000 mm 0,0 UV-I 0 W/m 2,0 C 3,8 C 9,7 km/h (2 Bft) 100,00 %
11.04.2016 04:45 3,9 C 88 % 1012,8 hPa 0,0 l/m 6,5 km/h (2 Bft) O-NO 66 0 min 0,000 mm 0,0 UV-I 0 W/m 2,1 C 3,8 C 8,0 km/h (2 Bft) 96,15 %
11.04.2016 04:46 3,9 C 88 % 1012,8 hPa 0,0 l/m 6,8 km/h (2 Bft) O-NO 61 0 min 0,000 mm 0,0 UV-I 0 W/m 2,1 C 3,5 C 8,0 km/h (2 Bft) 94,44 %
11.04.2016 04:47 3,9 C 88 % 1012,8 hPa 0,0 l/m 7,2 km/h (2 Bft) O-NO 61 0 min 0,000 mm 0,0 UV-I 0 W/m 2,1 C 3,2 C 8,0 km/h (2 Bft) 96,15 %
11.04.2016 04:48 3,9 C 88 % 1012,8 hPa 0,0 l/m 7,2 km/h (2 Bft) O-NO 69 0 min 0,000 mm 0,0 UV-I 0 W/m 2,1 C 3,2 C 11,3 km/h (2 Bft) 100,00 %
11.04.2016 04:49 3,9 C 88 % 1012,8 hPa 0,0 l/m 6,4 km/h (2 Bft) O-NO 67 0 min 0,000 mm 0,0 UV-I 0 W/m 2,1 C 3,9 C 8,0 km/h (2 Bft) 93,33 %
11.04.2016 04:50 3,9 C 88 % 1012,8 hPa 0,0 l/m 6,6 km/h (2 Bft) O-NO 63 0 min 0,000 mm 0,0 UV-I 0 W/m 2,1 C 3,7 C 11,3 km/h (2 Bft) 92,31 %
11.04.2016 04:51 3,9 C 88 % 1012,8 hPa 0,0 l/m 6,0 km/h (2 Bft) O-NO 77 0 min 0,000 mm 0,0 UV-I 0 W/m 2,1 C 3,9 C 11,3 km/h (2 Bft) 95,83 %
11.04.2016 04:52 3,9 C 88 % 1012,8 hPa 0,0 l/m 5,8 km/h (2 Bft) O-NO 75 0 min 0,000 mm 0,0 UV-I 0 W/m 2,1 C 3,9 C 8,0 km/h (2 Bft) 93,10 %
11.04.2016 04:53 3,9 C 88 % 1012,8 hPa 0,0 l/m 5,1 km/h (1 Bft) O-NO 72 0 min 0,000 mm 0,0 UV-I 0 W/m 2,1 C 3,9 C 6,4 km/h (2 Bft) 100,00 %
11.04.2016 04:54 3,9 C 88 % 1012,9 hPa 0,0 l/m 4,9 km/h (1 Bft) O-NO 72 0 min 0,000 mm 0,0 UV-I 0 W/m 2,1 C 3,9 C 6,4 km/h (2 Bft) 96,15 %
11.04.2016 04:55 3,9 C 88 % 1012,9 hPa 0,0 l/m 4,5 km/h (1 Bft) O 83 0 min 0,000 mm 0,0 UV-I 0 W/m 2,1 C 3,9 C 6,4 km/h (2 Bft) 100,00 %
11.04.2016 04:56 3,9 C 88 % 1012,9 hPa 0,0 l/m 4,8 km/h (1 Bft) O-NO 72 0 min 0,000 mm 0,0 UV-I 0 W/m 2,1 C 3,9 C 6,4 km/h (2 Bft) 95,65 %
11.04.2016 04:57 3,8 C 88 % 1012,9 hPa 0,0 l/m 5,2 km/h (1 Bft) O-NO 74 0 min 0,000 mm 0,0 UV-I 0 W/m 2,0 C 3,8 C 6,4 km/h (2 Bft) 100,00 %
11.04.2016 04:58 3,8 C 88 % 1012,8 hPa 0,0 l/m 4,6 km/h (1 Bft) O 79 0 min 0,000 mm 0,0 UV-I 0 W/m 2,0 C 3,8 C 6,4 km/h (2 Bft) 95,65 %
11.04.2016 04:59 3,8 C 88 % 1012,8 hPa 0,0 l/m 5,0 km/h (1 Bft) O 79 0 min 0,000 mm 0,0 UV-I 0 W/m 2,0 C 3,8 C 6,4 km/h (2 Bft) 100,00 %
11.04.2016 05:00 3,8 C 88 % 1012,8 hPa 0,0 l/m 4,3 km/h (1 Bft) O-NO 75 0 min 0,000 mm 0,0 UV-I 0 W/m 2,0 C 3,8 C 6,4 km/h (2 Bft) 88,46 %
11.04.2016 05:01 3,7 C 88 % 1012,8 hPa 0,0 l/m 5,7 km/h (1 Bft) O-NO 67 0 min 0,000 mm 0,0 UV-I 0 W/m 1,9 C 3,7 C 8,0 km/h (2 Bft) 100,00 %
11.04.2016 05:02 3,7 C 88 % 1012,8 hPa 0,0 l/m 5,4 km/h (1 Bft) O 84 0 min 0,000 mm 0,0 UV-I 0 W/m 1,9 C 3,7 C 8,0 km/h (2 Bft) 96,00 %
11.04.2016 05:03 3,7 C 88 % 1012,8 hPa 0,0 l/m 5,8 km/h (2 Bft) O-NO 76 0 min 0,000 mm 0,0 UV-I 0 W/m 1,9 C 3,7 C 6,4 km/h (2 Bft) 96,30 %
11.04.2016 05:04 3,7 C 88 % 1012,8 hPa 0,0 l/m 5,3 km/h (1 Bft) O-NO 76 0 min 0,000 mm 0,0 UV-I 0 W/m 1,9 C 3,7 C 6,4 km/h (2 Bft) 100,00 %
11.04.2016 05:05 3,7 C 88 % 1012,8 hPa 0,0 l/m 6,2 km/h (2 Bft) O-NO 74 0 min 0,000 mm 0,0 UV-I 0 W/m 1,9 C 3,7 C 8,0 km/h (2 Bft) 95,83 %
11.04.2016 05:06 3,7 C 89 % 1012,8 hPa 0,0 l/m 5,7 km/h (1 Bft) O-NO 66 0 min 0,000 mm 0,0 UV-I 0 W/m 2,1 C 3,7 C 8,0 km/h (2 Bft) 100,00 %
11.04.2016 05:07 3,7 C 89 % 1012,8 hPa 0,0 l/m 6,3 km/h (2 Bft) O-NO 59 0 min 0,000 mm 0,0 UV-I 0 W/m 2,1 C 3,7 C 6,4 km/h (2 Bft) 91,67 %
11.04.2016 05:08 3,7 C 89 % 1012,8 hPa 0,0 l/m 5,7 km/h (1 Bft) O-NO 65 0 min 0,000 mm 0,0 UV-I 0 W/m 2,1 C 3,7 C 8,0 km/h (2 Bft) 100,00 %
11.04.2016 05:09 3,7 C 89 % 1012,8 hPa 0,0 l/m 5,2 km/h (1 Bft) O-NO 74 0 min 0,000 mm 0,0 UV-I 0 W/m 2,1 C 3,7 C 8,0 km/h (2 Bft) 96,15 %
11.04.2016 05:10 3,7 C 89 % 1012,8 hPa 0,0 l/m 6,7 km/h (2 Bft) O-NO 62 0 min 0,000 mm 0,0 UV-I 0 W/m 2,1 C 3,4 C 8,0 km/h (2 Bft) 100,00 %
11.04.2016 05:11 3,7 C 89 % 1012,8 hPa 0,0 l/m 6,8 km/h (2 Bft) O-NO 70 0 min 0,000 mm 0,0 UV-I 0 W/m 2,1 C 3,3 C 8,0 km/h (2 Bft) 97,37 %
11.04.2016 05:12 3,8 C 88 % 1012,8 hPa 0,0 l/m 8,6 km/h (2 Bft) O-NO 78 0 min 0,000 mm 0,0 UV-I 0 W/m 2,0 C 1,8 C 12,9 km/h (3 Bft) 95,83 %
11.04.2016 05:13 3,8 C 88 % 1012,8 hPa 0,0 l/m 7,0 km/h (2 Bft) O-NO 61 0 min 0,000 mm 0,0 UV-I 0 W/m 2,0 C 3,3 C 8,0 km/h (2 Bft) 100,00 %
11.04.2016 05:14 3,8 C 88 % 1012,8 hPa 0,0 l/m 7,8 km/h (2 Bft) O-NO 66 0 min 0,000 mm 0,0 UV-I 0 W/m 2,0 C 2,5 C 11,3 km/h (2 Bft) 95,83 %
11.04.2016 05:15 3,8 C 88 % 1012,8 hPa 0,0 l/m 6,5 km/h (2 Bft) O-NO 65 0 min 0,000 mm 0,0 UV-I 0 W/m 2,0 C 3,7 C 11,3 km/h (2 Bft) 88,46 %
11.04.2016 05:16 3,8 C 88 % 1012,8 hPa 0,0 l/m 6,7 km/h (2 Bft) O 79 0 min 0,000 mm 0,0 UV-I 0 W/m 2,0 C 3,5 C 8,0 km/h (2 Bft) 100,00 %
11.04.2016 05:17 3,8 C 88 % 1012,9 hPa 0,0 l/m 4,9 km/h (1 Bft) O-NO 66 0 min 0,000 mm 0,0 UV-I 0 W/m 2,0 C 3,8 C 6,4 km/h (2 Bft) 96,15 %
11.04.2016 05:18 3,8 C 88 % 1012,9 hPa 0,0 l/m 5,0 km/h (1 Bft) NO 52 0 min 0,000 mm 0,0 UV-I 0 W/m 2,0 C 3,8 C 8,0 km/h (2 Bft) 91,67 %
11.04.2016 05:19 3,8 C 88 % 1012,8 hPa 0,0 l/m 4,6 km/h (1 Bft) NO 56 0 min 0,000 mm 0,0 UV-I 0 W/m 2,0 C 3,8 C 4,8 km/h (1 Bft) 96,15 %
11.04.2016 05:20 3,8 C 88 % 1012,8 hPa 0,0 l/m 5,2 km/h (1 Bft) NO 55 0 min 0,000 mm 0,0 UV-I 0 W/m 2,0 C 3,8 C 8,0 km/h (2 Bft) 100,00 %
11.04.2016 05:21 3,8 C 88 % 1012,8 hPa 0,0 l/m 5,5 km/h (1 Bft) O-NO 57 0 min 0,000 mm 0,0 UV-I 0 W/m 2,0 C 3,8 C 6,4 km/h (2 Bft) 100,00 %
11.04.2016 05:22 3,8 C 88 % 1012,8 hPa 0,0 l/m 5,8 km/h (2 Bft) NO 55 0 min 0,000 mm 0,0 UV-I 0 W/m 2,0 C 3,8 C 6,4 km/h (2 Bft) 100,00 %
11.04.2016 05:23 3,8 C 88 % 1012,8 hPa 0,0 l/m 5,2 km/h (1 Bft) NO 41 0 min 0,000 mm 0,0 UV-I 0 W/m 2,0 C 3,8 C 8,0 km/h (2 Bft) 95,65 %
11.04.2016 05:24 3,8 C 88 % 1012,9 hPa 0,0 l/m 6,8 km/h (2 Bft) NO 53 0 min 0,000 mm 0,0 UV-I 0 W/m 2,0 C 3,4 C 8,0 km/h (2 Bft) 95,83 %
11.04.2016 05:25 3,8 C 88 % 1012,9 hPa 0,0 l/m 5,6 km/h (1 Bft) NO 52 0 min 0,000 mm 0,0 UV-I 0 W/m 2,0 C 3,8 C 8,0 km/h (2 Bft) 100,00 %
11.04.2016 05:26 3,7 C 88 % 1012,9 hPa 0,0 l/m 7,2 km/h (2 Bft) O-NO 61 0 min 0,000 mm 0,0 UV-I 0 W/m 1,9 C 3,0 C 8,0 km/h (2 Bft) 100,00 %
11.04.2016 05:27 3,7 C 88 % 1012,9 hPa 0,0 l/m 7,3 km/h (2 Bft) O-NO 67 0 min 0,000 mm 0,0 UV-I 0 W/m 1,9 C 2,9 C 9,7 km/h (2 Bft) 100,00 %
11.04.2016 05:28 3,7 C 88 % 1012,9 hPa 0,0 l/m 6,7 km/h (2 Bft) O-NO 78 0 min 0,000 mm 0,0 UV-I 0 W/m 1,9 C 3,4 C 11,3 km/h (2 Bft) 95,65 %
11.04.2016 05:29 3,7 C 88 % 1012,9 hPa 0,0 l/m 6,5 km/h (2 Bft) NO 51 0 min 0,000 mm 0,0 UV-I 0 W/m 1,9 C 3,6 C 8,0 km/h (2 Bft) 100,00 %
11.04.2016 05:30 3,7 C 88 % 1012,9 hPa 0,0 l/m 6,4 km/h (2 Bft) NO 55 0 min 0,000 mm 0,0 UV-I 0 W/m 1,9 C 3,7 C 9,7 km/h (2 Bft) 100,00 %
11.04.2016 05:31 3,7 C 88 % 1012,9 hPa 0,0 l/m 7,0 km/h (2 Bft) NO 46 0 min 0,000 mm 0,0 UV-I 0 W/m 1,9 C 3,1 C 9,7 km/h (2 Bft) 100,00 %
11.04.2016 05:32 3,7 C 89 % 1012,9 hPa 0,0 l/m 6,1 km/h (2 Bft) NO 43 0 min 0,000 mm 0,0 UV-I 0 W/m 2,1 C 3,7 C 8,0 km/h (2 Bft) 96,15 %
11.04.2016 05:33 3,7 C 88 % 1012,9 hPa 0,0 l/m 7,1 km/h (2 Bft) O-NO 63 0 min 0,000 mm 0,0 UV-I 0 W/m 1,9 C 3,1 C 8,0 km/h (2 Bft) 100,00 %
11.04.2016 05:34 3,7 C 88 % 1012,9 hPa 0,0 l/m 7,5 km/h (2 Bft) O-NO 59 0 min 0,000 mm 0,0 UV-I 0 W/m 1,9 C 2,7 C 9,7 km/h (2 Bft) 96,15 %
11.04.2016 05:35 3,7 C 88 % 1012,9 hPa 0,0 l/m 6,7 km/h (2 Bft) O-NO 57 0 min 0,000 mm 0,0 UV-I 0 W/m 1,9 C 3,4 C 11,3 km/h (2 Bft) 100,00 %
11.04.2016 05:36 3,7 C 88 % 1012,9 hPa 0,0 l/m 8,2 km/h (2 Bft) O-NO 66 0 min 0,000 mm 0,0 UV-I 0 W/m 1,9 C 2,1 C 11,3 km/h (2 Bft) 100,00 %
11.04.2016 05:37 3,7 C 88 % 1012,9 hPa 0,0 l/m 7,0 km/h (2 Bft) O-NO 76 0 min 0,000 mm 0,0 UV-I 0 W/m 1,9 C 3,1 C 9,7 km/h (2 Bft) 93,33 %
11.04.2016 05:38 3,7 C 88 % 1012,9 hPa 0,0 l/m 7,8 km/h (2 Bft) O-NO 59 0 min 0,000 mm 0,0 UV-I 0 W/m 1,9 C 2,4 C 12,9 km/h (3 Bft) 100,00 %
11.04.2016 05:39 3,7 C 88 % 1012,9 hPa 0,0 l/m 7,2 km/h (2 Bft) O 79 0 min 0,000 mm 0,0 UV-I 0 W/m 1,9 C 3,0 C 11,3 km/h (2 Bft) 100,00 %
11.04.2016 05:40 3,6 C 88 % 1012,9 hPa 0,0 l/m 7,0 km/h (2 Bft) NO 48 0 min 0,000 mm 0,0 UV-I 0 W/m 1,8 C 3,0 C 9,7 km/h (2 Bft) 100,00 %
11.04.2016 05:41 3,6 C 89 % 1012,9 hPa 0,0 l/m 7,6 km/h (2 Bft) NO 54 0 min 0,000 mm 0,0 UV-I 0 W/m 2,0 C 2,5 C 9,7 km/h (2 Bft) 100,00 %
11.04.2016 05:42 3,6 C 89 % 1012,9 hPa 0,0 l/m 7,0 km/h (2 Bft) O-NO 76 0 min 0,000 mm 0,0 UV-I 0 W/m 2,0 C 3,0 C 9,7 km/h (2 Bft) 100,00 %
11.04.2016 05:43 3,6 C 89 % 1012,9 hPa 0,0 l/m 5,8 km/h (2 Bft) O-NO 67 0 min 0,000 mm 0,0 UV-I 0 W/m 2,0 C 3,6 C 6,4 km/h (2 Bft) 100,00 %
11.04.2016 05:44 3,6 C 89 % 1012,9 hPa 0,0 l/m 7,0 km/h (2 Bft) NO 40 0 min 0,000 mm 0,0 UV-I 0 W/m 2,0 C 3,0 C 9,7 km/h (2 Bft) 100,00 %
11.04.2016 05:45 3,6 C 89 % 1012,9 hPa 0,0 l/m 7,0 km/h (2 Bft) O-NO 61 0 min 0,000 mm 0,0 UV-I 0 W/m 2,0 C 3,0 C 9,7 km/h (2 Bft) 100,00 %
11.04.2016 05:46 3,6 C 89 % 1012,9 hPa 0,0 l/m 6,4 km/h (2 Bft) O-NO 65 0 min 0,000 mm 0,0 UV-I 0 W/m 2,0 C 3,6 C 8,0 km/h (2 Bft) 100,00 %
11.04.2016 05:47 3,5 C 89 % 1012,9 hPa 0,0 l/m 8,1 km/h (2 Bft) O 79 0 min 0,000 mm 0,0 UV-I 0 W/m 1,9 C 1,9 C 11,3 km/h (2 Bft) 100,00 %
11.04.2016 05:48 3,6 C 89 % 1012,9 hPa 0,0 l/m 7,6 km/h (2 Bft) O-NO 71 0 min 0,000 mm 0,0 UV-I 0 W/m 2,0 C 2,5 C 11,3 km/h (2 Bft) 96,67 %
11.04.2016 05:49 3,6 C 89 % 1012,9 hPa 0,0 l/m 7,7 km/h (2 Bft) O 81 0 min 0,000 mm 0,0 UV-I 0 W/m 2,0 C 2,4 C 11,3 km/h (2 Bft) 100,00 %
11.04.2016 05:50 3,5 C 89 % 1012,9 hPa 0,0 l/m 6,7 km/h (2 Bft) O-NO 64 0 min 0,000 mm 0,0 UV-I 0 W/m 1,9 C 3,2 C 9,7 km/h (2 Bft) 100,00 %
11.04.2016 05:51 3,5 C 89 % 1012,9 hPa 0,0 l/m 6,0 km/h (2 Bft) O-NO 73 0 min 0,000 mm 0,0 UV-I 0 W/m 1,9 C 3,5 C 8,0 km/h (2 Bft) 100,00 %
11.04.2016 05:52 3,5 C 89 % 1012,9 hPa 0,0 l/m 8,8 km/h (2 Bft) O-NO 66 0 min 0,000 mm 0,0 UV-I 0 W/m 1,9 C 1,4 C 12,9 km/h (3 Bft) 100,00 %
11.04.2016 05:53 3,5 C 89 % 1012,9 hPa 0,0 l/m 9,2 km/h (2 Bft) O 81 0 min 0,000 mm 0,0 UV-I 0 W/m 1,9 C 1,0 C 11,3 km/h (2 Bft) 100,00 %
11.04.2016 05:54 3,5 C 89 % 1012,9 hPa 0,0 l/m 8,1 km/h (2 Bft) O 80 0 min 0,000 mm 0,0 UV-I 0 W/m 1,9 C 1,9 C 12,9 km/h (3 Bft) 100,00 %
11.04.2016 05:55 3,5 C 89 % 1012,9 hPa 0,0 l/m 7,0 km/h (2 Bft) O-NO 57 0 min 0,000 mm 0,0 UV-I 0 W/m 1,9 C 2,9 C 8,0 km/h (2 Bft) 100,00 %
11.04.2016 05:56 3,5 C 89 % 1012,9 hPa 0,0 l/m 7,2 km/h (2 Bft) O-NO 69 0 min 0,000 mm 0,0 UV-I 0 W/m 1,9 C 2,8 C 8,0 km/h (2 Bft) 100,00 %
11.04.2016 05:57 3,5 C 89 % 1012,9 hPa 0,0 l/m 7,5 km/h (2 Bft) O-NO 74 0 min 0,000 mm 0,0 UV-I 0 W/m 1,9 C 2,5 C 9,7 km/h (2 Bft) 95,65 %
11.04.2016 05:58 3,5 C 89 % 1013,0 hPa 0,0 l/m 7,4 km/h (2 Bft) O-NO 69 0 min 0,000 mm 0,0 UV-I 0 W/m 1,9 C 2,6 C 12,9 km/h (3 Bft) 100,00 %
11.04.2016 05:59 3,5 C 89 % 1013,0 hPa 0,0 l/m 6,3 km/h (2 Bft) O-NO 69 0 min 0,000 mm 0,0 UV-I 0 W/m 1,9 C 3,5 C 8,0 km/h (2 Bft) 100,00 %
11.04.2016 06:00 3,5 C 89 % 1012,9 hPa 0,0 l/m 6,8 km/h (2 Bft) O-NO 57 0 min 0,000 mm 0,0 UV-I 0 W/m 1,9 C 3,1 C 8,0 km/h (2 Bft) 100,00 %
11.04.2016 06:01 3,5 C 89 % 1012,9 hPa 0,0 l/m 7,0 km/h (2 Bft) O-NO 69 0 min 0,000 mm 0,0 UV-I 0 W/m 1,9 C 2,9 C 8,0 km/h (2 Bft) 100,00 %
11.04.2016 06:02 3,4 C 89 % 1012,9 hPa 0,0 l/m 7,4 km/h (2 Bft) NO 52 0 min 0,000 mm 0,0 UV-I 0 W/m 1,8 C 2,5 C 12,9 km/h (3 Bft) 100,00 %
11.04.2016 06:03 3,4 C 89 % 1013,0 hPa 0,0 l/m 6,6 km/h (2 Bft) NO 53 0 min 0,000 mm 0,0 UV-I 0 W/m 1,8 C 3,2 C 9,7 km/h (2 Bft) 100,00 %
11.04.2016 06:04 3,4 C 89 % 1013,0 hPa 0,0 l/m 5,8 km/h (2 Bft) NO 40 0 min 0,000 mm 0,0 UV-I 0 W/m 1,8 C 3,4 C 9,7 km/h (2 Bft) 100,00 %
11.04.2016 06:05 3,4 C 89 % 1013,0 hPa 0,0 l/m 7,2 km/h (2 Bft) O-NO 61 0 min 0,000 mm 0,0 UV-I 0 W/m 1,8 C 2,7 C 9,7 km/h (2 Bft) 93,10 %
11.04.2016 06:06 3,4 C 89 % 1012,9 hPa 0,0 l/m 6,0 km/h (2 Bft) O-NO 57 0 min 0,000 mm 0,0 UV-I 0 W/m 1,8 C 3,4 C 8,0 km/h (2 Bft) 100,00 %
11.04.2016 06:07 3,4 C 89 % 1012,9 hPa 0,0 l/m 5,7 km/h (1 Bft) NO 56 0 min 0,000 mm 0,0 UV-I 0 W/m 1,8 C 3,4 C 8,0 km/h (2 Bft) 100,00 %
11.04.2016 06:08 3,4 C 89 % 1012,9 hPa 0,0 l/m 6,8 km/h (2 Bft) NO 52 0 min 0,000 mm 0,0 UV-I 0 W/m 1,8 C 3,0 C 8,0 km/h (2 Bft) 100,00 %
11.04.2016 06:09 3,4 C 89 % 1012,9 hPa 0,0 l/m 6,5 km/h (2 Bft) NO 51 0 min 0,000 mm 0,0 UV-I 0 W/m 1,8 C 3,3 C 8,0 km/h (2 Bft) 100,00 %
11.04.2016 06:10 3,4 C 89 % 1013,0 hPa 0,0 l/m 6,8 km/h (2 Bft) O-NO 65 0 min 0,000 mm 0,0 UV-I 0 W/m 1,8 C 3,0 C 9,7 km/h (2 Bft) 100,00 %
11.04.2016 06:11 3,4 C 89 % 1012,9 hPa 0,0 l/m 7,8 km/h (2 Bft) O-NO 70 0 min 0,000 mm 0,0 UV-I 0 W/m 1,8 C 2,1 C 12,9 km/h (3 Bft) 100,00 %
11.04.2016 06:12 3,4 C 89 % 1013,0 hPa 0,0 l/m 5,6 km/h (1 Bft) O-NO 67 0 min 0,000 mm 0,0 UV-I 0 W/m 1,8 C 3,4 C 8,0 km/h (2 Bft) 100,00 %
11.04.2016 06:13 3,4 C 89 % 1013,0 hPa 0,0 l/m 6,0 km/h (2 Bft) NO 55 0 min 0,000 mm 0,0 UV-I 0 W/m 1,8 C 3,4 C 9,7 km/h (2 Bft) 100,00 %
11.04.2016 06:14 3,4 C 90 % 1013,0 hPa 0,0 l/m 7,9 km/h (2 Bft) NO 40 0 min 0,000 mm 0,0 UV-I 0 W/m 1,9 C 2,0 C 11,3 km/h (2 Bft) 100,00 %
11.04.2016 06:15 3,3 C 90 % 1013,0 hPa 0,0 l/m 6,8 km/h (2 Bft) NO 50 0 min 0,000 mm 0,0 UV-I 0 W/m 1,8 C 2,9 C 9,7 km/h (2 Bft) 100,00 %
11.04.2016 06:16 3,4 C 90 % 1013,0 hPa 0,0 l/m 6,4 km/h (2 Bft) O-NO 57 0 min 0,000 mm 0,0 UV-I 0 W/m 1,9 C 3,4 C 8,0 km/h (2 Bft) 100,00 %
11.04.2016 06:17 3,3 C 89 % 1013,0 hPa 0,0 l/m 6,3 km/h (2 Bft) NO 48 0 min 0,000 mm 0,0 UV-I 0 W/m 1,7 C 3,3 C 11,3 km/h (2 Bft) 100,00 %
11.04.2016 06:18 3,4 C 89 % 1013,0 hPa 0,0 l/m 7,0 km/h (2 Bft) NO 55 0 min 0,000 mm 0,0 UV-I 0 W/m 1,8 C 2,8 C 9,7 km/h (2 Bft) 100,00 %
11.04.2016 06:19 3,3 C 90 % 1013,0 hPa 0,0 l/m 7,7 km/h (2 Bft) NO 55 0 min 0,000 mm 0,0 UV-I 0 W/m 1,8 C 2,1 C 9,7 km/h (2 Bft) 100,00 %
11.04.2016 06:20 3,4 C 90 % 1013,0 hPa 0,0 l/m 7,9 km/h (2 Bft) O-NO 60 0 min 0,000 mm 0,0 UV-I 0 W/m 1,9 C 2,0 C 11,3 km/h (2 Bft) 96,15 %
11.04.2016 06:21 3,4 C 90 % 1013,0 hPa 0,0 l/m 6,9 km/h (2 Bft) O-NO 58 0 min 0,000 mm 0,0 UV-I 0 W/m 1,9 C 2,9 C 9,7 km/h (2 Bft) 100,00 %
11.04.2016 06:22 3,4 C 90 % 1013,0 hPa 0,0 l/m 6,4 km/h (2 Bft) O-NO 71 0 min 0,000 mm 0,0 UV-I 0 W/m 1,9 C 3,4 C 8,0 km/h (2 Bft) 100,00 %
11.04.2016 06:23 3,4 C 90 % 1013,0 hPa 0,0 l/m 5,5 km/h (1 Bft) O-NO 72 0 min 0,000 mm 0,0 UV-I 3 W/m 1,9 C 3,4 C 8,0 km/h (2 Bft) 100,00 %
11.04.2016 06:24 3,4 C 90 % 1013,1 hPa 0,0 l/m 6,6 km/h (2 Bft) O-NO 60 0 min 0,000 mm 0,0 UV-I 5 W/m 1,9 C 3,2 C 8,0 km/h (2 Bft) 100,00 %
11.04.2016 06:25 3,4 C 90 % 1013,1 hPa 0,0 l/m 5,7 km/h (1 Bft) O-NO 74 0 min 0,000 mm 0,0 UV-I 5 W/m 1,9 C 3,4 C 8,0 km/h (2 Bft) 100,00 %
11.04.2016 06:26 3,3 C 90 % 1013,1 hPa 0,0 l/m 6,1 km/h (2 Bft) NO 47 0 min 0,000 mm 0,0 UV-I 5 W/m 1,8 C 3,3 C 8,0 km/h (2 Bft) 100,00 %
11.04.2016 06:27 3,3 C 89 % 1013,0 hPa 0,0 l/m 6,2 km/h (2 Bft) O-NO 69 0 min 0,000 mm 0,0 UV-I 5 W/m 1,7 C 3,3 C 8,0 km/h (2 Bft) 100,00 %
11.04.2016 06:28 3,3 C 90 % 1013,0 hPa 0,0 l/m 6,7 km/h (2 Bft) O-NO 69 0 min 0,000 mm 0,0 UV-I 5 W/m 1,8 C 3,0 C 8,0 km/h (2 Bft) 100,00 %
11.04.2016 06:29 3,3 C 90 % 1013,1 hPa 0,0 l/m 7,0 km/h (2 Bft) NO 44 0 min 0,000 mm 0,0 UV-I 6 W/m 1,8 C 2,7 C 11,3 km/h (2 Bft) 100,00 %
11.04.2016 06:30 3,3 C 90 % 1013,0 hPa 0,0 l/m 7,8 km/h (2 Bft) NO 55 0 min 0,000 mm 0,0 UV-I 7 W/m 1,8 C 2,0 C 11,3 km/h (2 Bft) 100,00 %
11.04.2016 06:31 3,3 C 90 % 1013,1 hPa 0,0 l/m 8,5 km/h (2 Bft) NO 46 0 min 0,000 mm 0,0 UV-I 7 W/m 1,8 C 1,4 C 9,7 km/h (2 Bft) 100,00 %
11.04.2016 06:32 3,4 C 90 % 1013,0 hPa 0,0 l/m 6,4 km/h (2 Bft) NO 52 0 min 0,000 mm 0,0 UV-I 7 W/m 1,9 C 3,4 C 8,0 km/h (2 Bft) 100,00 %
11.04.2016 06:33 3,4 C 90 % 1013,0 hPa 0,0 l/m 7,0 km/h (2 Bft) NO 55 0 min 0,000 mm 0,0 UV-I 8 W/m 1,9 C 2,8 C 8,0 km/h (2 Bft) 100,00 %
11.04.2016 06:34 3,4 C 90 % 1013,0 hPa 0,0 l/m 6,7 km/h (2 Bft) O-NO 63 0 min 0,000 mm 0,0 UV-I 9 W/m 1,9 C 3,1 C 9,7 km/h (2 Bft) 100,00 %
11.04.2016 06:35 3,4 C 90 % 1013,1 hPa 0,0 l/m 5,9 km/h (2 Bft) O-NO 58 0 min 0,000 mm 0,0 UV-I 9 W/m 1,9 C 3,4 C 8,0 km/h (2 Bft) 100,00 %
11.04.2016 06:36 3,4 C 90 % 1013,1 hPa 0,0 l/m 6,5 km/h (2 Bft) NO 49 0 min 0,000 mm 0,0 UV-I 11 W/m 1,9 C 3,3 C 8,0 km/h (2 Bft) 100,00 %
11.04.2016 06:37 3,4 C 90 % 1013,1 hPa 0,0 l/m 6,7 km/h (2 Bft) NO 49 0 min 0,000 mm 0,0 UV-I 11 W/m 1,9 C 3,1 C 9,7 km/h (2 Bft) 100,00 %
11.04.2016 06:38 3,4 C 90 % 1013,0 hPa 0,0 l/m 8,0 km/h (2 Bft) O-NO 57 0 min 0,000 mm 0,0 UV-I 11 W/m 1,9 C 1,9 C 11,3 km/h (2 Bft) 100,00 %
11.04.2016 06:39 3,4 C 90 % 1013,1 hPa 0,0 l/m 8,4 km/h (2 Bft) NO 42 0 min 0,000 mm 0,0 UV-I 11 W/m 1,9 C 1,6 C 12,9 km/h (3 Bft) 100,00 %
11.04.2016 06:40 3,4 C 90 % 1013,1 hPa 0,0 l/m 8,4 km/h (2 Bft) NO 45 0 min 0,000 mm 0,0 UV-I 12 W/m 1,9 C 1,6 C 11,3 km/h (2 Bft) 100,00 %
11.04.2016 06:41 3,5 C 90 % 1013,1 hPa 0,0 l/m 8,4 km/h (2 Bft) NO 50 0 min 0,000 mm 0,0 UV-I 12 W/m 2,0 C 1,7 C 11,3 km/h (2 Bft) 100,00 %
11.04.2016 06:42 3,5 C 90 % 1013,1 hPa 0,0 l/m 9,0 km/h (2 Bft) NO 44 0 min 0,000 mm 0,0 UV-I 14 W/m 2,0 C 1,2 C 11,3 km/h (2 Bft) 100,00 %
11.04.2016 06:43 3,6 C 90 % 1013,1 hPa 0,0 l/m 8,5 km/h (2 Bft) O-NO 59 0 min 0,000 mm 0,0 UV-I 14 W/m 2,1 C 1,7 C 12,9 km/h (3 Bft) 95,83 %
11.04.2016 06:44 3,6 C 90 % 1013,1 hPa 0,0 l/m 7,6 km/h (2 Bft) O-NO 69 0 min 0,000 mm 0,0 UV-I 15 W/m 2,1 C 2,5 C 9,7 km/h (2 Bft) 100,00 %
11.04.2016 06:45 3,6 C 90 % 1013,1 hPa 0,0 l/m 8,5 km/h (2 Bft) NO 44 0 min 0,000 mm 0,0 UV-I 16 W/m 2,1 C 1,7 C 12,9 km/h (3 Bft) 100,00 %
11.04.2016 06:46 3,7 C 90 % 1013,1 hPa 0,0 l/m 8,3 km/h (2 Bft) O-NO 64 0 min 0,000 mm 0,0 UV-I 17 W/m 2,2 C 2,0 C 12,9 km/h (3 Bft) 100,00 %
11.04.2016 06:47 3,7 C 90 % 1013,1 hPa 0,0 l/m 8,0 km/h (2 Bft) O-NO 67 0 min 0,000 mm 0,0 UV-I 19 W/m 2,2 C 2,2 C 9,7 km/h (2 Bft) 100,00 %
11.04.2016 06:48 3,7 C 90 % 1013,1 hPa 0,0 l/m 7,5 km/h (2 Bft) O-NO 67 0 min 0,000 mm 0,0 UV-I 19 W/m 2,2 C 2,7 C 9,7 km/h (2 Bft) 100,00 %
11.04.2016 06:49 3,7 C 90 % 1013,1 hPa 0,0 l/m 7,7 km/h (2 Bft) NO 46 0 min 0,000 mm 0,0 UV-I 21 W/m 2,2 C 2,5 C 9,7 km/h (2 Bft) 100,00 %
11.04.2016 06:50 3,8 C 90 % 1013,1 hPa 0,0 l/m 9,0 km/h (2 Bft) O-NO 73 0 min 0,000 mm 0,0 UV-I 22 W/m 2,3 C 1,5 C 12,9 km/h (3 Bft) 100,00 %
11.04.2016 06:51 3,8 C 90 % 1013,1 hPa 0,0 l/m 8,8 km/h (2 Bft) NO 53 0 min 0,000 mm 0,0 UV-I 23 W/m 2,3 C 1,7 C 11,3 km/h (2 Bft) 100,00 %
11.04.2016 06:52 3,8 C 90 % 1013,1 hPa 0,0 l/m 9,0 km/h (2 Bft) NO 49 0 min 0,000 mm 0,0 UV-I 24 W/m 2,3 C 1,5 C 12,9 km/h (3 Bft) 96,15 %
11.04.2016 06:53 3,8 C 90 % 1013,1 hPa 0,0 l/m 9,3 km/h (2 Bft) NO 42 0 min 0,000 mm 0,0 UV-I 26 W/m 2,3 C 1,3 C 12,9 km/h (3 Bft) 100,00 %
11.04.2016 06:54 3,9 C 90 % 1013,1 hPa 0,0 l/m 9,6 km/h (2 Bft) NO 46 0 min 0,000 mm 0,0 UV-I 28 W/m 2,4 C 1,2 C 12,9 km/h (3 Bft) 96,15 %
11.04.2016 06:55 3,9 C 90 % 1013,1 hPa 0,0 l/m 7,5 km/h (2 Bft) O-NO 57 0 min 0,000 mm 0,0 UV-I 29 W/m 2,4 C 2,9 C 9,7 km/h (2 Bft) 100,00 %
11.04.2016 06:56 3,9 C 90 % 1013,1 hPa 0,0 l/m 7,4 km/h (2 Bft) O-NO 69 0 min 0,000 mm 0,0 UV-I 30 W/m 2,4 C 3,0 C 11,3 km/h (2 Bft) 96,15 %
11.04.2016 06:57 3,9 C 90 % 1013,1 hPa 0,0 l/m 9,6 km/h (2 Bft) NO 49 0 min 0,000 mm 0,0 UV-I 31 W/m 2,4 C 1,2 C 14,5 km/h (3 Bft) 91,67 %
11.04.2016 06:58 3,9 C 90 % 1013,1 hPa 0,0 l/m 8,4 km/h (2 Bft) O-NO 68 0 min 0,000 mm 0,0 UV-I 32 W/m 2,4 C 2,1 C 11,3 km/h (2 Bft) 92,86 %
11.04.2016 06:59 4,0 C 90 % 1013,2 hPa 0,0 l/m 9,3 km/h (2 Bft) O-NO 61 0 min 0,000 mm 0,0 UV-I 32 W/m 2,5 C 1,5 C 12,9 km/h (3 Bft) 100,00 %
11.04.2016 07:00 4,0 C 90 % 1013,2 hPa 0,0 l/m 7,9 km/h (2 Bft) O-NO 63 0 min 0,000 mm 0,0 UV-I 32 W/m 2,5 C 2,6 C 11,3 km/h (2 Bft) 96,55 %
11.04.2016 07:01 4,0 C 90 % 1013,2 hPa 0,0 l/m 9,4 km/h (2 Bft) O-NO 68 0 min 0,000 mm 0,0 UV-I 33 W/m 2,5 C 1,4 C 14,5 km/h (3 Bft) 96,30 %
11.04.2016 07:02 4,0 C 90 % 1013,2 hPa 0,0 l/m 9,5 km/h (2 Bft) NO 49 0 min 0,000 mm 0,0 UV-I 34 W/m 2,5 C 1,3 C 14,5 km/h (3 Bft) 100,00 %
11.04.2016 07:03 4,1 C 90 % 1013,2 hPa 0,0 l/m 8,6 km/h (2 Bft) NO 44 0 min 0,000 mm 0,0 UV-I 35 W/m 2,6 C 2,2 C 12,9 km/h (3 Bft) 96,30 %
11.04.2016 07:04 4,1 C 90 % 1013,2 hPa 0,0 l/m 10,2 km/h (2 Bft) NO 51 0 min 0,000 mm 0,0 UV-I 36 W/m 2,6 C 0,9 C 14,5 km/h (3 Bft) 95,65 %
11.04.2016 07:05 4,1 C 90 % 1013,2 hPa 0,0 l/m 9,7 km/h (2 Bft) O-NO 78 0 min 0,000 mm 0,0 UV-I 39 W/m 2,6 C 1,3 C 14,5 km/h (3 Bft) 96,30 %
11.04.2016 07:06 4,1 C 90 % 1013,2 hPa 0,0 l/m 8,4 km/h (2 Bft) NO 53 0 min 0,000 mm 0,0 UV-I 39 W/m 2,6 C 2,3 C 11,3 km/h (2 Bft) 93,33 %
11.04.2016 07:07 4,2 C 90 % 1013,2 hPa 0,0 l/m 8,5 km/h (2 Bft) O-NO 64 0 min 0,000 mm 0,0 UV-I 40 W/m 2,7 C 2,3 C 11,3 km/h (2 Bft) 96,15 %
11.04.2016 07:08 4,2 C 90 % 1013,3 hPa 0,0 l/m 9,3 km/h (2 Bft) NO 50 0 min 0,000 mm 0,0 UV-I 42 W/m 2,7 C 1,7 C 12,9 km/h (3 Bft) 100,00 %
11.04.2016 07:09 4,2 C 90 % 1013,3 hPa 0,0 l/m 9,4 km/h (2 Bft) O 85 0 min 0,000 mm 0,0 UV-I 43 W/m 2,7 C 1,6 C 11,3 km/h (2 Bft) 95,65 %
11.04.2016 07:10 4,2 C 90 % 1013,3 hPa 0,0 l/m 8,8 km/h (2 Bft) O-NO 62 0 min 0,000 mm 0,0 UV-I 44 W/m 2,7 C 2,1 C 14,5 km/h (3 Bft) 92,59 %
11.04.2016 07:11 4,3 C 90 % 1013,3 hPa 0,0 l/m 8,9 km/h (2 Bft) NO 52 0 min 0,000 mm 0,0 UV-I 46 W/m 2,8 C 2,1 C 12,9 km/h (3 Bft) 100,00 %
11.04.2016 07:12 4,3 C 90 % 1013,3 hPa 0,0 l/m 9,2 km/h (2 Bft) O-NO 59 0 min 0,000 mm 0,0 UV-I 47 W/m 2,8 C 1,9 C 14,5 km/h (3 Bft) 100,00 %
11.04.2016 07:13 4,4 C 90 % 1013,2 hPa 0,0 l/m 9,3 km/h (2 Bft) NO 51 0 min 0,000 mm 0,0 UV-I 49 W/m 2,9 C 1,9 C 14,5 km/h (3 Bft) 96,15 %
11.04.2016 07:14 4,4 C 90 % 1013,2 hPa 0,0 l/m 8,5 km/h (2 Bft) NO 54 0 min 0,000 mm 0,0 UV-I 50 W/m 2,9 C 2,6 C 12,9 km/h (3 Bft) 93,33 %
11.04.2016 07:15 4,5 C 90 % 1013,3 hPa 0,0 l/m 7,8 km/h (2 Bft) NO 51 0 min 0,000 mm 0,0 UV-I 52 W/m 3,0 C 3,2 C 9,7 km/h (2 Bft) 97,56 %
11.04.2016 07:16 4,5 C 90 % 1013,3 hPa 0,0 l/m 6,6 km/h (2 Bft) O-NO 77 0 min 0,000 mm 0,0 UV-I 54 W/m 3,0 C 4,3 C 11,3 km/h (2 Bft) 95,83 %
11.04.2016 07:17 4,6 C 90 % 1013,3 hPa 0,0 l/m 7,9 km/h (2 Bft) NO 49 0 min 0,000 mm 0,0 UV-I 54 W/m 3,1 C 3,3 C 9,7 km/h (2 Bft) 100,00 %
11.04.2016 07:18 4,6 C 90 % 1013,3 hPa 0,0 l/m 7,1 km/h (2 Bft) NO 41 0 min 0,000 mm 0,0 UV-I 54 W/m 3,1 C 4,0 C 12,9 km/h (3 Bft) 100,00 %
11.04.2016 07:19 4,6 C 90 % 1013,3 hPa 0,0 l/m 10,4 km/h (2 Bft) O 81 0 min 0,000 mm 0,0 UV-I 56 W/m 3,1 C 1,3 C 16,1 km/h (3 Bft) 100,00 %
11.04.2016 07:20 4,6 C 89 % 1013,4 hPa 0,0 l/m 8,8 km/h (2 Bft) NO 46 0 min 0,000 mm 0,0 UV-I 57 W/m 2,9 C 2,5 C 12,9 km/h (3 Bft) 92,59 %
11.04.2016 07:21 4,7 C 89 % 1013,4 hPa 0,0 l/m 7,3 km/h (2 Bft) O-NO 71 0 min 0,000 mm 0,0 UV-I 59 W/m 3,0 C 3,9 C 12,9 km/h (3 Bft) 96,15 %
11.04.2016 07:22 4,7 C 89 % 1013,4 hPa 0,0 l/m 8,0 km/h (2 Bft) O-NO 67 0 min 0,000 mm 0,0 UV-I 60 W/m 3,0 C 3,3 C 9,7 km/h (2 Bft) 100,00 %
11.04.2016 07:23 4,7 C 89 % 1013,4 hPa 0,0 l/m 8,9 km/h (2 Bft) O-NO 73 0 min 0,000 mm 0,0 UV-I 60 W/m 3,0 C 2,6 C 12,9 km/h (3 Bft) 96,15 %
11.04.2016 07:24 4,7 C 89 % 1013,4 hPa 0,0 l/m 8,6 km/h (2 Bft) O-NO 57 0 min 0,000 mm 0,0 UV-I 62 W/m 3,0 C 2,8 C 14,5 km/h (3 Bft) 100,00 %
11.04.2016 07:25 4,7 C 89 % 1013,4 hPa 0,0 l/m 10,6 km/h (2 Bft) O-NO 65 0 min 0,000 mm 0,0 UV-I 64 W/m 3,0 C 1,3 C 14,5 km/h (3 Bft) 96,15 %
11.04.2016 07:26 4,7 C 90 % 1013,4 hPa 0,0 l/m 8,0 km/h (2 Bft) O 80 0 min 0,000 mm 0,0 UV-I 65 W/m 3,2 C 3,3 C 12,9 km/h (3 Bft) 100,00 %
11.04.2016 07:27 4,8 C 89 % 1013,4 hPa 0,0 l/m 9,4 km/h (2 Bft) O-NO 60 0 min 0,000 mm 0,0 UV-I 66 W/m 3,1 C 2,3 C 12,9 km/h (3 Bft) 100,00 %
11.04.2016 07:28 4,8 C 89 % 1013,4 hPa 0,0 l/m 9,4 km/h (2 Bft) O-NO 66 0 min 0,000 mm 0,0 UV-I 67 W/m 3,1 C 2,3 C 12,9 km/h (3 Bft) 96,30 %
11.04.2016 07:29 4,8 C 89 % 1013,4 hPa 0,0 l/m 8,4 km/h (2 Bft) O-NO 71 0 min 0,000 mm 0,0 UV-I 69 W/m 3,1 C 3,1 C 12,9 km/h (3 Bft) 95,65 %
11.04.2016 07:30 4,8 C 89 % 1013,4 hPa 0,0 l/m 10,3 km/h (2 Bft) NO 56 0 min 0,000 mm 0,0 UV-I 70 W/m 3,1 C 1,6 C 14,5 km/h (3 Bft) 95,83 %
11.04.2016 07:31 4,8 C 89 % 1013,4 hPa 0,0 l/m 8,3 km/h (2 Bft) O-NO 61 0 min 0,000 mm 0,0 UV-I 71 W/m 3,1 C 3,1 C 12,9 km/h (3 Bft) 100,00 %
11.04.2016 07:32 4,8 C 89 % 1013,4 hPa 0,0 l/m 9,1 km/h (2 Bft) O-NO 77 0 min 0,000 mm 0,0 UV-I 74 W/m 3,1 C 2,5 C 12,9 km/h (3 Bft) 100,00 %
11.04.2016 07:33 4,8 C 90 % 1013,4 hPa 0,0 l/m 10,1 km/h (2 Bft) O-NO 67 0 min 0,000 mm 0,0 UV-I 77 W/m 3,3 C 1,8 C 12,9 km/h (3 Bft) 100,00 %
11.04.2016 07:34 4,9 C 89 % 1013,4 hPa 0,0 l/m 8,6 km/h (2 Bft) NO 51 0 min 0,000 mm 0,0 UV-I 77 W/m 3,2 C 3,0 C 12,9 km/h (3 Bft) 100,00 %
11.04.2016 07:35 4,9 C 89 % 1013,4 hPa 0,0 l/m 8,1 km/h (2 Bft) O-NO 63 0 min 0,000 mm 0,0 UV-I 79 W/m 3,2 C 3,4 C 11,3 km/h (2 Bft) 100,00 %
11.04.2016 07:36 4,9 C 89 % 1013,4 hPa 0,0 l/m 7,7 km/h (2 Bft) O-NO 71 0 min 0,000 mm 0,0 UV-I 81 W/m 3,2 C 3,8 C 9,7 km/h (2 Bft) 96,15 %
11.04.2016 07:37 4,9 C 89 % 1013,4 hPa 0,0 l/m 7,4 km/h (2 Bft) O-NO 65 0 min 0,000 mm 0,0 UV-I 84 W/m 3,2 C 4,0 C 9,7 km/h (2 Bft) 100,00 %
11.04.2016 07:38 4,9 C 89 % 1013,4 hPa 0,0 l/m 8,5 km/h (2 Bft) O-NO 71 0 min 0,000 mm 0,0 UV-I 88 W/m 3,2 C 3,1 C 11,3 km/h (2 Bft) 100,00 %
11.04.2016 07:39 4,9 C 89 % 1013,4 hPa 0,0 l/m 7,7 km/h (2 Bft) NO 46 0 min 0,000 mm 0,0 UV-I 92 W/m 3,2 C 3,8 C 14,5 km/h (3 Bft) 95,83 %
11.04.2016 07:40 4,9 C 89 % 1013,4 hPa 0,0 l/m 9,7 km/h (2 Bft) NO 54 0 min 0,000 mm 0,0 UV-I 95 W/m 3,2 C 2,2 C 14,5 km/h (3 Bft) 100,00 %
11.04.2016 07:41 5,0 C 89 % 1013,4 hPa 0,0 l/m 8,0 km/h (2 Bft) O-NO 68 0 min 0,000 mm 0,0 UV-I 95 W/m 3,3 C 3,6 C 12,9 km/h (3 Bft) 100,00 %
11.04.2016 07:42 5,0 C 89 % 1013,4 hPa 0,0 l/m 8,9 km/h (2 Bft) NO 52 0 min 0,000 mm 0,0 UV-I 93 W/m 3,3 C 2,9 C 12,9 km/h (3 Bft) 95,83 %
11.04.2016 07:43 5,0 C 89 % 1013,4 hPa 0,0 l/m 9,2 km/h (2 Bft) O-NO 71 0 min 0,000 mm 0,0 UV-I 94 W/m 3,3 C 2,7 C 14,5 km/h (3 Bft) 95,65 %
11.04.2016 07:44 5,1 C 89 % 1013,4 hPa 0,0 l/m 11,9 km/h (2 Bft) O-NO 71 0 min 0,000 mm 0,0 UV-I 97 W/m 3,4 C 0,9 C 14,5 km/h (3 Bft) 100,00 %
11.04.2016 07:45 5,1 C 89 % 1013,4 hPa 0,0 l/m 10,9 km/h (2 Bft) O-NO 66 0 min 0,000 mm 0,0 UV-I 101 W/m 3,4 C 1,6 C 16,1 km/h (3 Bft) 96,30 %
11.04.2016 07:46 5,1 C 89 % 1013,4 hPa 0,0 l/m 10,2 km/h (2 Bft) O-NO 65 0 min 0,000 mm 0,0 UV-I 104 W/m 3,4 C 2,0 C 16,1 km/h (3 Bft) 100,00 %
11.04.2016 07:47 5,1 C 89 % 1013,4 hPa 0,0 l/m 9,3 km/h (2 Bft) NO 49 0 min 0,000 mm 0,0 UV-I 104 W/m 3,4 C 2,7 C 14,5 km/h (3 Bft) 100,00 %
11.04.2016 07:48 5,1 C 89 % 1013,4 hPa 0,0 l/m 10,2 km/h (2 Bft) O-NO 60 0 min 0,000 mm 0,0 UV-I 104 W/m 3,4 C 2,0 C 14,5 km/h (3 Bft) 100,00 %
11.04.2016 07:49 5,1 C 89 % 1013,4 hPa 0,0 l/m 11,2 km/h (2 Bft) NO 55 0 min 0,000 mm 0,0 UV-I 106 W/m 3,4 C 1,4 C 14,5 km/h (3 Bft) 97,56 %
11.04.2016 07:50 5,2 C 88 % 1013,4 hPa 0,0 l/m 13,0 km/h (3 Bft) O 81 0 min 0,000 mm 0,0 UV-I 109 W/m 3,4 C 0,4 C 16,1 km/h (3 Bft) 100,00 %
11.04.2016 07:51 5,2 C 88 % 1013,4 hPa 0,0 l/m 13,1 km/h (3 Bft) O-NO 62 0 min 0,000 mm 0,0 UV-I 112 W/m 3,4 C 0,3 C 17,7 km/h (3 Bft) 98,44 %
11.04.2016 07:52 5,2 C 88 % 1013,4 hPa 0,0 l/m 10,6 km/h (2 Bft) NO 55 0 min 0,000 mm 0,0 UV-I 115 W/m 3,4 C 1,9 C 14,5 km/h (3 Bft) 100,00 %
11.04.2016 07:53 5,2 C 88 % 1013,4 hPa 0,0 l/m 8,0 km/h (2 Bft) NO 49 1 min 0,000 mm 0,0 UV-I 152 W/m 3,4 C 3,8 C 12,9 km/h (3 Bft) 100,00 %
11.04.2016 07:54 5,3 C 88 % 1013,4 hPa 0,0 l/m 9,2 km/h (2 Bft) NO 47 1 min 0,000 mm 0,0 UV-I 197 W/m 3,5 C 3,0 C 14,5 km/h (3 Bft) 100,00 %
11.04.2016 07:55 5,3 C 89 % 1013,4 hPa 0,0 l/m 12,1 km/h (2 Bft) NO 53 1 min 0,000 mm 0,0 UV-I 213 W/m 3,6 C 1,0 C 17,7 km/h (3 Bft) 100,00 %
11.04.2016 07:56 5,4 C 89 % 1013,4 hPa 0,0 l/m 11,9 km/h (2 Bft) NO 53 1 min 0,000 mm 0,0 UV-I 210 W/m 3,7 C 1,3 C 16,1 km/h (3 Bft) 100,00 %
11.04.2016 07:57 5,5 C 89 % 1013,4 hPa 0,0 l/m 12,9 km/h (3 Bft) O-NO 57 1 min 0,000 mm 0,0 UV-I 217 W/m 3,8 C 0,8 C 16,1 km/h (3 Bft) 100,00 %
11.04.2016 07:58 5,6 C 88 % 1013,4 hPa 0,0 l/m 8,3 km/h (2 Bft) O-NO 71 1 min 0,000 mm 0,0 UV-I 235 W/m 3,8 C 4,0 C 12,9 km/h (3 Bft) 95,83 %
11.04.2016 07:59 5,7 C 88 % 1013,4 hPa 0,0 l/m 10,5 km/h (2 Bft) O-NO 58 1 min 0,000 mm 0,0 UV-I 230 W/m 3,9 C 2,5 C 16,1 km/h (3 Bft) 100,00 %
11.04.2016 08:00 5,7 C 88 % 1013,4 hPa 0,0 l/m 11,5 km/h (2 Bft) NO 46 1 min 0,051 mm 0,0 UV-I 228 W/m 3,9 C 1,9 C 17,7 km/h (3 Bft) 100,00 %
11.04.2016 08:01 5,8 C 87 % 1013,4 hPa 0,0 l/m 10,5 km/h (2 Bft) NO 40 1 min 0,000 mm 0,0 UV-I 220 W/m 3,8 C 2,6 C 14,5 km/h (3 Bft) 100,00 %
11.04.2016 08:02 5,8 C 87 % 1013,4 hPa 0,0 l/m 11,7 km/h (2 Bft) O-NO 59 1 min 0,000 mm 0,0 UV-I 208 W/m 3,8 C 1,9 C 16,1 km/h (3 Bft) 100,00 %
11.04.2016 08:03 5,9 C 87 % 1013,4 hPa 0,0 l/m 9,7 km/h (2 Bft) O 90 1 min 0,000 mm 0,0 UV-I 164 W/m 3,9 C 3,3 C 14,5 km/h (3 Bft) 92,86 %
11.04.2016 08:04 5,9 C 87 % 1013,4 hPa 0,0 l/m 11,7 km/h (2 Bft) O 80 0 min 0,000 mm 0,0 UV-I 150 W/m 3,9 C 2,0 C 14,5 km/h (3 Bft) 100,00 %
11.04.2016 08:05 5,9 C 86 % 1013,4 hPa 0,0 l/m 11,0 km/h (2 Bft) NO 55 1 min 0,000 mm 0,0 UV-I 185 W/m 3,7 C 2,4 C 14,5 km/h (3 Bft) 100,00 %
11.04.2016 08:06 5,9 C 86 % 1013,4 hPa 0,0 l/m 11,0 km/h (2 Bft) O-NO 65 1 min 0,000 mm 0,0 UV-I 197 W/m 3,7 C 2,4 C 14,5 km/h (3 Bft) 100,00 %
11.04.2016 08:07 5,9 C 86 % 1013,4 hPa 0,0 l/m 9,5 km/h (2 Bft) O-NO 64 1 min 0,000 mm 0,0 UV-I 187 W/m 3,7 C 3,4 C 12,9 km/h (3 Bft) 100,00 %
11.04.2016 08:08 5,9 C 87 % 1013,5 hPa 0,0 l/m 8,5 km/h (2 Bft) O-NO 59 1 min 0,000 mm 0,0 UV-I 166 W/m 3,9 C 4,2 C 12,9 km/h (3 Bft) 95,65 %
11.04.2016 08:09 6,0 C 87 % 1013,4 hPa 0,0 l/m 10,1 km/h (2 Bft) O-NO 71 0 min 0,000 mm 0,0 UV-I 140 W/m 4,0 C 3,1 C 14,5 km/h (3 Bft) 95,83 %
11.04.2016 08:10 6,0 C 86 % 1013,5 hPa 0,0 l/m 8,3 km/h (2 Bft) O-NO 64 0 min 0,000 mm 0,0 UV-I 136 W/m 3,8 C 4,4 C 11,3 km/h (2 Bft) 100,00 %
11.04.2016 08:11 6,0 C 86 % 1013,4 hPa 0,0 l/m 8,6 km/h (2 Bft) O-NO 57 0 min 0,000 mm 0,0 UV-I 149 W/m 3,8 C 4,2 C 12,9 km/h (3 Bft) 100,00 %
11.04.2016 08:12 6,0 C 86 % 1013,5 hPa 0,0 l/m 9,5 km/h (2 Bft) O-NO 66 0 min 0,000 mm 0,0 UV-I 138 W/m 3,8 C 3,5 C 12,9 km/h (3 Bft) 100,00 %
11.04.2016 08:13 6,0 C 86 % 1013,5 hPa 0,0 l/m 9,8 km/h (2 Bft) O-NO 66 0 min 0,000 mm 0,0 UV-I 132 W/m 3,8 C 3,3 C 14,5 km/h (3 Bft) 100,00 %
11.04.2016 08:14 6,0 C 86 % 1013,5 hPa 0,0 l/m 11,0 km/h (2 Bft) NO 47 0 min 0,000 mm 0,0 UV-I 146 W/m 3,8 C 2,5 C 14,5 km/h (3 Bft) 100,00 %
11.04.2016 08:15 6,0 C 86 % 1013,4 hPa 0,0 l/m 9,6 km/h (2 Bft) NO 51 0 min 0,000 mm 0,0 UV-I 145 W/m 3,8 C 3,5 C 12,9 km/h (3 Bft) 100,00 %
11.04.2016 08:16 6,0 C 85 % 1013,5 hPa 0,0 l/m 7,6 km/h (2 Bft) NO 51 0 min 0,000 mm 0,0 UV-I 141 W/m 3,7 C 5,0 C 9,7 km/h (2 Bft) 100,00 %
11.04.2016 08:17 6,1 C 85 % 1013,4 hPa 0,0 l/m 9,2 km/h (2 Bft) NO 52 0 min 0,000 mm 0,0 UV-I 140 W/m 3,8 C 3,8 C 12,9 km/h (3 Bft) 100,00 %
11.04.2016 08:18 6,1 C 86 % 1013,4 hPa 0,0 l/m 10,5 km/h (2 Bft) O-NO 67 0 min 0,000 mm 0,0 UV-I 142 W/m 3,9 C 3,0 C 14,5 km/h (3 Bft) 100,00 %
11.04.2016 08:19 6,1 C 85 % 1013,4 hPa 0,0 l/m 10,1 km/h (2 Bft) O-NO 64 0 min 0,000 mm 0,0 UV-I 144 W/m 3,8 C 3,2 C 12,9 km/h (3 Bft) 100,00 %
11.04.2016 08:20 6,1 C 86 % 1013,5 hPa 0,0 l/m 9,9 km/h (2 Bft) NO 45 0 min 0,000 mm 0,0 UV-I 150 W/m 3,9 C 3,4 C 12,9 km/h (3 Bft) 100,00 %
11.04.2016 08:21 6,1 C 86 % 1013,5 hPa 0,0 l/m 7,9 km/h (2 Bft) O-NO 62 0 min 0,000 mm 0,0 UV-I 158 W/m 3,9 C 4,8 C 9,7 km/h (2 Bft) 100,00 %
11.04.2016 08:22 6,1 C 86 % 1013,5 hPa 0,0 l/m 7,1 km/h (2 Bft) O-NO 59 0 min 0,000 mm 0,0 UV-I 172 W/m 3,9 C 5,5 C 9,7 km/h (2 Bft) 100,00 %
11.04.2016 08:23 6,1 C 86 % 1013,4 hPa 0,0 l/m 8,0 km/h (2 Bft) O-NO 66 1 min 0,000 mm 0,1 UV-I 185 W/m 3,9 C 4,8 C 12,9 km/h (3 Bft) 100,00 %
11.04.2016 08:24 6,2 C 86 % 1013,4 hPa 0,0 l/m 6,1 km/h (2 Bft) O-NO 67 1 min 0,000 mm 0,5 UV-I 188 W/m 4,0 C 6,2 C 9,7 km/h (2 Bft) 100,00 %
11.04.2016 08:25 6,2 C 86 % 1013,4 hPa 0,0 l/m 9,9 km/h (2 Bft) N-NO 24 0 min 0,000 mm 0,5 UV-I 181 W/m 4,0 C 3,5 C 14,5 km/h (3 Bft) 100,00 %
11.04.2016 08:26 6,3 C 85 % 1013,4 hPa 0,0 l/m 8,0 km/h (2 Bft) NO 52 0 min 0,000 mm 0,5 UV-I 170 W/m 4,0 C 5,0 C 11,3 km/h (2 Bft) 100,00 %
11.04.2016 08:27 6,2 C 84 % 1013,4 hPa 0,0 l/m 11,5 km/h (2 Bft) O-NO 57 0 min 0,000 mm 0,5 UV-I 166 W/m 3,7 C 2,4 C 16,1 km/h (3 Bft) 100,00 %
11.04.2016 08:28 6,3 C 84 % 1013,4 hPa 0,0 l/m 9,9 km/h (2 Bft) NO 41 0 min 0,000 mm 0,5 UV-I 163 W/m 3,8 C 3,6 C 14,5 km/h (3 Bft) 100,00 %
11.04.2016 08:29 6,3 C 84 % 1013,5 hPa 0,0 l/m 12,0 km/h (2 Bft) O-NO 62 0 min 0,000 mm 0,5 UV-I 162 W/m 3,8 C 2,3 C 17,7 km/h (3 Bft) 100,00 %
11.04.2016 08:30 6,3 C 84 % 1013,4 hPa 0,0 l/m 15,2 km/h (3 Bft) NO 42 0 min 0,000 mm 0,5 UV-I 162 W/m 3,8 C 0,6 C 19,3 km/h (3 Bft) 100,00 %
11.04.2016 08:31 6,2 C 83 % 1013,4 hPa 0,0 l/m 16,0 km/h (3 Bft) NO 53 0 min 0,000 mm 0,5 UV-I 162 W/m 3,5 C 0,1 C 20,9 km/h (4 Bft) 100,00 %
11.04.2016 08:32 6,2 C 84 % 1013,4 hPa 0,0 l/m 16,5 km/h (3 Bft) NO 42 0 min 0,000 mm 0,5 UV-I 163 W/m 3,7 C -0,2 C 20,9 km/h (4 Bft) 100,00 %
11.04.2016 08:33 6,2 C 83 % 1013,4 hPa 0,0 l/m 12,9 km/h (3 Bft) O-NO 58 0 min 0,000 mm 0,5 UV-I 163 W/m 3,5 C 1,6 C 16,1 km/h (3 Bft) 96,15 %
11.04.2016 08:34 6,2 C 83 % 1013,4 hPa 0,0 l/m 15,3 km/h (3 Bft) O-NO 64 0 min 0,000 mm 0,5 UV-I 168 W/m 3,5 C 0,4 C 19,3 km/h (3 Bft) 100,00 %
11.04.2016 08:35 6,2 C 83 % 1013,4 hPa 0,0 l/m 13,8 km/h (3 Bft) NO 55 0 min 0,000 mm 0,5 UV-I 175 W/m 3,5 C 1,1 C 17,7 km/h (3 Bft) 100,00 %
11.04.2016 08:36 6,2 C 83 % 1013,3 hPa 0,0 l/m 16,0 km/h (3 Bft) O-NO 67 0 min 0,000 mm 0,5 UV-I 187 W/m 3,5 C 0,1 C 20,9 km/h (4 Bft) 100,00 %
11.04.2016 08:37 6,2 C 83 % 1013,3 hPa 0,0 l/m 14,5 km/h (3 Bft) O-NO 59 0 min 0,000 mm 0,5 UV-I 187 W/m 3,5 C 0,8 C 20,9 km/h (4 Bft) 100,00 %
11.04.2016 08:38 6,2 C 83 % 1013,3 hPa 0,0 l/m 14,6 km/h (3 Bft) O-NO 76 0 min 0,000 mm 0,6 UV-I 188 W/m 3,5 C 0,7 C 19,3 km/h (3 Bft) 100,00 %
11.04.2016 08:39 6,2 C 83 % 1013,3 hPa 0,0 l/m 13,8 km/h (3 Bft) O-NO 74 0 min 0,000 mm 0,6 UV-I 197 W/m 3,5 C 1,1 C 17,7 km/h (3 Bft) 100,00 %
11.04.2016 08:40 6,2 C 84 % 1013,3 hPa 0,0 l/m 12,6 km/h (3 Bft) NO 55 0 min 0,000 mm 0,6 UV-I 206 W/m 3,7 C 1,8 C 16,1 km/h (3 Bft) 100,00 %
11.04.2016 08:41 6,3 C 84 % 1013,3 hPa 0,0 l/m 16,2 km/h (3 Bft) NO 40 0 min 0,000 mm 0,6 UV-I 199 W/m 3,8 C 0,1 C 20,9 km/h (4 Bft) 95,65 %
11.04.2016 08:42 6,3 C 84 % 1013,3 hPa 0,0 l/m 11,6 km/h (2 Bft) NO 55 0 min 0,000 mm 0,6 UV-I 191 W/m 3,8 C 2,5 C 16,1 km/h (3 Bft) 100,00 %
11.04.2016 08:43 6,3 C 84 % 1013,3 hPa 0,0 l/m 14,5 km/h (3 Bft) NO 56 0 min 0,000 mm 0,6 UV-I 190 W/m 3,8 C 0,9 C 17,7 km/h (3 Bft) 100,00 %
11.04.2016 08:44 6,3 C 83 % 1013,3 hPa 0,0 l/m 13,8 km/h (3 Bft) O-NO 73 0 min 0,000 mm 0,6 UV-I 198 W/m 3,6 C 1,3 C 17,7 km/h (3 Bft) 100,00 %
11.04.2016 08:45 6,3 C 84 % 1013,3 hPa 0,0 l/m 13,6 km/h (3 Bft) NO 46 0 min 0,000 mm 0,6 UV-I 208 W/m 3,8 C 1,4 C 19,3 km/h (3 Bft) 100,00 %
11.04.2016 08:46 6,4 C 83 % 1013,3 hPa 0,0 l/m 14,4 km/h (3 Bft) O-NO 58 0 min 0,000 mm 0,6 UV-I 204 W/m 3,7 C 1,1 C 19,3 km/h (3 Bft) 100,00 %
11.04.2016 08:47 6,4 C 84 % 1013,4 hPa 0,0 l/m 13,5 km/h (3 Bft) O-NO 68 0 min 0,000 mm 0,6 UV-I 208 W/m 3,9 C 1,5 C 16,1 km/h (3 Bft) 100,00 %
11.04.2016 08:49 6,5 C 84 % 1013,3 hPa 0,0 l/m 17,6 km/h (3 Bft) NO 48 0 min 0,000 mm 0,6 UV-I 219 W/m 4,0 C -0,3 C 20,9 km/h (4 Bft) 98,28 %
11.04.2016 08:50 6,5 C 83 % 1013,3 hPa 0,0 l/m 14,8 km/h (3 Bft) NO 44 1 min 0,000 mm 0,6 UV-I 224 W/m 3,8 C 1,0 C 20,9 km/h (4 Bft) 100,00 %
11.04.2016 08:51 6,6 C 83 % 1013,3 hPa 0,0 l/m 15,5 km/h (3 Bft) O-NO 57 1 min 0,000 mm 0,6 UV-I 225 W/m 3,9 C 0,8 C 19,3 km/h (3 Bft) 96,30 %
11.04.2016 08:52 6,6 C 83 % 1013,3 hPa 0,0 l/m 13,3 km/h (3 Bft) O-NO 61 1 min 0,000 mm 0,7 UV-I 233 W/m 3,9 C 1,9 C 16,1 km/h (3 Bft) 96,55 %
11.04.2016 08:53 6,6 C 83 % 1013,3 hPa 0,0 l/m 14,8 km/h (3 Bft) NO 48 1 min 0,000 mm 0,7 UV-I 243 W/m 3,9 C 1,1 C 19,3 km/h (3 Bft) 100,00 %
11.04.2016 08:54 6,6 C 82 % 1013,3 hPa 0,0 l/m 13,8 km/h (3 Bft) O 79 1 min 0,000 mm 0,7 UV-I 241 W/m 3,8 C 1,6 C 17,7 km/h (3 Bft) 92,31 %
11.04.2016 08:55 6,7 C 82 % 1013,3 hPa 0,0 l/m 8,6 km/h (2 Bft) O 80 1 min 0,000 mm 0,7 UV-I 233 W/m 3,8 C 4,9 C 14,5 km/h (3 Bft) 100,00 %
11.04.2016 08:56 6,7 C 82 % 1013,3 hPa 0,0 l/m 15,0 km/h (3 Bft) O-NO 78 1 min 0,000 mm 0,7 UV-I 232 W/m 3,8 C 1,1 C 19,3 km/h (3 Bft) 93,75 %
11.04.2016 08:57 6,7 C 83 % 1013,3 hPa 0,0 l/m 10,7 km/h (2 Bft) O-NO 57 1 min 0,000 mm 0,7 UV-I 239 W/m 4,0 C 3,5 C 16,1 km/h (3 Bft) 100,00 %
11.04.2016 08:58 6,7 C 83 % 1013,3 hPa 0,0 l/m 15,4 km/h (3 Bft) O-NO 68 1 min 0,000 mm 0,7 UV-I 246 W/m 4,0 C 0,9 C 19,3 km/h (3 Bft) 95,65 %
11.04.2016 08:59 6,8 C 82 % 1013,3 hPa 0,0 l/m 14,7 km/h (3 Bft) O-NO 63 1 min 0,000 mm 0,7 UV-I 250 W/m 3,9 C 1,4 C 17,7 km/h (3 Bft) 100,00 %
11.04.2016 09:00 6,8 C 82 % 1013,3 hPa 0,0 l/m 13,7 km/h (3 Bft) O-NO 74 1 min 0,000 mm 0,8 UV-I 248 W/m 3,9 C 1,9 C 19,3 km/h (3 Bft) 92,86 %
11.04.2016 09:01 6,8 C 82 % 1013,3 hPa 0,0 l/m 11,8 km/h (2 Bft) O-NO 64 1 min 0,101 mm 0,8 UV-I 252 W/m 3,9 C 2,9 C 16,1 km/h (3 Bft) 100,00 %
11.04.2016 09:02 6,8 C 82 % 1013,3 hPa 0,0 l/m 12,1 km/h (2 Bft) O-NO 61 1 min 0,000 mm 0,8 UV-I 282 W/m 3,9 C 2,8 C 16,1 km/h (3 Bft) 96,15 %
11.04.2016 09:03 6,8 C 82 % 1013,3 hPa 0,0 l/m 11,0 km/h (2 Bft) O-NO 61 1 min 0,000 mm 0,8 UV-I 265 W/m 3,9 C 3,4 C 17,7 km/h (3 Bft) 96,30 %
11.04.2016 09:04 6,9 C 82 % 1013,3 hPa 0,0 l/m 11,0 km/h (2 Bft) NO 43 1 min 0,000 mm 0,8 UV-I 261 W/m 4,0 C 3,5 C 17,7 km/h (3 Bft) 100,00 %
11.04.2016 09:05 6,9 C 81 % 1013,3 hPa 0,0 l/m 13,4 km/h (3 Bft) NO 47 1 min 0,000 mm 0,8 UV-I 259 W/m 3,9 C 2,2 C 16,1 km/h (3 Bft) 93,33 %
11.04.2016 09:06 6,9 C 81 % 1013,3 hPa 0,0 l/m 10,7 km/h (2 Bft) O-NO 63 1 min 0,000 mm 0,8 UV-I 266 W/m 3,9 C 3,7 C 16,1 km/h (3 Bft) 100,00 %
11.04.2016 09:07 7,0 C 81 % 1013,3 hPa 0,0 l/m 13,8 km/h (3 Bft) O-NO 57 1 min 0,000 mm 0,8 UV-I 271 W/m 4,0 C 2,1 C 17,7 km/h (3 Bft) 96,30 %
11.04.2016 09:08 7,1 C 81 % 1013,3 hPa 0,0 l/m 9,7 km/h (2 Bft) O-NO 64 1 min 0,000 mm 0,9 UV-I 274 W/m 4,1 C 4,6 C 12,9 km/h (3 Bft) 100,00 %
11.04.2016 09:09 7,1 C 81 % 1013,3 hPa 0,0 l/m 9,1 km/h (2 Bft) O-NO 67 1 min 0,000 mm 0,9 UV-I 274 W/m 4,1 C 5,0 C 16,1 km/h (3 Bft) 83,33 %
11.04.2016 09:10 7,1 C 80 % 1013,3 hPa 0,0 l/m 16,0 km/h (3 Bft) O 89 1 min 0,000 mm 0,9 UV-I 274 W/m 3,9 C 1,2 C 19,3 km/h (3 Bft) 100,00 %
11.04.2016 09:11 7,1 C 80 % 1013,3 hPa 0,0 l/m 13,5 km/h (3 Bft) NO 42 1 min 0,000 mm 0,9 UV-I 280 W/m 3,9 C 2,4 C 19,3 km/h (3 Bft) 96,15 %
11.04.2016 09:12 7,2 C 81 % 1013,3 hPa 0,0 l/m 13,6 km/h (3 Bft) NO 55 1 min 0,000 mm 0,9 UV-I 290 W/m 4,2 C 2,4 C 17,7 km/h (3 Bft) 91,67 %
11.04.2016 09:13 7,2 C 80 % 1013,4 hPa 0,0 l/m 15,1 km/h (3 Bft) NO 55 1 min 0,000 mm 1,0 UV-I 309 W/m 4,0 C 1,7 C 22,5 km/h (4 Bft) 96,55 %
11.04.2016 09:14 7,2 C 80 % 1013,4 hPa 0,0 l/m 14,7 km/h (3 Bft) O 82 1 min 0,000 mm 1,0 UV-I 301 W/m 4,0 C 1,9 C 19,3 km/h (3 Bft) 91,67 %
11.04.2016 09:15 7,2 C 80 % 1013,4 hPa 0,0 l/m 12,9 km/h (3 Bft) O-NO 66 1 min 0,000 mm 1,0 UV-I 299 W/m 4,0 C 2,8 C 17,7 km/h (3 Bft) 96,88 %
11.04.2016 09:16 7,2 C 80 % 1013,4 hPa 0,0 l/m 11,0 km/h (2 Bft) NO 34 1 min 0,000 mm 0,9 UV-I 289 W/m 4,0 C 3,9 C 14,5 km/h (3 Bft) 93,33 %
11.04.2016 09:17 7,2 C 80 % 1013,4 hPa 0,0 l/m 14,1 km/h (3 Bft) O-NO 66 1 min 0,000 mm 1,0 UV-I 300 W/m 4,0 C 2,2 C 22,5 km/h (4 Bft) 100,00 %
11.04.2016 09:18 7,3 C 80 % 1013,4 hPa 0,0 l/m 16,5 km/h (3 Bft) NO 44 1 min 0,000 mm 1,0 UV-I 307 W/m 4,1 C 1,2 C 22,5 km/h (4 Bft) 96,30 %
11.04.2016 09:19 7,3 C 80 % 1013,4 hPa 0,0 l/m 14,7 km/h (3 Bft) O-NO 59 1 min 0,000 mm 1,0 UV-I 307 W/m 4,1 C 2,0 C 17,7 km/h (3 Bft) 98,48 %
11.04.2016 09:20 7,3 C 81 % 1013,5 hPa 0,0 l/m 14,2 km/h (3 Bft) NO 55 1 min 0,000 mm 1,0 UV-I 296 W/m 4,3 C 2,2 C 17,7 km/h (3 Bft) 97,56 %
11.04.2016 09:21 7,4 C 80 % 1013,5 hPa 0,0 l/m 18,6 km/h (3 Bft) NO 55 1 min 0,000 mm 1,0 UV-I 288 W/m 4,2 C 0,5 C 22,5 km/h (4 Bft) 86,96 %
11.04.2016 09:22 7,4 C 79 % 1013,5 hPa 0,0 l/m 17,0 km/h (3 Bft) O-NO 69 1 min 0,000 mm 1,0 UV-I 295 W/m 4,0 C 1,1 C 20,9 km/h (4 Bft) 100,00 %
11.04.2016 09:23 7,4 C 78 % 1013,5 hPa 0,0 l/m 17,8 km/h (3 Bft) NO 43 1 min 0,000 mm 1,0 UV-I 300 W/m 3,8 C 0,8 C 24,1 km/h (4 Bft) 100,00 %
11.04.2016 09:24 7,4 C 77 % 1013,5 hPa 0,0 l/m 18,5 km/h (3 Bft) O-NO 67 1 min 0,000 mm 1,0 UV-I 296 W/m 3,6 C 0,5 C 24,1 km/h (4 Bft) 100,00 %
11.04.2016 09:25 7,3 C 77 % 1013,4 hPa 0,0 l/m 17,7 km/h (3 Bft) NO 40 1 min 0,000 mm 1,0 UV-I 287 W/m 3,5 C 0,7 C 22,5 km/h (4 Bft) 100,00 %
11.04.2016 09:26 7,3 C 78 % 1013,4 hPa 0,0 l/m 17,0 km/h (3 Bft) NO 54 1 min 0,000 mm 1,1 UV-I 306 W/m 3,7 C 1,0 C 22,5 km/h (4 Bft) 100,00 %
11.04.2016 09:27 7,3 C 78 % 1013,4 hPa 0,0 l/m 16,4 km/h (3 Bft) NO 36 1 min 0,000 mm 1,1 UV-I 303 W/m 3,7 C 1,2 C 19,3 km/h (3 Bft) 96,15 %
11.04.2016 09:28 7,3 C 78 % 1013,4 hPa 0,0 l/m 16,4 km/h (3 Bft) NO 51 1 min 0,000 mm 1,1 UV-I 300 W/m 3,7 C 1,2 C 20,9 km/h (4 Bft) 100,00 %
11.04.2016 09:29 7,3 C 78 % 1013,4 hPa 0,0 l/m 14,2 km/h (3 Bft) O-NO 65 1 min 0,000 mm 1,1 UV-I 325 W/m 3,7 C 2,2 C 19,3 km/h (3 Bft) 100,00 %
11.04.2016 09:30 7,3 C 78 % 1013,4 hPa 0,0 l/m 18,0 km/h (3 Bft) NO 50 1 min 0,000 mm 1,1 UV-I 323 W/m 3,7 C 0,6 C 22,5 km/h (4 Bft) 100,00 %
11.04.2016 09:31 7,4 C 78 % 1013,4 hPa 0,0 l/m 15,3 km/h (3 Bft) NO 53 1 min 0,000 mm 1,1 UV-I 313 W/m 3,8 C 1,8 C 20,9 km/h (4 Bft) 100,00 %
11.04.2016 09:32 7,4 C 79 % 1013,4 hPa 0,0 l/m 17,1 km/h (3 Bft) NO 34 1 min 0,000 mm 1,1 UV-I 320 W/m 4,0 C 1,1 C 20,9 km/h (4 Bft) 100,00 %
11.04.2016 09:33 7,4 C 79 % 1013,4 hPa 0,0 l/m 18,7 km/h (3 Bft) NO 42 1 min 0,000 mm 1,2 UV-I 338 W/m 4,0 C 0,4 C 20,9 km/h (4 Bft) 100,00 %
11.04.2016 09:34 7,4 C 78 % 1013,5 hPa 0,0 l/m 19,7 km/h (3 Bft) NO 41 1 min 0,000 mm 1,2 UV-I 371 W/m 3,8 C 0,0 C 24,1 km/h (4 Bft) 100,00 %
11.04.2016 09:35 7,4 C 77 % 1013,4 hPa 0,0 l/m 16,9 km/h (3 Bft) N-NO 31 1 min 0,000 mm 1,2 UV-I 358 W/m 3,6 C 1,1 C 20,9 km/h (4 Bft) 100,00 %
11.04.2016 09:36 7,4 C 78 % 1013,4 hPa 0,0 l/m 10,9 km/h (2 Bft) NO 45 1 min 0,000 mm 1,2 UV-I 344 W/m 3,8 C 4,2 C 16,1 km/h (3 Bft) 100,00 %
11.04.2016 09:37 7,4 C 78 % 1013,5 hPa 0,0 l/m 15,3 km/h (3 Bft) NO 49 1 min 0,000 mm 1,3 UV-I 353 W/m 3,8 C 1,8 C 19,3 km/h (3 Bft) 100,00 %
11.04.2016 09:38 7,5 C 78 % 1013,4 hPa 0,0 l/m 19,5 km/h (3 Bft) O-NO 77 1 min 0,000 mm 1,3 UV-I 396 W/m 3,9 C 0,2 C 24,1 km/h (4 Bft) 100,00 %
11.04.2016 09:39 7,5 C 78 % 1013,5 hPa 0,0 l/m 18,4 km/h (3 Bft) O-NO 57 1 min 0,000 mm 1,2 UV-I 371 W/m 3,9 C 0,7 C 22,5 km/h (4 Bft) 100,00 %
11.04.2016 09:40 7,5 C 78 % 1013,5 hPa 0,0 l/m 16,9 km/h (3 Bft) NO 55 1 min 0,000 mm 1,3 UV-I 402 W/m 3,9 C 1,3 C 22,5 km/h (4 Bft) 100,00 %
11.04.2016 09:41 7,5 C 78 % 1013,5 hPa 0,0 l/m 14,5 km/h (3 Bft) O-NO 57 1 min 0,000 mm 1,2 UV-I 340 W/m 3,9 C 2,3 C 17,7 km/h (3 Bft) 100,00 %
11.04.2016 09:42 7,5 C 78 % 1013,5 hPa 0,0 l/m 13,8 km/h (3 Bft) O-NO 67 1 min 0,000 mm 1,3 UV-I 360 W/m 3,9 C 2,7 C 19,3 km/h (3 Bft) 100,00 %
11.04.2016 09:43 7,5 C 78 % 1013,5 hPa 0,0 l/m 14,0 km/h (3 Bft) NO 50 1 min 0,000 mm 1,2 UV-I 333 W/m 3,9 C 2,6 C 17,7 km/h (3 Bft) 95,83 %
11.04.2016 09:44 7,5 C 78 % 1013,5 hPa 0,0 l/m 15,5 km/h (3 Bft) NO 56 1 min 0,000 mm 1,2 UV-I 310 W/m 3,9 C 1,9 C 19,3 km/h (3 Bft) 100,00 %
11.04.2016 09:45 7,6 C 78 % 1013,5 hPa 0,0 l/m 12,3 km/h (3 Bft) O-NO 60 1 min 0,000 mm 1,2 UV-I 308 W/m 4,0 C 3,6 C 16,1 km/h (3 Bft) 100,00 %
11.04.2016 09:46 7,6 C 78 % 1013,5 hPa 0,0 l/m 12,6 km/h (3 Bft) O 85 1 min 0,000 mm 1,3 UV-I 331 W/m 4,0 C 3,4 C 16,1 km/h (3 Bft) 100,00 %
11.04.2016 09:47 7,5 C 78 % 1013,4 hPa 0,0 l/m 13,9 km/h (3 Bft) O-NO 58 1 min 0,000 mm 1,3 UV-I 356 W/m 3,9 C 2,6 C 19,3 km/h (3 Bft) 100,00 %
11.04.2016 09:48 7,6 C 78 % 1013,4 hPa 0,0 l/m 16,4 km/h (3 Bft) NO 56 1 min 0,000 mm 1,3 UV-I 364 W/m 4,0 C 1,6 C 19,3 km/h (3 Bft) 100,00 %
11.04.2016 09:49 7,6 C 77 % 1013,4 hPa 0,0 l/m 14,8 km/h (3 Bft) NO 41 1 min 0,000 mm 1,3 UV-I 362 W/m 3,8 C 2,3 C 20,9 km/h (4 Bft) 100,00 %
11.04.2016 09:50 7,6 C 78 % 1013,4 hPa 0,0 l/m 18,2 km/h (3 Bft) NO 36 1 min 0,000 mm 1,4 UV-I 390 W/m 4,0 C 0,9 C 22,5 km/h (4 Bft) 100,00 %
11.04.2016 09:51 7,7 C 80 % 1013,5 hPa 0,0 l/m 15,3 km/h (3 Bft) N-NO 28 1 min 0,000 mm 1,4 UV-I 377 W/m 4,5 C 2,2 C 19,3 km/h (3 Bft) 100,00 %
11.04.2016 09:52 7,8 C 79 % 1013,5 hPa 0,0 l/m 16,1 km/h (3 Bft) N-NO 26 1 min 0,000 mm 1,4 UV-I 372 W/m 4,4 C 2,0 C 22,5 km/h (4 Bft) 100,00 %
11.04.2016 09:53 7,8 C 78 % 1013,4 hPa 0,0 l/m 13,9 km/h (3 Bft) NO 39 1 min 0,000 mm 1,4 UV-I 374 W/m 4,2 C 3,0 C 22,5 km/h (4 Bft) 100,00 %
11.04.2016 09:54 7,8 C 78 % 1013,4 hPa 0,0 l/m 18,0 km/h (3 Bft) O-NO 60 1 min 0,000 mm 1,4 UV-I 379 W/m 4,2 C 1,2 C 22,5 km/h (4 Bft) 100,00 %
11.04.2016 09:55 7,9 C 79 % 1013,4 hPa 0,0 l/m 14,3 km/h (3 Bft) N-NO 15 1 min 0,000 mm 1,5 UV-I 418 W/m 4,5 C 2,9 C 19,3 km/h (3 Bft) 96,15 %
11.04.2016 09:56 7,9 C 79 % 1013,4 hPa 0,0 l/m 16,7 km/h (3 Bft) NO 36 1 min 0,000 mm 1,4 UV-I 348 W/m 4,5 C 1,8 C 20,9 km/h (4 Bft) 95,83 %
11.04.2016 09:57 7,9 C 79 % 1013,4 hPa 0,0 l/m 13,4 km/h (3 Bft) N-NO 19 1 min 0,000 mm 1,4 UV-I 345 W/m 4,5 C 3,4 C 20,9 km/h (4 Bft) 100,00 %
11.04.2016 09:58 7,9 C 79 % 1013,4 hPa 0,0 l/m 9,5 km/h (2 Bft) N 5 1 min 0,000 mm 1,4 UV-I 339 W/m 4,5 C 5,6 C 16,1 km/h (3 Bft) 95,83 %
11.04.2016 09:59 8,0 C 80 % 1013,4 hPa 0,0 l/m 13,0 km/h (3 Bft) N-NO 15 1 min 0,000 mm 1,4 UV-I 350 W/m 4,8 C 3,7 C 17,7 km/h (3 Bft) 98,54 %
11.04.2016 10:00 8,1 C 79 % 1013,4 hPa 0,0 l/m 14,8 km/h (3 Bft) O-NO 57 1 min 0,178 mm 1,5 UV-I 370 W/m 4,7 C 2,9 C 17,7 km/h (3 Bft) 100,00 %
11.04.2016 10:01 8,1 C 78 % 1013,3 hPa 0,0 l/m 10,4 km/h (2 Bft) O-NO 74 1 min 0,000 mm 1,6 UV-I 409 W/m 4,5 C 5,2 C 16,1 km/h (3 Bft) 100,00 %
11.04.2016 10:02 8,1 C 77 % 1013,3 hPa 0,0 l/m 11,8 km/h (2 Bft) O-NO 70 1 min 0,000 mm 1,5 UV-I 398 W/m 4,3 C 4,4 C 17,7 km/h (3 Bft) 100,00 %
11.04.2016 10:03 8,0 C 77 % 1013,3 hPa 0,0 l/m 15,8 km/h (3 Bft) NO 41 1 min 0,000 mm 1,6 UV-I 426 W/m 4,2 C 2,4 C 20,9 km/h (4 Bft) 100,00 %
11.04.2016 10:04 8,0 C 78 % 1013,3 hPa 0,0 l/m 12,3 km/h (3 Bft) NO 43 1 min 0,000 mm 1,5 UV-I 401 W/m 4,4 C 4,0 C 17,7 km/h (3 Bft) 96,30 %
11.04.2016 10:05 7,9 C 77 % 1013,3 hPa 0,0 l/m 17,1 km/h (3 Bft) NO 55 1 min 0,000 mm 1,6 UV-I 398 W/m 4,1 C 1,7 C 22,5 km/h (4 Bft) 100,00 %
11.04.2016 10:06 7,9 C 77 % 1013,3 hPa 0,0 l/m 14,4 km/h (3 Bft) NO 55 1 min 0,000 mm 1,6 UV-I 377 W/m 4,1 C 2,9 C 17,7 km/h (3 Bft) 100,00 %
11.04.2016 10:07 7,9 C 76 % 1013,3 hPa 0,0 l/m 17,0 km/h (3 Bft) NO 44 1 min 0,000 mm 1,6 UV-I 394 W/m 3,9 C 1,7 C 20,9 km/h (4 Bft) 100,00 %
11.04.2016 10:08 7,9 C 78 % 1013,3 hPa 0,0 l/m 16,2 km/h (3 Bft) O-NO 59 1 min 0,000 mm 1,6 UV-I 403 W/m 4,3 C 2,1 C 24,1 km/h (4 Bft) 100,00 %
11.04.2016 10:09 7,9 C 78 % 1013,3 hPa 0,0 l/m 12,2 km/h (2 Bft) N-NO 20 1 min 0,000 mm 1,7 UV-I 393 W/m 4,3 C 4,0 C 16,1 km/h (3 Bft) 100,00 %
11.04.2016 10:10 7,9 C 77 % 1013,4 hPa 0,0 l/m 12,0 km/h (2 Bft) N-NO 30 1 min 0,000 mm 1,5 UV-I 339 W/m 4,1 C 4,1 C 17,7 km/h (3 Bft) 100,00 %
11.04.2016 10:11 8,0 C 78 % 1013,4 hPa 0,0 l/m 12,5 km/h (3 Bft) NO 42 0 min 0,000 mm 1,5 UV-I 308 W/m 4,4 C 3,9 C 16,1 km/h (3 Bft) 100,00 %
11.04.2016 10:12 8,0 C 77 % 1013,4 hPa 0,0 l/m 10,3 km/h (2 Bft) NO 52 1 min 0,000 mm 1,6 UV-I 342 W/m 4,2 C 5,2 C 14,5 km/h (3 Bft) 100,00 %
11.04.2016 10:13 8,0 C 77 % 1013,4 hPa 0,0 l/m 10,8 km/h (2 Bft) N 5 1 min 0,000 mm 1,5 UV-I 359 W/m 4,2 C 4,9 C 14,5 km/h (3 Bft) 100,00 %
11.04.2016 10:14 8,1 C 79 % 1013,4 hPa 0,0 l/m 10,5 km/h (2 Bft) NO 42 0 min 0,000 mm 1,5 UV-I 321 W/m 4,7 C 5,2 C 19,3 km/h (3 Bft) 100,00 %
11.04.2016 10:15 8,1 C 79 % 1013,4 hPa 0,0 l/m 15,7 km/h (3 Bft) NO 46 1 min 0,000 mm 1,5 UV-I 348 W/m 4,7 C 2,5 C 19,3 km/h (3 Bft) 100,00 %
11.04.2016 10:16 8,1 C 78 % 1013,4 hPa 0,0 l/m 13,0 km/h (3 Bft) NO 44 1 min 0,000 mm 1,7 UV-I 410 W/m 4,5 C 3,8 C 22,5 km/h (4 Bft) 92,86 %
11.04.2016 10:17 8,2 C 78 % 1013,3 hPa 0,0 l/m 17,1 km/h (3 Bft) N-NO 32 1 min 0,000 mm 1,9 UV-I 439 W/m 4,6 C 2,1 C 22,5 km/h (4 Bft) 100,00 %
11.04.2016 10:18 8,2 C 77 % 1013,4 hPa 0,0 l/m 14,7 km/h (3 Bft) O-NO 60 1 min 0,000 mm 1,7 UV-I 390 W/m 4,4 C 3,1 C 19,3 km/h (3 Bft) 100,00 %
11.04.2016 10:19 8,2 C 79 % 1013,4 hPa 0,0 l/m 13,3 km/h (3 Bft) NO 42 1 min 0,000 mm 1,6 UV-I 352 W/m 4,8 C 3,8 C 19,3 km/h (3 Bft) 100,00 %
11.04.2016 10:20 8,2 C 77 % 1013,4 hPa 0,0 l/m 11,7 km/h (2 Bft) O-NO 61 1 min 0,000 mm 1,7 UV-I 358 W/m 4,4 C 4,6 C 17,7 km/h (3 Bft) 100,00 %
11.04.2016 10:21 8,2 C 76 % 1013,4 hPa 0,0 l/m 11,8 km/h (2 Bft) O-NO 63 1 min 0,000 mm 1,8 UV-I 364 W/m 4,2 C 4,6 C 16,1 km/h (3 Bft) 100,00 %
11.04.2016 10:22 8,2 C 76 % 1013,4 hPa 0,0 l/m 12,0 km/h (2 Bft) O-NO 57 1 min 0,000 mm 1,9 UV-I 364 W/m 4,2 C 4,4 C 20,9 km/h (4 Bft) 96,15 %
11.04.2016 10:23 8,2 C 77 % 1013,3 hPa 0,0 l/m 18,0 km/h (3 Bft) O-NO 73 1 min 0,000 mm 1,7 UV-I 374 W/m 4,4 C 1,7 C 22,5 km/h (4 Bft) 100,00 %
11.04.2016 10:24 8,2 C 76 % 1013,4 hPa 0,0 l/m 15,6 km/h (3 Bft) O-NO 73 1 min 0,000 mm 1,7 UV-I 381 W/m 4,2 C 2,7 C 20,9 km/h (4 Bft) 100,00 %
11.04.2016 10:25 8,1 C 76 % 1013,3 hPa 0,0 l/m 13,2 km/h (3 Bft) NO 40 1 min 0,000 mm 2,1 UV-I 381 W/m 4,1 C 3,7 C 19,3 km/h (3 Bft) 100,00 %
11.04.2016 10:26 8,2 C 77 % 1013,4 hPa 0,0 l/m 15,2 km/h (3 Bft) NO 41 1 min 0,000 mm 1,8 UV-I 359 W/m 4,4 C 2,9 C 17,7 km/h (3 Bft) 100,00 %
11.04.2016 10:27 8,2 C 76 % 1013,4 hPa 0,0 l/m 9,3 km/h (2 Bft) NO 51 0 min 0,000 mm 1,8 UV-I 332 W/m 4,2 C 6,1 C 14,5 km/h (3 Bft) 100,00 %
11.04.2016 10:28 8,1 C 76 % 1013,4 hPa 0,0 l/m 9,9 km/h (2 Bft) NO 43 1 min 0,000 mm 1,9 UV-I 387 W/m 4,1 C 5,6 C 16,1 km/h (3 Bft) 100,00 %
11.04.2016 10:29 8,1 C 76 % 1013,4 hPa 0,0 l/m 10,1 km/h (2 Bft) NO 38 0 min 0,000 mm 1,5 UV-I 289 W/m 4,1 C 5,4 C 14,5 km/h (3 Bft) 98,62 %
11.04.2016 10:30 8,1 C 77 % 1013,4 hPa 0,0 l/m 10,0 km/h (2 Bft) O-NO 67 0 min 0,000 mm 1,5 UV-I 248 W/m 4,3 C 5,5 C 14,5 km/h (3 Bft) 100,00 %
11.04.2016 10:31 8,1 C 77 % 1013,4 hPa 0,0 l/m 6,6 km/h (2 Bft) NO 45 0 min 0,000 mm 1,5 UV-I 261 W/m 4,3 C 8,0 C 9,7 km/h (2 Bft) 100,00 %
11.04.2016 10:32 8,1 C 77 % 1013,4 hPa 0,0 l/m 12,7 km/h (3 Bft) NO 36 0 min 0,000 mm 1,6 UV-I 301 W/m 4,3 C 4,0 C 17,7 km/h (3 Bft) 100,00 %
11.04.2016 10:33 8,2 C 78 % 1013,4 hPa 0,0 l/m 12,5 km/h (3 Bft) N-NO 32 0 min 0,000 mm 1,8 UV-I 346 W/m 4,6 C 4,2 C 16,1 km/h (3 Bft) 100,00 %
11.04.2016 10:34 8,3 C 78 % 1013,4 hPa 0,0 l/m 9,7 km/h (2 Bft) NO 38 1 min 0,000 mm 1,9 UV-I 398 W/m 4,7 C 5,9 C 14,5 km/h (3 Bft) 100,00 %
11.04.2016 10:35 8,3 C 80 % 1013,4 hPa 0,0 l/m 13,5 km/h (3 Bft) N-NO 32 1 min 0,000 mm 2,2 UV-I 420 W/m 5,1 C 3,8 C 19,3 km/h (3 Bft) 100,00 %
11.04.2016 10:36 8,5 C 78 % 1013,4 hPa 0,0 l/m 9,9 km/h (2 Bft) NO 54 1 min 0,000 mm 2,5 UV-I 436 W/m 4,9 C 6,0 C 16,1 km/h (3 Bft) 100,00 %
11.04.2016 10:37 8,6 C 77 % 1013,4 hPa 0,0 l/m 14,3 km/h (3 Bft) O-NO 69 1 min 0,000 mm 2,5 UV-I 741 W/m 4,8 C 3,8 C 22,5 km/h (4 Bft) 100,00 %
11.04.2016 10:38 8,7 C 75 % 1013,4 hPa 0,0 l/m 20,8 km/h (4 Bft) O-NO 59 1 min 0,000 mm 2,5 UV-I 729 W/m 4,5 C 1,3 C 24,1 km/h (4 Bft) 100,00 %
11.04.2016 10:39 8,7 C 74 % 1013,4 hPa 0,0 l/m 18,6 km/h (3 Bft) O-NO 68 1 min 0,000 mm 2,4 UV-I 729 W/m 4,3 C 2,1 C 22,5 km/h (4 Bft) 100,00 %
11.04.2016 10:40 8,7 C 74 % 1013,4 hPa 0,0 l/m 16,2 km/h (3 Bft) O-NO 76 1 min 0,000 mm 2,4 UV-I 644 W/m 4,3 C 3,0 C 20,9 km/h (4 Bft) 95,83 %
11.04.2016 10:41 8,7 C 75 % 1013,4 hPa 0,0 l/m 14,6 km/h (3 Bft) O 80 1 min 0,000 mm 2,4 UV-I 650 W/m 4,5 C 3,7 C 22,5 km/h (4 Bft) 100,00 %
11.04.2016 10:42 8,7 C 76 % 1013,4 hPa 0,0 l/m 16,2 km/h (3 Bft) O-SO 103 1 min 0,000 mm 2,5 UV-I 731 W/m 4,7 C 3,0 C 20,9 km/h (4 Bft) 93,33 %
11.04.2016 10:43 8,7 C 75 % 1013,4 hPa 0,0 l/m 16,5 km/h (3 Bft) O-NO 63 1 min 0,000 mm 2,6 UV-I 810 W/m 4,5 C 2,9 C 22,5 km/h (4 Bft) 100,00 %
11.04.2016 10:44 8,8 C 75 % 1013,4 hPa 0,0 l/m 18,9 km/h (3 Bft) O-NO 76 1 min 0,000 mm 2,5 UV-I 784 W/m 4,6 C 2,1 C 22,5 km/h (4 Bft) 94,44 %
11.04.2016 10:45 8,8 C 75 % 1013,4 hPa 0,0 l/m 16,7 km/h (3 Bft) O 84 1 min 0,000 mm 2,2 UV-I 784 W/m 4,6 C 3,0 C 22,5 km/h (4 Bft) 100,00 %
11.04.2016 10:46 8,8 C 75 % 1013,4 hPa 0,0 l/m 15,9 km/h (3 Bft) O-NO 71 1 min 0,000 mm 2,0 UV-I 541 W/m 4,6 C 3,3 C 19,3 km/h (3 Bft) 95,65 %
11.04.2016 10:47 8,8 C 74 % 1013,3 hPa 0,0 l/m 13,2 km/h (3 Bft) O 90 0 min 0,000 mm 2,1 UV-I 322 W/m 4,4 C 4,5 C 17,7 km/h (3 Bft) 96,55 %
11.04.2016 10:48 8,8 C 75 % 1013,3 hPa 0,0 l/m 12,4 km/h (3 Bft) NO 49 0 min 0,000 mm 2,5 UV-I 322 W/m 4,6 C 4,9 C 16,1 km/h (3 Bft) 100,00 %
11.04.2016 10:49 8,8 C 75 % 1013,3 hPa 0,0 l/m 9,8 km/h (2 Bft) O-NO 64 0 min 0,000 mm 1,9 UV-I 318 W/m 4,6 C 6,4 C 16,1 km/h (3 Bft) 91,67 %
11.04.2016 10:50 8,8 C 75 % 1013,2 hPa 0,0 l/m 13,2 km/h (3 Bft) NO 40 0 min 0,000 mm 1,8 UV-I 263 W/m 4,6 C 4,5 C 17,7 km/h (3 Bft) 100,00 %
11.04.2016 10:51 8,8 C 74 % 1013,2 hPa 0,0 l/m 11,7 km/h (2 Bft) O 80 0 min 0,000 mm 2,0 UV-I 278 W/m 4,4 C 5,3 C 16,1 km/h (3 Bft) 91,67 %
11.04.2016 10:52 8,7 C 75 % 1013,3 hPa 0,0 l/m 8,6 km/h (2 Bft) N-NO 31 1 min 0,000 mm 2,6 UV-I 453 W/m 4,5 C 7,1 C 14,5 km/h (3 Bft) 100,00 %
11.04.2016 10:53 8,8 C 76 % 1013,2 hPa 0,0 l/m 6,9 km/h (2 Bft) NO 42 1 min 0,000 mm 2,8 UV-I 580 W/m 4,8 C 8,4 C 12,9 km/h (3 Bft) 96,30 %
11.04.2016 10:54 9,1 C 76 % 1013,2 hPa 0,0 l/m 11,5 km/h (2 Bft) NO 56 1 min 0,000 mm 2,8 UV-I 769 W/m 5,1 C 5,7 C 14,5 km/h (3 Bft) 96,15 %
11.04.2016 10:55 9,2 C 76 % 1013,2 hPa 0,0 l/m 14,9 km/h (3 Bft) O-NO 70 1 min 0,000 mm 2,8 UV-I 780 W/m 5,2 C 4,2 C 22,5 km/h (4 Bft) 100,00 %
11.04.2016 10:56 9,3 C 74 % 1013,3 hPa 0,0 l/m 15,8 km/h (3 Bft) O 80 1 min 0,000 mm 2,6 UV-I 780 W/m 4,9 C 3,9 C 24,1 km/h (4 Bft) 96,15 %
11.04.2016 10:57 9,3 C 74 % 1013,2 hPa 0,0 l/m 14,5 km/h (3 Bft) O 82 1 min 0,000 mm 2,5 UV-I 780 W/m 4,9 C 4,5 C 17,7 km/h (3 Bft) 100,00 %
11.04.2016 10:58 9,3 C 73 % 1013,2 hPa 0,0 l/m 10,3 km/h (2 Bft) NO 48 1 min 0,000 mm 2,1 UV-I 533 W/m 4,7 C 6,6 C 14,5 km/h (3 Bft) 95,65 %
11.04.2016 10:59 9,2 C 75 % 1013,3 hPa 0,0 l/m 6,6 km/h (2 Bft) O-NO 57 1 min 0,000 mm 2,1 UV-I 399 W/m 5,0 C 9,1 C 9,7 km/h (2 Bft) 100,00 %
11.04.2016 11:00 9,2 C 74 % 1013,3 hPa 0,0 l/m 12,2 km/h (2 Bft) NO 51 1 min 0,229 mm 2,2 UV-I 399 W/m 4,8 C 5,5 C 20,9 km/h (4 Bft) 96,15 %
11.04.2016 11:01 9,2 C 74 % 1013,3 hPa 0,0 l/m 14,9 km/h (3 Bft) O-NO 68 1 min 0,000 mm 2,2 UV-I 466 W/m 4,8 C 4,2 C 17,7 km/h (3 Bft) 100,00 %
11.04.2016 11:02 9,2 C 74 % 1013,3 hPa 0,0 l/m 13,7 km/h (3 Bft) NO 41 1 min 0,000 mm 2,8 UV-I 722 W/m 4,8 C 4,8 C 17,7 km/h (3 Bft) 96,97 %
11.04.2016 11:03 9,3 C 77 % 1013,3 hPa 0,0 l/m 11,3 km/h (2 Bft) N-NO 28 1 min 0,000 mm 2,6 UV-I 865 W/m 5,5 C 6,1 C 17,7 km/h (3 Bft) 95,83 %
11.04.2016 11:04 9,4 C 77 % 1013,3 hPa 0,0 l/m 10,4 km/h (2 Bft) NO 44 1 min 0,000 mm 2,7 UV-I 865 W/m 5,6 C 6,7 C 14,5 km/h (3 Bft) 100,00 %
11.04.2016 11:05 9,6 C 77 % 1013,3 hPa 0,0 l/m 13,3 km/h (3 Bft) O-NO 58 1 min 0,000 mm 2,9 UV-I 856 W/m 5,8 C 5,4 C 17,7 km/h (3 Bft) 96,15 %
11.04.2016 11:06 9,8 C 76 % 1013,3 hPa 0,0 l/m 10,2 km/h (2 Bft) O-NO 65 1 min 0,000 mm 2,7 UV-I 856 W/m 5,8 C 7,3 C 14,5 km/h (3 Bft) 100,00 %
11.04.2016 11:07 9,8 C 75 % 1013,3 hPa 0,0 l/m 16,2 km/h (3 Bft) O-NO 60 1 min 0,000 mm 2,9 UV-I 856 W/m 5,6 C 4,4 C 22,5 km/h (4 Bft) 96,55 %
11.04.2016 11:08 9,8 C 72 % 1013,3 hPa 0,0 l/m 11,2 km/h (2 Bft) NO 55 1 min 0,000 mm 2,2 UV-I 856 W/m 5,0 C 6,7 C 14,5 km/h (3 Bft) 100,00 %
11.04.2016 11:09 9,7 C 72 % 1013,3 hPa 0,0 l/m 16,5 km/h (3 Bft) NO 46 1 min 0,000 mm 2,6 UV-I 856 W/m 4,9 C 4,2 C 20,9 km/h (4 Bft) 96,55 %
11.04.2016 11:10 9,7 C 72 % 1013,3 hPa 0,0 l/m 17,0 km/h (3 Bft) O-NO 67 1 min 0,000 mm 2,0 UV-I 452 W/m 4,9 C 4,0 C 20,9 km/h (4 Bft) 100,00 %
11.04.2016 11:11 9,5 C 72 % 1013,3 hPa 0,0 l/m 15,2 km/h (3 Bft) O-NO 64 0 min 0,000 mm 1,9 UV-I 274 W/m 4,7 C 4,4 C 20,9 km/h (4 Bft) 100,00 %
11.04.2016 11:12 9,4 C 73 % 1013,3 hPa 0,0 l/m 10,4 km/h (2 Bft) O-NO 60 0 min 0,000 mm 2,0 UV-I 291 W/m 4,8 C 6,7 C 14,5 km/h (3 Bft) 100,00 %
11.04.2016 11:13 9,3 C 73 % 1013,3 hPa 0,0 l/m 9,3 km/h (2 Bft) O-NO 78 0 min 0,000 mm 2,0 UV-I 312 W/m 4,7 C 7,3 C 12,9 km/h (3 Bft) 100,00 %
11.04.2016 11:14 9,3 C 74 % 1013,3 hPa 0,0 l/m 11,6 km/h (2 Bft) O-NO 71 0 min 0,000 mm 2,0 UV-I 325 W/m 4,9 C 5,9 C 17,7 km/h (3 Bft) 96,30 %
11.04.2016 11:15 9,3 C 74 % 1013,3 hPa 0,0 l/m 15,8 km/h (3 Bft) O-NO 74 0 min 0,000 mm 2,4 UV-I 334 W/m 4,9 C 3,9 C 17,7 km/h (3 Bft) 100,00 %
11.04.2016 11:16 9,3 C 75 % 1013,3 hPa 0,0 l/m 11,0 km/h (2 Bft) NO 54 0 min 0,000 mm 3,0 UV-I 334 W/m 5,1 C 6,2 C 16,1 km/h (3 Bft) 100,00 %
11.04.2016 11:17 9,4 C 75 % 1013,3 hPa 0,0 l/m 9,8 km/h (2 Bft) O-NO 66 0 min 0,000 mm 2,6 UV-I 334 W/m 5,2 C 7,1 C 12,9 km/h (3 Bft) 100,00 %
11.04.2016 11:18 9,4 C 74 % 1013,2 hPa 0,0 l/m 12,9 km/h (3 Bft) O 79 1 min 0,000 mm 2,2 UV-I 388 W/m 5,0 C 5,4 C 17,7 km/h (3 Bft) 100,00 %
11.04.2016 11:19 9,4 C 74 % 1013,3 hPa 0,0 l/m 14,1 km/h (3 Bft) O-NO 59 0 min 0,000 mm 2,1 UV-I 335 W/m 5,0 C 4,8 C 20,9 km/h (4 Bft) 100,00 %
11.04.2016 11:20 9,3 C 73 % 1013,3 hPa 0,0 l/m 19,5 km/h (3 Bft) O-NO 57 0 min 0,000 mm 2,2 UV-I 337 W/m 4,7 C 2,6 C 24,1 km/h (4 Bft) 100,00 %
11.04.2016 11:21 9,3 C 72 % 1013,3 hPa 0,0 l/m 14,7 km/h (3 Bft) O-NO 69 0 min 0,000 mm 2,6 UV-I 309 W/m 4,5 C 4,4 C 20,9 km/h (4 Bft) 100,00 %
11.04.2016 11:22 9,3 C 74 % 1013,3 hPa 0,0 l/m 12,8 km/h (3 Bft) O-NO 77 1 min 0,000 mm 3,1 UV-I 672 W/m 4,9 C 5,3 C 17,7 km/h (3 Bft) 100,00 %
11.04.2016 11:23 9,3 C 75 % 1013,2 hPa 0,0 l/m 7,6 km/h (2 Bft) NO 42 1 min 0,000 mm 3,2 UV-I 813 W/m 5,1 C 8,4 C 12,9 km/h (3 Bft) 100,00 %
11.04.2016 11:24 9,5 C 76 % 1013,2 hPa 0,0 l/m 10,3 km/h (2 Bft) O-SO 107 1 min 0,000 mm 3,2 UV-I 841 W/m 5,5 C 6,9 C 14,5 km/h (3 Bft) 100,00 %
11.04.2016 11:25 9,7 C 75 % 1013,2 hPa 0,0 l/m 14,2 km/h (3 Bft) O-NO 62 1 min 0,000 mm 3,2 UV-I 848 W/m 5,5 C 5,1 C 20,9 km/h (4 Bft) 100,00 %
11.04.2016 11:26 9,7 C 74 % 1013,2 hPa 0,0 l/m 16,6 km/h (3 Bft) NO 56 1 min 0,000 mm 3,3 UV-I 856 W/m 5,3 C 4,1 C 20,9 km/h (4 Bft) 100,00 %
11.04.2016 11:27 9,8 C 72 % 1013,3 hPa 0,0 l/m 12,8 km/h (3 Bft) O-NO 60 1 min 0,000 mm 3,2 UV-I 834 W/m 5,0 C 5,9 C 17,7 km/h (3 Bft) 100,00 %
11.04.2016 11:28 9,8 C 73 % 1013,2 hPa 0,0 l/m 17,0 km/h (3 Bft) O-NO 69 1 min 0,000 mm 2,9 UV-I 787 W/m 5,2 C 4,1 C 20,9 km/h (4 Bft) 100,00 %
11.04.2016 11:29 9,8 C 72 % 1013,2 hPa 0,0 l/m 17,2 km/h (3 Bft) O-NO 77 1 min 0,000 mm 2,7 UV-I 777 W/m 5,0 C 4,0 C 22,5 km/h (4 Bft) 100,00 %
11.04.2016 11:30 9,7 C 72 % 1013,2 hPa 0,0 l/m 16,3 km/h (3 Bft) O-NO 58 1 min 0,000 mm 3,3 UV-I 823 W/m 4,9 C 4,2 C 19,3 km/h (3 Bft) 96,15 %
11.04.2016 11:31 9,7 C 73 % 1013,2 hPa 0,0 l/m 17,7 km/h (3 Bft) O-NO 58 1 min 0,000 mm 3,3 UV-I 962 W/m 5,1 C 3,7 C 24,1 km/h (4 Bft) 100,00 %
11.04.2016 11:32 9,8 C 74 % 1013,2 hPa 0,0 l/m 18,2 km/h (3 Bft) O 82 1 min 0,000 mm 3,1 UV-I 962 W/m 5,4 C 3,6 C 20,9 km/h (4 Bft) 100,00 %
11.04.2016 11:33 9,7 C 72 % 1013,2 hPa 0,0 l/m 18,4 km/h (3 Bft) NO 56 1 min 0,000 mm 3,0 UV-I 962 W/m 4,9 C 3,4 C 22,5 km/h (4 Bft) 100,00 %
11.04.2016 11:34 9,7 C 72 % 1013,2 hPa 0,0 l/m 10,5 km/h (2 Bft) O-NO 57 1 min 0,000 mm 2,9 UV-I 962 W/m 4,9 C 7,0 C 17,7 km/h (3 Bft) 100,00 %
11.04.2016 11:35 9,7 C 74 % 1013,2 hPa 0,0 l/m 10,3 km/h (2 Bft) O-NO 65 1 min 0,000 mm 2,3 UV-I 902 W/m 5,3 C 7,1 C 16,1 km/h (3 Bft) 100,00 %
11.04.2016 11:36 9,7 C 73 % 1013,2 hPa 0,0 l/m 11,3 km/h (2 Bft) NO 47 0 min 0,000 mm 2,2 UV-I 359 W/m 5,1 C 6,5 C 20,9 km/h (4 Bft) 100,00 %
11.04.2016 11:37 9,7 C 74 % 1013,2 hPa 0,0 l/m 12,7 km/h (3 Bft) NO 38 0 min 0,000 mm 2,2 UV-I 358 W/m 5,3 C 5,8 C 20,9 km/h (4 Bft) 100,00 %
11.04.2016 11:38 9,7 C 73 % 1013,2 hPa 0,0 l/m 11,3 km/h (2 Bft) NO 50 1 min 0,000 mm 2,3 UV-I 410 W/m 5,1 C 6,5 C 14,5 km/h (3 Bft) 100,00 %
11.04.2016 11:39 9,7 C 76 % 1013,2 hPa 0,0 l/m 11,4 km/h (2 Bft) NO 39 1 min 0,000 mm 2,6 UV-I 438 W/m 5,7 C 6,5 C 17,7 km/h (3 Bft) 100,00 %
11.04.2016 11:40 9,8 C 76 % 1013,2 hPa 0,0 l/m 11,2 km/h (2 Bft) NO 51 1 min 0,000 mm 2,8 UV-I 438 W/m 5,8 C 6,7 C 19,3 km/h (3 Bft) 100,00 %
11.04.2016 11:41 10,0 C 77 % 1013,2 hPa 0,0 l/m 16,2 km/h (3 Bft) O-NO 75 1 min 0,000 mm 2,7 UV-I 500 W/m 6,2 C 4,6 C 19,3 km/h (3 Bft) 100,00 %
11.04.2016 11:42 10,0 C 73 % 1013,1 hPa 0,0 l/m 14,3 km/h (3 Bft) O-NO 71 1 min 0,000 mm 2,6 UV-I 503 W/m 5,4 C 5,4 C 19,3 km/h (3 Bft) 100,00 %
11.04.2016 11:43 9,9 C 73 % 1013,1 hPa 0,0 l/m 10,8 km/h (2 Bft) O-NO 57 1 min 0,000 mm 2,4 UV-I 488 W/m 5,3 C 7,0 C 14,5 km/h (3 Bft) 100,00 %
11.04.2016 11:44 9,9 C 73 % 1013,1 hPa 0,0 l/m 18,6 km/h (3 Bft) NO 46 1 min 0,000 mm 2,9 UV-I 446 W/m 5,3 C 3,6 C 25,7 km/h (4 Bft) 100,00 %
11.04.2016 11:45 9,9 C 73 % 1013,1 hPa 0,0 l/m 21,5 km/h (4 Bft) O-NO 76 1 min 0,000 mm 3,6 UV-I 733 W/m 5,3 C 2,7 C 27,4 km/h (4 Bft) 100,00 %
11.04.2016 11:46 9,9 C 74 % 1013,1 hPa 0,0 l/m 16,8 km/h (3 Bft) O-NO 65 1 min 0,000 mm 3,4 UV-I 909 W/m 5,5 C 4,3 C 25,7 km/h (4 Bft) 100,00 %
11.04.2016 11:47 9,9 C 73 % 1013,1 hPa 0,0 l/m 18,1 km/h (3 Bft) O 90 1 min 0,000 mm 2,7 UV-I 905 W/m 5,3 C 3,8 C 24,1 km/h (4 Bft) 100,00 %
11.04.2016 11:48 9,9 C 73 % 1013,2 hPa 0,0 l/m 15,1 km/h (3 Bft) O 92 1 min 0,000 mm 3,3 UV-I 905 W/m 5,3 C 5,0 C 19,3 km/h (3 Bft) 100,00 %
11.04.2016 11:49 9,9 C 74 % 1013,1 hPa 0,0 l/m 15,4 km/h (3 Bft) O 83 1 min 0,000 mm 2,9 UV-I 905 W/m 5,5 C 4,8 C 19,3 km/h (3 Bft) 100,00 %
11.04.2016 11:50 9,8 C 74 % 1013,1 hPa 0,0 l/m 12,4 km/h (3 Bft) O 94 1 min 0,000 mm 2,2 UV-I 610 W/m 5,4 C 6,1 C 16,1 km/h (3 Bft) 100,00 %
11.04.2016 11:51 9,8 C 72 % 1013,1 hPa 0,0 l/m 14,8 km/h (3 Bft) O 92 0 min 0,000 mm 2,3 UV-I 338 W/m 5,0 C 5,0 C 19,3 km/h (3 Bft) 100,00 %
11.04.2016 11:52 9,7 C 73 % 1013,1 hPa 0,0 l/m 18,1 km/h (3 Bft) O 88 0 min 0,000 mm 3,1 UV-I 352 W/m 5,1 C 3,6 C 24,1 km/h (4 Bft) 100,00 %
11.04.2016 11:53 9,7 C 73 % 1013,1 hPa 0,0 l/m 15,1 km/h (3 Bft) NO 53 1 min 0,000 mm 3,5 UV-I 838 W/m 5,1 C 4,7 C 19,3 km/h (3 Bft) 100,00 %
11.04.2016 11:54 9,8 C 74 % 1013,1 hPa 0,0 l/m 12,7 km/h (3 Bft) O-NO 65 1 min 0,000 mm 2,8 UV-I 838 W/m 5,4 C 5,9 C 19,3 km/h (3 Bft) 100,00 %
11.04.2016 11:55 9,9 C 75 % 1013,1 hPa 0,0 l/m 8,6 km/h (2 Bft) O-NO 58 1 min 0,000 mm 3,5 UV-I 830 W/m 5,7 C 8,3 C 16,1 km/h (3 Bft) 100,00 %
11.04.2016 11:56 10,2 C 77 % 1013,0 hPa 0,0 l/m 8,9 km/h (2 Bft) O 81 1 min 0,000 mm 3,5 UV-I 814 W/m 6,4 C 8,5 C 16,1 km/h (3 Bft) 100,00 %
11.04.2016 11:57 10,3 C 74 % 1013,0 hPa 0,0 l/m 17,5 km/h (3 Bft) O-NO 69 1 min 0,000 mm 3,4 UV-I 758 W/m 5,9 C 4,5 C 24,1 km/h (4 Bft) 92,86 %
11.04.2016 11:58 10,4 C 73 % 1013,0 hPa 0,0 l/m 13,5 km/h (3 Bft) NO 55 1 min 0,000 mm 3,5 UV-I 801 W/m 5,8 C 6,3 C 19,3 km/h (3 Bft) 100,00 %
11.04.2016 11:59 10,4 C 71 % 1013,0 hPa 0,0 l/m 11,8 km/h (2 Bft) NO 55 1 min 0,000 mm 3,5 UV-I 788 W/m 5,4 C 7,1 C 16,1 km/h (3 Bft) 100,00 %
11.04.2016 12:00 10,3 C 71 % 1013,0 hPa 0,0 l/m 10,7 km/h (2 Bft) O-NO 68 1 min 0,330 mm 3,6 UV-I 834 W/m 5,3 C 7,5 C 14,5 km/h (3 Bft) 100,00 %
11.04.2016 12:02 10,4 C 75 % 1012,9 hPa 0,0 l/m 11,2 km/h (2 Bft) O 82 2 min 0,000 mm 3,4 UV-I 747 W/m 6,2 C 7,4 C 19,3 km/h (3 Bft) 100,00 %
11.04.2016 12:03 10,4 C 75 % 1012,9 hPa 0,0 l/m 11,5 km/h (2 Bft) O-NO 75 1 min 0,000 mm 3,7 UV-I 577 W/m 6,2 C 7,2 C 14,5 km/h (3 Bft) 96,15 %
11.04.2016 12:04 10,5 C 75 % 1012,9 hPa 0,0 l/m 13,4 km/h (3 Bft) NO 40 1 min 0,000 mm 3,0 UV-I 782 W/m 6,3 C 6,4 C 20,9 km/h (4 Bft) 100,00 %
11.04.2016 12:05 10,6 C 74 % 1012,9 hPa 0,0 l/m 13,8 km/h (3 Bft) NO 39 1 min 0,000 mm 3,6 UV-I 826 W/m 6,2 C 6,4 C 17,7 km/h (3 Bft) 100,00 %
11.04.2016 12:06 10,5 C 72 % 1012,9 hPa 0,0 l/m 10,0 km/h (2 Bft) O-NO 66 1 min 0,000 mm 3,6 UV-I 826 W/m 5,7 C 8,1 C 17,7 km/h (3 Bft) 100,00 %
11.04.2016 12:07 10,4 C 72 % 1012,9 hPa 0,0 l/m 9,4 km/h (2 Bft) N-NO 26 1 min 0,000 mm 3,2 UV-I 826 W/m 5,6 C 8,4 C 14,5 km/h (3 Bft) 100,00 %
11.04.2016 12:08 10,4 C 75 % 1012,8 hPa 0,0 l/m 9,4 km/h (2 Bft) N-NO 30 1 min 0,000 mm 3,0 UV-I 826 W/m 6,2 C 8,4 C 12,9 km/h (3 Bft) 100,00 %
11.04.2016 12:09 10,5 C 75 % 1012,8 hPa 0,0 l/m 13,9 km/h (3 Bft) O-NO 62 1 min 0,000 mm 3,7 UV-I 812 W/m 6,3 C 6,2 C 19,3 km/h (3 Bft) 100,00 %
11.04.2016 12:10 10,6 C 74 % 1012,8 hPa 0,0 l/m 21,5 km/h (4 Bft) O 85 1 min 0,000 mm 3,7 UV-I 790 W/m 6,2 C 3,6 C 27,4 km/h (4 Bft) 100,00 %
11.04.2016 12:11 10,7 C 73 % 1012,8 hPa 0,0 l/m 12,8 km/h (3 Bft) NO 44 1 min 0,000 mm 3,6 UV-I 773 W/m 6,1 C 6,9 C 16,1 km/h (3 Bft) 100,00 %
11.04.2016 12:12 10,7 C 72 % 1012,8 hPa 0,0 l/m 19,7 km/h (3 Bft) NO 36 1 min 0,000 mm 3,6 UV-I 776 W/m 5,9 C 4,3 C 22,5 km/h (4 Bft) 100,00 %
11.04.2016 12:13 10,7 C 73 % 1012,8 hPa 0,0 l/m 11,3 km/h (2 Bft) NO 35 1 min 0,000 mm 3,6 UV-I 782 W/m 6,1 C 7,7 C 17,7 km/h (3 Bft) 100,00 %
11.04.2016 12:14 10,7 C 74 % 1012,8 hPa 0,0 l/m 12,4 km/h (3 Bft) NO 45 1 min 0,000 mm 3,4 UV-I 789 W/m 6,3 C 7,1 C 17,7 km/h (3 Bft) 94,12 %
11.04.2016 12:15 10,7 C 73 % 1012,7 hPa 0,0 l/m 13,3 km/h (3 Bft) O-NO 74 1 min 0,000 mm 3,4 UV-I 543 W/m 6,1 C 6,7 C 17,7 km/h (3 Bft) 100,00 %
11.04.2016 12:16 10,7 C 72 % 1012,7 hPa 0,0 l/m 15,1 km/h (3 Bft) NO 48 1 min 0,000 mm 3,6 UV-I 477 W/m 5,9 C 5,9 C 19,3 km/h (3 Bft) 100,00 %
11.04.2016 12:17 10,7 C 70 % 1012,7 hPa 0,0 l/m 10,6 km/h (2 Bft) O-NO 67 1 min 0,000 mm 3,7 UV-I 766 W/m 5,5 C 8,0 C 16,1 km/h (3 Bft) 100,00 %
11.04.2016 12:18 10,7 C 72 % 1012,7 hPa 0,0 l/m 11,5 km/h (2 Bft) NO 49 1 min 0,000 mm 3,4 UV-I 766 W/m 5,9 C 7,6 C 16,1 km/h (3 Bft) 96,55 %
11.04.2016 12:19 10,7 C 70 % 1012,7 hPa 0,0 l/m 13,2 km/h (3 Bft) NO 54 1 min 0,000 mm 3,7 UV-I 773 W/m 5,5 C 6,8 C 17,7 km/h (3 Bft) 100,00 %
11.04.2016 12:20 10,7 C 73 % 1012,7 hPa 0,0 l/m 10,6 km/h (2 Bft) O-NO 71 1 min 0,000 mm 3,7 UV-I 777 W/m 6,1 C 8,0 C 16,1 km/h (3 Bft) 100,00 %
11.04.2016 12:21 10,8 C 73 % 1012,6 hPa 0,0 l/m 11,6 km/h (2 Bft) O-NO 69 1 min 0,000 mm 3,7 UV-I 768 W/m 6,2 C 7,6 C 16,1 km/h (3 Bft) 100,00 %
11.04.2016 12:22 10,8 C 72 % 1012,6 hPa 0,0 l/m 17,4 km/h (3 Bft) O-NO 62 1 min 0,000 mm 3,7 UV-I 763 W/m 6,0 C 5,2 C 25,7 km/h (4 Bft) 96,15 %
11.04.2016 12:23 10,9 C 71 % 1012,6 hPa 0,0 l/m 16,7 km/h (3 Bft) O-NO 67 1 min 0,000 mm 3,7 UV-I 762 W/m 5,9 C 5,6 C 20,9 km/h (4 Bft) 100,00 %
11.04.2016 12:24 10,9 C 71 % 1012,5 hPa 0,0 l/m 15,0 km/h (3 Bft) O-NO 61 1 min 0,000 mm 3,7 UV-I 767 W/m 5,9 C 6,2 C 19,3 km/h (3 Bft) 92,59 %
11.04.2016 12:25 10,9 C 70 % 1012,6 hPa 0,0 l/m 13,3 km/h (3 Bft) O 94 1 min 0,000 mm 3,7 UV-I 774 W/m 5,6 C 6,9 C 17,7 km/h (3 Bft) 100,00 %
11.04.2016 12:26 10,8 C 71 % 1012,5 hPa 0,0 l/m 10,3 km/h (2 Bft) NO 41 1 min 0,000 mm 3,7 UV-I 791 W/m 5,8 C 8,3 C 16,1 km/h (3 Bft) 95,83 %
11.04.2016 12:27 10,9 C 70 % 1012,5 hPa 0,0 l/m 8,9 km/h (2 Bft) O-NO 61 1 min 0,000 mm 3,8 UV-I 804 W/m 5,6 C 9,2 C 12,9 km/h (3 Bft) 96,55 %
11.04.2016 12:28 10,9 C 72 % 1012,5 hPa 0,0 l/m 11,9 km/h (2 Bft) NO 46 1 min 0,000 mm 3,8 UV-I 805 W/m 6,1 C 7,6 C 19,3 km/h (3 Bft) 91,67 %
11.04.2016 12:29 11,2 C 76 % 1012,5 hPa 0,0 l/m 17,4 km/h (3 Bft) NO 41 1 min 0,000 mm 3,8 UV-I 818 W/m 7,1 C 5,7 C 24,1 km/h (4 Bft) 100,00 %
11.04.2016 12:30 11,3 C 74 % 1012,5 hPa 0,0 l/m 17,3 km/h (3 Bft) NO 37 1 min 0,000 mm 3,8 UV-I 798 W/m 6,8 C 5,9 C 22,5 km/h (4 Bft) 96,30 %
11.04.2016 12:31 11,2 C 71 % 1012,4 hPa 0,0 l/m 12,2 km/h (2 Bft) N-NO 28 1 min 0,000 mm 3,8 UV-I 784 W/m 6,1 C 7,8 C 17,7 km/h (3 Bft) 96,15 %
11.04.2016 12:32 11,3 C 72 % 1012,5 hPa 0,0 l/m 10,9 km/h (2 Bft) NO 53 1 min 0,000 mm 3,8 UV-I 779 W/m 6,4 C 8,6 C 14,5 km/h (3 Bft) 100,00 %
11.04.2016 12:33 11,3 C 72 % 1012,5 hPa 0,0 l/m 14,1 km/h (3 Bft) O 84 1 min 0,000 mm 3,8 UV-I 757 W/m 6,4 C 7,1 C 19,3 km/h (3 Bft) 94,12 %
11.04.2016 12:34 11,3 C 70 % 1012,5 hPa 0,0 l/m 9,5 km/h (2 Bft) O 87 1 min 0,000 mm 3,7 UV-I 771 W/m 6,0 C 9,3 C 14,5 km/h (3 Bft) 100,00 %
11.04.2016 12:35 11,3 C 70 % 1012,4 hPa 0,0 l/m 13,7 km/h (3 Bft) O-NO 59 1 min 0,000 mm 3,8 UV-I 758 W/m 6,0 C 7,2 C 19,3 km/h (3 Bft) 94,12 %
11.04.2016 12:36 11,3 C 71 % 1012,4 hPa 0,0 l/m 10,0 km/h (2 Bft) N 9 1 min 0,000 mm 3,8 UV-I 766 W/m 6,2 C 9,0 C 16,1 km/h (3 Bft) 100,00 %
11.04.2016 12:37 11,4 C 74 % 1012,4 hPa 0,0 l/m 12,2 km/h (2 Bft) N-NO 17 1 min 0,000 mm 3,8 UV-I 766 W/m 6,9 C 8,0 C 17,7 km/h (3 Bft) 96,15 %
11.04.2016 12:38 11,6 C 73 % 1012,4 hPa 0,0 l/m 12,1 km/h (2 Bft) NO 51 1 min 0,000 mm 3,8 UV-I 778 W/m 6,9 C 8,3 C 19,3 km/h (3 Bft) 100,00 %
11.04.2016 12:39 11,6 C 74 % 1012,4 hPa 0,0 l/m 13,7 km/h (3 Bft) N-NO 24 1 min 0,000 mm 3,8 UV-I 758 W/m 7,1 C 7,6 C 19,3 km/h (3 Bft) 96,15 %
11.04.2016 12:40 11,6 C 74 % 1012,4 hPa 0,0 l/m 16,8 km/h (3 Bft) NO 44 1 min 0,000 mm 3,8 UV-I 812 W/m 7,1 C 6,4 C 25,7 km/h (4 Bft) 95,83 %
11.04.2016 12:41 11,7 C 72 % 1012,3 hPa 0,0 l/m 13,6 km/h (3 Bft) NO 54 1 min 0,000 mm 3,9 UV-I 808 W/m 6,8 C 7,8 C 19,3 km/h (3 Bft) 100,00 %
11.04.2016 12:42 11,7 C 72 % 1012,3 hPa 0,0 l/m 18,9 km/h (3 Bft) NO 41 1 min 0,000 mm 3,9 UV-I 794 W/m 6,8 C 5,8 C 25,7 km/h (4 Bft) 96,15 %
11.04.2016 12:43 11,7 C 73 % 1012,4 hPa 0,0 l/m 13,6 km/h (3 Bft) NO 46 1 min 0,000 mm 3,9 UV-I 787 W/m 7,0 C 7,8 C 19,3 km/h (3 Bft) 100,00 %
11.04.2016 12:44 11,6 C 71 % 1012,3 hPa 0,0 l/m 13,8 km/h (3 Bft) N-NO 12 1 min 0,000 mm 3,8 UV-I 762 W/m 6,5 C 7,6 C 19,3 km/h (3 Bft) 96,15 %
11.04.2016 12:45 11,6 C 72 % 1012,3 hPa 0,0 l/m 13,5 km/h (3 Bft) NO 34 1 min 0,000 mm 3,6 UV-I 837 W/m 6,7 C 7,7 C 17,7 km/h (3 Bft) 100,00 %
11.04.2016 12:46 11,4 C 69 % 1012,3 hPa 0,0 l/m 11,4 km/h (2 Bft) NO 49 1 min 0,000 mm 2,6 UV-I 844 W/m 5,9 C 8,4 C 16,1 km/h (3 Bft) 91,67 %
11.04.2016 12:47 11,3 C 69 % 1012,3 hPa 0,0 l/m 10,7 km/h (2 Bft) NO 38 1 min 0,000 mm 3,0 UV-I 844 W/m 5,8 C 8,7 C 14,5 km/h (3 Bft) 100,00 %
11.04.2016 12:48 11,3 C 70 % 1012,3 hPa 0,0 l/m 16,2 km/h (3 Bft) O-NO 78 1 min 0,000 mm 3,9 UV-I 830 W/m 6,0 C 6,2 C 19,3 km/h (3 Bft) 92,86 %
11.04.2016 12:49 11,3 C 70 % 1012,3 hPa 0,0 l/m 15,6 km/h (3 Bft) O-NO 57 1 min 0,000 mm 3,8 UV-I 778 W/m 6,0 C 6,5 C 17,7 km/h (3 Bft) 100,00 %
11.04.2016 12:50 11,3 C 71 % 1012,3 hPa 0,0 l/m 11,3 km/h (2 Bft) NO 55 1 min 0,000 mm 3,7 UV-I 772 W/m 6,2 C 8,4 C 16,1 km/h (3 Bft) 100,00 %
11.04.2016 12:51 11,2 C 69 % 1012,2 hPa 0,0 l/m 13,0 km/h (3 Bft) O-NO 68 1 min 0,000 mm 3,7 UV-I 744 W/m 5,7 C 7,4 C 17,7 km/h (3 Bft) 100,00 %
11.04.2016 12:52 11,2 C 69 % 1012,3 hPa 0,0 l/m 6,5 km/h (2 Bft) NO 45 1 min 0,000 mm 3,8 UV-I 777 W/m 5,7 C 11,2 C 11,3 km/h (2 Bft) 92,31 %
11.04.2016 12:53 11,2 C 70 % 1012,2 hPa 0,0 l/m 9,4 km/h (2 Bft) O 82 1 min 0,000 mm 3,8 UV-I 773 W/m 5,9 C 9,3 C 14,5 km/h (3 Bft) 95,83 %
11.04.2016 12:54 11,3 C 71 % 1012,2 hPa 0,0 l/m 14,2 km/h (3 Bft) O-NO 59 1 min 0,000 mm 3,8 UV-I 765 W/m 6,2 C 7,0 C 17,7 km/h (3 Bft) 100,00 %
11.04.2016 12:55 11,4 C 70 % 1012,2 hPa 0,0 l/m 17,7 km/h (3 Bft) O 94 1 min 0,000 mm 3,7 UV-I 765 W/m 6,1 C 5,8 C 22,5 km/h (4 Bft) 91,67 %
11.04.2016 12:56 11,5 C 71 % 1012,2 hPa 0,0 l/m 16,9 km/h (3 Bft) O 93 1 min 0,000 mm 3,9 UV-I 783 W/m 6,4 C 6,2 C 19,3 km/h (3 Bft) 100,00 %
11.04.2016 12:57 11,5 C 70 % 1012,2 hPa 0,0 l/m 12,6 km/h (3 Bft) O 82 1 min 0,000 mm 3,9 UV-I 780 W/m 6,2 C 8,0 C 20,9 km/h (4 Bft) 98,65 %
11.04.2016 12:58 11,5 C 69 % 1012,1 hPa 0,0 l/m 16,4 km/h (3 Bft) O-NO 63 1 min 0,000 mm 3,8 UV-I 772 W/m 6,0 C 6,4 C 19,3 km/h (3 Bft) 100,00 %
11.04.2016 12:59 11,4 C 69 % 1012,2 hPa 0,0 l/m 10,1 km/h (2 Bft) N 11 1 min 0,000 mm 3,8 UV-I 767 W/m 5,9 C 9,1 C 14,5 km/h (3 Bft) 100,00 %
11.04.2016 13:00 11,6 C 73 % 1012,1 hPa 0,0 l/m 8,9 km/h (2 Bft) N-NO 33 1 min 0,381 mm 3,8 UV-I 760 W/m 6,9 C 10,0 C 17,7 km/h (3 Bft) 100,00 %
11.04.2016 13:01 11,7 C 71 % 1012,1 hPa 0,0 l/m 7,0 km/h (2 Bft) N-NO 26 1 min 0,000 mm 3,8 UV-I 763 W/m 6,6 C 11,3 C 14,5 km/h (3 Bft) 100,00 %
11.04.2016 13:02 11,7 C 73 % 1012,1 hPa 0,0 l/m 8,6 km/h (2 Bft) N-NO 15 1 min 0,000 mm 3,9 UV-I 767 W/m 7,0 C 10,3 C 16,1 km/h (3 Bft) 96,15 %
11.04.2016 13:03 11,8 C 74 % 1012,1 hPa 0,0 l/m 10,9 km/h (2 Bft) O 84 1 min 0,000 mm 3,8 UV-I 757 W/m 7,3 C 9,1 C 14,5 km/h (3 Bft) 100,00 %
11.04.2016 13:04 11,8 C 70 % 1012,1 hPa 0,0 l/m 11,4 km/h (2 Bft) NO 44 1 min 0,000 mm 3,8 UV-I 765 W/m 6,5 C 8,9 C 17,7 km/h (3 Bft) 100,00 %
11.04.2016 13:05 11,8 C 71 % 1012,0 hPa 0,0 l/m 12,1 km/h (2 Bft) N-NO 15 1 min 0,000 mm 3,8 UV-I 765 W/m 6,7 C 8,5 C 17,7 km/h (3 Bft) 100,00 %
11.04.2016 13:06 11,8 C 73 % 1012,1 hPa 0,0 l/m 10,0 km/h (2 Bft) N-NO 13 1 min 0,000 mm 3,8 UV-I 761 W/m 7,1 C 9,6 C 20,9 km/h (4 Bft) 100,00 %
11.04.2016 13:07 11,9 C 75 % 1012,0 hPa 0,0 l/m 14,0 km/h (3 Bft) NO 50 1 min 0,000 mm 3,9 UV-I 767 W/m 7,6 C 7,8 C 24,1 km/h (4 Bft) 100,00 %
11.04.2016 13:08 12,1 C 71 % 1012,1 hPa 0,0 l/m 16,9 km/h (3 Bft) NO 51 1 min 0,000 mm 3,9 UV-I 766 W/m 7,0 C 7,0 C 24,1 km/h (4 Bft) 100,00 %
11.04.2016 13:09 12,0 C 69 % 1012,1 hPa 0,0 l/m 15,2 km/h (3 Bft) NO 49 1 min 0,000 mm 3,8 UV-I 759 W/m 6,5 C 7,5 C 19,3 km/h (3 Bft) 100,00 %
11.04.2016 13:10 11,9 C 69 % 1012,0 hPa 0,0 l/m 13,1 km/h (3 Bft) O-NO 69 1 min 0,000 mm 3,8 UV-I 765 W/m 6,4 C 8,2 C 22,5 km/h (4 Bft) 100,00 %
11.04.2016 13:11 11,8 C 68 % 1012,0 hPa 0,0 l/m 13,7 km/h (3 Bft) O-NO 76 1 min 0,000 mm 3,9 UV-I 775 W/m 6,1 C 7,8 C 17,7 km/h (3 Bft) 100,00 %
11.04.2016 13:12 11,7 C 68 % 1012,0 hPa 0,0 l/m 10,8 km/h (2 Bft) NO 44 1 min 0,000 mm 3,8 UV-I 774 W/m 6,0 C 9,1 C 16,1 km/h (3 Bft) 100,00 %
11.04.2016 13:13 11,7 C 70 % 1012,0 hPa 0,0 l/m 9,1 km/h (2 Bft) O-NO 65 1 min 0,000 mm 3,9 UV-I 773 W/m 6,4 C 10,0 C 12,9 km/h (3 Bft) 92,86 %
11.04.2016 13:14 11,7 C 70 % 1011,9 hPa 0,0 l/m 10,5 km/h (2 Bft) NO 46 1 min 0,000 mm 3,9 UV-I 778 W/m 6,4 C 9,2 C 16,1 km/h (3 Bft) 100,00 %
11.04.2016 13:15 11,7 C 71 % 1012,0 hPa 0,0 l/m 12,8 km/h (3 Bft) O-NO 76 1 min 0,000 mm 3,9 UV-I 777 W/m 6,6 C 8,1 C 22,5 km/h (4 Bft) 94,12 %
11.04.2016 13:16 11,8 C 72 % 1012,0 hPa 0,0 l/m 13,4 km/h (3 Bft) O-NO 67 1 min 0,000 mm 3,9 UV-I 777 W/m 6,9 C 8,0 C 19,3 km/h (3 Bft) 100,00 %
11.04.2016 13:17 11,9 C 69 % 1011,9 hPa 0,0 l/m 13,6 km/h (3 Bft) O-NO 68 1 min 0,000 mm 3,8 UV-I 774 W/m 6,4 C 8,0 C 17,7 km/h (3 Bft) 100,00 %
11.04.2016 13:18 11,9 C 69 % 1011,9 hPa 0,0 l/m 12,4 km/h (3 Bft) O-NO 57 1 min 0,000 mm 3,8 UV-I 770 W/m 6,4 C 8,5 C 16,1 km/h (3 Bft) 100,00 %
11.04.2016 13:19 11,9 C 71 % 1011,9 hPa 0,0 l/m 15,8 km/h (3 Bft) NO 53 1 min 0,000 mm 3,8 UV-I 772 W/m 6,8 C 7,1 C 20,9 km/h (4 Bft) 100,00 %
11.04.2016 13:20 12,0 C 71 % 1011,9 hPa 0,0 l/m 12,2 km/h (2 Bft) N-NO 31 1 min 0,000 mm 3,8 UV-I 772 W/m 6,9 C 8,7 C 19,3 km/h (3 Bft) 96,15 %
11.04.2016 13:21 12,1 C 73 % 1011,8 hPa 0,0 l/m 13,4 km/h (3 Bft) NO 47 1 min 0,000 mm 3,8 UV-I 773 W/m 7,4 C 8,3 C 17,7 km/h (3 Bft) 100,00 %
11.04.2016 13:22 12,1 C 69 % 1011,8 hPa 0,0 l/m 9,7 km/h (2 Bft) NO 38 1 min 0,000 mm 3,8 UV-I 777 W/m 6,6 C 10,1 C 20,9 km/h (4 Bft) 100,00 %
11.04.2016 13:23 12,2 C 72 % 1011,8 hPa 0,0 l/m 15,3 km/h (3 Bft) NO 56 1 min 0,000 mm 3,8 UV-I 784 W/m 7,3 C 7,7 C 20,9 km/h (4 Bft) 95,65 %
11.04.2016 13:24 12,2 C 70 % 1011,8 hPa 0,0 l/m 15,1 km/h (3 Bft) NO 55 1 min 0,000 mm 3,9 UV-I 785 W/m 6,9 C 7,8 C 19,3 km/h (3 Bft) 100,00 %
11.04.2016 13:25 12,2 C 70 % 1011,8 hPa 0,0 l/m 16,5 km/h (3 Bft) O-NO 59 1 min 0,000 mm 3,8 UV-I 776 W/m 6,9 C 7,3 C 24,1 km/h (4 Bft) 100,00 %
11.04.2016 13:26 12,2 C 69 % 1011,7 hPa 0,0 l/m 21,2 km/h (4 Bft) O-NO 60 1 min 0,000 mm 3,8 UV-I 773 W/m 6,7 C 5,8 C 24,1 km/h (4 Bft) 97,56 %
11.04.2016 13:27 12,2 C 70 % 1011,6 hPa 0,0 l/m 16,0 km/h (3 Bft) O 79 1 min 0,000 mm 3,8 UV-I 772 W/m 6,9 C 7,4 C 24,1 km/h (4 Bft) 100,00 %
11.04.2016 13:28 12,3 C 71 % 1011,6 hPa 0,0 l/m 14,5 km/h (3 Bft) O 86 1 min 0,000 mm 3,8 UV-I 773 W/m 7,2 C 8,1 C 22,5 km/h (4 Bft) 100,00 %
11.04.2016 13:29 12,2 C 69 % 1011,6 hPa 0,0 l/m 13,5 km/h (3 Bft) O 91 1 min 0,000 mm 3,8 UV-I 770 W/m 6,7 C 8,4 C 16,1 km/h (3 Bft) 100,00 %
11.04.2016 13:30 12,2 C 69 % 1011,5 hPa 0,0 l/m 13,9 km/h (3 Bft) O 86 1 min 0,000 mm 3,8 UV-I 775 W/m 6,7 C 8,2 C 20,9 km/h (4 Bft) 100,00 %
11.04.2016 13:31 12,3 C 72 % 1011,5 hPa 0,0 l/m 15,1 km/h (3 Bft) N-NO 15 1 min 0,000 mm 3,8 UV-I 780 W/m 7,4 C 7,9 C 22,5 km/h (4 Bft) 100,00 %
11.04.2016 13:32 12,3 C 73 % 1011,5 hPa 0,0 l/m 15,2 km/h (3 Bft) NO 51 1 min 0,000 mm 3,8 UV-I 774 W/m 7,6 C 7,8 C 20,9 km/h (4 Bft) 100,00 %
11.04.2016 13:33 12,4 C 70 % 1011,5 hPa 0,0 l/m 15,9 km/h (3 Bft) N-NO 22 1 min 0,000 mm 3,8 UV-I 776 W/m 7,1 C 7,7 C 20,9 km/h (4 Bft) 100,00 %
11.04.2016 13:34 12,4 C 69 % 1011,5 hPa 0,0 l/m 13,4 km/h (3 Bft) NO 53 1 min 0,000 mm 3,8 UV-I 777 W/m 6,9 C 8,7 C 17,7 km/h (3 Bft) 100,00 %
11.04.2016 13:35 12,4 C 69 % 1011,5 hPa 0,0 l/m 11,7 km/h (2 Bft) NO 55 1 min 0,000 mm 3,8 UV-I 777 W/m 6,9 C 9,4 C 16,1 km/h (3 Bft) 100,00 %
11.04.2016 13:36 12,6 C 73 % 1011,5 hPa 0,0 l/m 10,3 km/h (2 Bft) O-NO 62 1 min 0,000 mm 3,8 UV-I 772 W/m 7,9 C 10,3 C 16,1 km/h (3 Bft) 100,00 %
11.04.2016 13:37 12,6 C 69 % 1011,5 hPa 0,0 l/m 19,6 km/h (3 Bft) NO 53 1 min 0,000 mm 3,7 UV-I 760 W/m 7,1 C 6,8 C 25,7 km/h (4 Bft) 100,00 %
11.04.2016 13:38 12,5 C 67 % 1011,5 hPa 0,0 l/m 16,3 km/h (3 Bft) O-NO 75 1 min 0,000 mm 3,8 UV-I 766 W/m 6,5 C 7,7 C 24,1 km/h (4 Bft) 92,86 %
11.04.2016 13:39 12,4 C 68 % 1011,5 hPa 0,0 l/m 16,3 km/h (3 Bft) NO 34 1 min 0,000 mm 3,8 UV-I 767 W/m 6,7 C 7,6 C 19,3 km/h (3 Bft) 100,00 %
11.04.2016 13:40 12,3 C 70 % 1011,5 hPa 0,0 l/m 16,1 km/h (3 Bft) NO 41 1 min 0,000 mm 3,7 UV-I 759 W/m 7,0 C 7,5 C 20,9 km/h (4 Bft) 100,00 %
11.04.2016 13:41 12,3 C 69 % 1011,5 hPa 0,0 l/m 11,8 km/h (2 Bft) NO 44 1 min 0,000 mm 3,7 UV-I 754 W/m 6,8 C 9,3 C 16,1 km/h (3 Bft) 96,15 %
11.04.2016 13:42 12,3 C 71 % 1011,6 hPa 0,0 l/m 14,9 km/h (3 Bft) O 85 1 min 0,000 mm 3,7 UV-I 766 W/m 7,2 C 8,0 C 22,5 km/h (4 Bft) 100,00 %
11.04.2016 13:43 12,4 C 70 % 1011,5 hPa 0,0 l/m 16,4 km/h (3 Bft) NO 46 1 min 0,000 mm 3,7 UV-I 767 W/m 7,1 C 7,5 C 22,5 km/h (4 Bft) 95,83 %
11.04.2016 13:44 12,4 C 69 % 1011,6 hPa 0,0 l/m 17,6 km/h (3 Bft) O-NO 57 1 min 0,000 mm 3,7 UV-I 773 W/m 6,9 C 7,1 C 22,5 km/h (4 Bft) 100,00 %
11.04.2016 13:45 12,5 C 72 % 1011,5 hPa 0,0 l/m 19,4 km/h (3 Bft) O-NO 62 1 min 0,000 mm 3,7 UV-I 775 W/m 7,6 C 6,7 C 22,5 km/h (4 Bft) 96,15 %
11.04.2016 13:46 12,6 C 69 % 1011,5 hPa 0,0 l/m 16,3 km/h (3 Bft) O-NO 62 1 min 0,000 mm 3,7 UV-I 767 W/m 7,1 C 7,8 C 22,5 km/h (4 Bft) 100,00 %
11.04.2016 13:47 12,5 C 67 % 1011,5 hPa 0,0 l/m 15,1 km/h (3 Bft) NO 46 1 min 0,000 mm 3,7 UV-I 763 W/m 6,5 C 8,1 C 20,9 km/h (4 Bft) 100,00 %
11.04.2016 13:48 12,4 C 68 % 1011,5 hPa 0,0 l/m 13,1 km/h (3 Bft) NO 55 1 min 0,000 mm 3,7 UV-I 769 W/m 6,7 C 8,8 C 19,3 km/h (3 Bft) 100,00 %
11.04.2016 13:49 12,4 C 69 % 1011,5 hPa 0,0 l/m 17,5 km/h (3 Bft) O-NO 71 1 min 0,000 mm 3,7 UV-I 767 W/m 6,9 C 7,2 C 20,9 km/h (4 Bft) 100,00 %
11.04.2016 13:50 12,4 C 68 % 1011,5 hPa 0,0 l/m 14,0 km/h (3 Bft) O-NO 65 1 min 0,000 mm 3,7 UV-I 769 W/m 6,7 C 8,4 C 17,7 km/h (3 Bft) 100,00 %
11.04.2016 13:51 12,4 C 68 % 1011,5 hPa 0,0 l/m 11,2 km/h (2 Bft) O-NO 73 1 min 0,000 mm 3,7 UV-I 764 W/m 6,7 C 9,6 C 17,7 km/h (3 Bft) 96,15 %
11.04.2016 13:52 12,4 C 69 % 1011,5 hPa 0,0 l/m 9,0 km/h (2 Bft) O-NO 71 1 min 0,000 mm 3,7 UV-I 761 W/m 6,9 C 10,8 C 12,9 km/h (3 Bft) 100,00 %
11.04.2016 13:53 12,4 C 68 % 1011,5 hPa 0,0 l/m 10,9 km/h (2 Bft) NO 42 1 min 0,000 mm 3,7 UV-I 757 W/m 6,7 C 9,8 C 16,1 km/h (3 Bft) 100,00 %
11.04.2016 13:54 12,4 C 68 % 1011,5 hPa 0,0 l/m 13,0 km/h (3 Bft) N-NO 27 1 min 0,000 mm 3,6 UV-I 748 W/m 6,7 C 8,8 C 17,7 km/h (3 Bft) 95,83 %
11.04.2016 13:55 12,6 C 72 % 1011,4 hPa 0,0 l/m 12,1 km/h (2 Bft) NO 40 1 min 0,000 mm 3,6 UV-I 750 W/m 7,7 C 9,5 C 16,1 km/h (3 Bft) 100,00 %
11.04.2016 13:56 12,7 C 74 % 1011,4 hPa 0,0 l/m 17,4 km/h (3 Bft) NO 44 1 min 0,000 mm 3,7 UV-I 757 W/m 8,2 C 7,6 C 20,9 km/h (4 Bft) 100,00 %
11.04.2016 13:57 12,8 C 70 % 1011,4 hPa 0,0 l/m 13,1 km/h (3 Bft) NO 56 1 min 0,000 mm 3,6 UV-I 753 W/m 7,5 C 9,3 C 16,1 km/h (3 Bft) 100,00 %
11.04.2016 13:58 12,7 C 69 % 1011,4 hPa 0,0 l/m 6,8 km/h (2 Bft) NO 51 1 min 0,000 mm 3,7 UV-I 759 W/m 7,2 C 12,5 C 9,7 km/h (2 Bft) 100,00 %
11.04.2016 13:59 12,7 C 69 % 1011,4 hPa 0,0 l/m 5,6 km/h (1 Bft) NO 41 1 min 0,000 mm 3,7 UV-I 761 W/m 7,2 C 12,7 C 8,0 km/h (2 Bft) 100,00 %
11.04.2016 14:00 12,8 C 69 % 1011,4 hPa 0,0 l/m 7,1 km/h (2 Bft) O 80 1 min 0,000 mm 3,6 UV-I 759 W/m 7,3 C 12,4 C 9,7 km/h (2 Bft) 100,00 %
11.04.2016 14:01 12,9 C 71 % 1011,4 hPa 0,0 l/m 8,5 km/h (2 Bft) NO 49 1 min 0,406 mm 3,6 UV-I 752 W/m 7,8 C 11,6 C 16,1 km/h (3 Bft) 91,30 %
11.04.2016 14:02 13,1 C 70 % 1011,4 hPa 0,0 l/m 12,3 km/h (3 Bft) NO 38 1 min 0,000 mm 3,6 UV-I 748 W/m 7,8 C 10,0 C 19,3 km/h (3 Bft) 100,00 %
11.04.2016 14:03 13,2 C 72 % 1011,4 hPa 0,0 l/m 16,7 km/h (3 Bft) O-NO 67 1 min 0,000 mm 3,6 UV-I 746 W/m 8,3 C 8,4 C 20,9 km/h (4 Bft) 96,55 %
11.04.2016 14:04 13,2 C 67 % 1011,4 hPa 0,0 l/m 15,5 km/h (3 Bft) O-NO 67 1 min 0,000 mm 3,6 UV-I 750 W/m 7,2 C 8,8 C 20,9 km/h (4 Bft) 92,59 %
11.04.2016 14:05 13,1 C 69 % 1011,4 hPa 0,0 l/m 13,2 km/h (3 Bft) O 79 1 min 0,000 mm 3,6 UV-I 746 W/m 7,5 C 9,6 C 17,7 km/h (3 Bft) 100,00 %
11.04.2016 14:06 13,1 C 68 % 1011,4 hPa 0,0 l/m 8,9 km/h (2 Bft) O 92 1 min 0,000 mm 3,6 UV-I 745 W/m 7,3 C 11,6 C 12,9 km/h (3 Bft) 100,00 %
11.04.2016 14:07 13,0 C 68 % 1011,4 hPa 0,0 l/m 11,6 km/h (2 Bft) NO 36 1 min 0,000 mm 3,5 UV-I 744 W/m 7,2 C 10,1 C 16,1 km/h (3 Bft) 96,30 %
11.04.2016 14:08 13,1 C 72 % 1011,4 hPa 0,0 l/m 16,2 km/h (3 Bft) N-NO 15 1 min 0,000 mm 3,5 UV-I 732 W/m 8,2 C 8,5 C 19,3 km/h (3 Bft) 96,15 %
11.04.2016 14:09 13,2 C 73 % 1011,4 hPa 0,0 l/m 7,6 km/h (2 Bft) N-NO 32 1 min 0,000 mm 3,5 UV-I 747 W/m 8,5 C 12,5 C 14,5 km/h (3 Bft) 100,00 %
11.04.2016 14:10 13,3 C 73 % 1011,3 hPa 0,0 l/m 9,4 km/h (2 Bft) NO 39 1 min 0,000 mm 3,6 UV-I 752 W/m 8,6 C 11,5 C 16,1 km/h (3 Bft) 95,65 %
11.04.2016 14:11 13,3 C 71 % 1011,3 hPa 0,0 l/m 13,0 km/h (3 Bft) NO 40 1 min 0,000 mm 3,5 UV-I 750 W/m 8,2 C 9,9 C 19,3 km/h (3 Bft) 100,00 %
11.04.2016 14:12 13,3 C 68 % 1011,3 hPa 0,0 l/m 11,0 km/h (2 Bft) O-NO 60 1 min 0,000 mm 3,5 UV-I 741 W/m 7,5 C 10,8 C 16,1 km/h (3 Bft) 92,86 %
11.04.2016 14:13 13,3 C 68 % 1011,3 hPa 0,0 l/m 8,0 km/h (2 Bft) NO 49 1 min 0,000 mm 3,6 UV-I 749 W/m 7,5 C 12,3 C 12,9 km/h (3 Bft) 100,00 %
11.04.2016 14:14 13,3 C 68 % 1011,2 hPa 0,0 l/m 10,4 km/h (2 Bft) N-NO 30 1 min 0,000 mm 3,5 UV-I 747 W/m 7,5 C 11,0 C 14,5 km/h (3 Bft) 96,15 %
11.04.2016 14:15 13,5 C 70 % 1011,2 hPa 0,0 l/m 9,4 km/h (2 Bft) N-NO 23 1 min 0,000 mm 3,5 UV-I 746 W/m 8,1 C 11,8 C 14,5 km/h (3 Bft) 100,00 %
11.04.2016 14:16 13,6 C 72 % 1011,2 hPa 0,0 l/m 12,6 km/h (3 Bft) O-NO 75 1 min 0,000 mm 3,5 UV-I 745 W/m 8,6 C 10,4 C 16,1 km/h (3 Bft) 96,43 %
11.04.2016 14:17 13,7 C 72 % 1011,2 hPa 0,0 l/m 10,1 km/h (2 Bft) N 9 1 min 0,000 mm 3,5 UV-I 742 W/m 8,7 C 11,6 C 14,5 km/h (3 Bft) 96,30 %
11.04.2016 14:18 13,7 C 71 % 1011,2 hPa 0,0 l/m 12,0 km/h (2 Bft) N-NO 13 1 min 0,000 mm 3,5 UV-I 740 W/m 8,5 C 10,8 C 19,3 km/h (3 Bft) 100,00 %
11.04.2016 14:19 13,8 C 71 % 1011,2 hPa 0,0 l/m 17,4 km/h (3 Bft) NO 46 1 min 0,000 mm 3,5 UV-I 740 W/m 8,6 C 8,9 C 25,7 km/h (4 Bft) 96,15 %
11.04.2016 14:20 13,8 C 71 % 1011,2 hPa 0,0 l/m 19,8 km/h (3 Bft) O-NO 63 1 min 0,000 mm 3,5 UV-I 741 W/m 8,6 C 8,3 C 24,1 km/h (4 Bft) 100,00 %
11.04.2016 14:21 13,8 C 68 % 1011,2 hPa 0,0 l/m 12,1 km/h (2 Bft) NO 38 1 min 0,000 mm 3,4 UV-I 739 W/m 8,0 C 10,8 C 19,3 km/h (3 Bft) 96,15 %
11.04.2016 14:22 13,7 C 66 % 1011,2 hPa 0,0 l/m 9,9 km/h (2 Bft) NO 39 1 min 0,000 mm 3,5 UV-I 741 W/m 7,5 C 11,7 C 16,1 km/h (3 Bft) 100,00 %
11.04.2016 14:23 13,7 C 69 % 1011,2 hPa 0,0 l/m 11,0 km/h (2 Bft) NO 42 1 min 0,000 mm 3,4 UV-I 736 W/m 8,1 C 11,2 C 17,7 km/h (3 Bft) 95,65 %
11.04.2016 14:24 13,6 C 72 % 1011,2 hPa 0,0 l/m 6,0 km/h (2 Bft) O-NO 63 1 min 0,000 mm 3,4 UV-I 723 W/m 8,6 C 13,6 C 12,9 km/h (3 Bft) 100,00 %
11.04.2016 14:25 13,6 C 69 % 1011,2 hPa 0,0 l/m 13,3 km/h (3 Bft) O-NO 65 1 min 0,000 mm 3,4 UV-I 730 W/m 8,0 C 10,1 C 20,9 km/h (4 Bft) 96,15 %
11.04.2016 14:26 13,6 C 66 % 1011,2 hPa 0,0 l/m 17,4 km/h (3 Bft) O-NO 69 1 min 0,000 mm 3,4 UV-I 723 W/m 7,4 C 8,7 C 24,1 km/h (4 Bft) 93,33 %
11.04.2016 14:27 13,6 C 66 % 1011,2 hPa 0,0 l/m 17,3 km/h (3 Bft) O-NO 72 1 min 0,000 mm 3,3 UV-I 720 W/m 7,4 C 8,7 C 20,9 km/h (4 Bft) 100,00 %
11.04.2016 14:28 13,4 C 65 % 1011,2 hPa 0,0 l/m 14,7 km/h (3 Bft) O-NO 62 1 min 0,000 mm 3,4 UV-I 726 W/m 7,0 C 9,4 C 24,1 km/h (4 Bft) 96,67 %
11.04.2016 14:29 13,3 C 66 % 1011,1 hPa 0,0 l/m 15,5 km/h (3 Bft) NO 44 1 min 0,000 mm 3,4 UV-I 727 W/m 7,1 C 9,0 C 20,9 km/h (4 Bft) 100,00 %
11.04.2016 14:30 13,3 C 68 % 1011,1 hPa 0,0 l/m 13,4 km/h (3 Bft) N-NO 33 1 min 0,000 mm 3,4 UV-I 730 W/m 7,5 C 9,7 C 17,7 km/h (3 Bft) 100,00 %
11.04.2016 14:31 13,5 C 71 % 1011,1 hPa 0,0 l/m 13,5 km/h (3 Bft) O-NO 63 1 min 0,000 mm 3,3 UV-I 726 W/m 8,3 C 9,9 C 17,7 km/h (3 Bft) 96,15 %
11.04.2016 14:32 13,6 C 68 % 1011,0 hPa 0,0 l/m 14,4 km/h (3 Bft) NO 40 1 min 0,000 mm 3,3 UV-I 722 W/m 7,8 C 9,7 C 17,7 km/h (3 Bft) 100,00 %
11.04.2016 14:33 13,6 C 70 % 1011,1 hPa 0,0 l/m 11,1 km/h (2 Bft) N-NO 19 1 min 0,000 mm 3,3 UV-I 724 W/m 8,2 C 11,1 C 17,7 km/h (3 Bft) 100,00 %
11.04.2016 14:34 13,5 C 69 % 1011,0 hPa 0,0 l/m 11,1 km/h (2 Bft) NO 42 1 min 0,000 mm 3,3 UV-I 723 W/m 7,9 C 10,9 C 14,5 km/h (3 Bft) 100,00 %
11.04.2016 14:35 13,6 C 71 % 1011,0 hPa 0,0 l/m 11,5 km/h (2 Bft) O 79 1 min 0,000 mm 3,3 UV-I 723 W/m 8,4 C 10,9 C 19,3 km/h (3 Bft) 100,00 %
11.04.2016 14:36 13,7 C 70 % 1010,9 hPa 0,0 l/m 14,9 km/h (3 Bft) NO 46 1 min 0,000 mm 3,3 UV-I 720 W/m 8,3 C 9,7 C 20,9 km/h (4 Bft) 95,83 %
11.04.2016 14:37 13,8 C 71 % 1010,9 hPa 0,0 l/m 13,4 km/h (3 Bft) N-NO 24 1 min 0,000 mm 3,3 UV-I 721 W/m 8,6 C 10,3 C 19,3 km/h (3 Bft) 100,00 %
11.04.2016 14:38 13,8 C 70 % 1010,8 hPa 0,0 l/m 16,5 km/h (3 Bft) NO 38 1 min 0,000 mm 3,3 UV-I 718 W/m 8,4 C 9,2 C 22,5 km/h (4 Bft) 100,00 %
11.04.2016 14:39 13,8 C 70 % 1010,9 hPa 0,0 l/m 14,1 km/h (3 Bft) NO 34 1 min 0,000 mm 3,2 UV-I 713 W/m 8,4 C 10,1 C 17,7 km/h (3 Bft) 100,00 %
11.04.2016 14:40 13,8 C 65 % 1010,9 hPa 0,0 l/m 14,6 km/h (3 Bft) O-NO 57 1 min 0,000 mm 3,2 UV-I 713 W/m 7,3 C 9,9 C 19,3 km/h (3 Bft) 95,83 %
11.04.2016 14:41 13,7 C 66 % 1010,8 hPa 0,0 l/m 8,6 km/h (2 Bft) NO 49 1 min 0,000 mm 3,2 UV-I 711 W/m 7,5 C 12,4 C 12,9 km/h (3 Bft) 100,00 %
11.04.2016 14:42 13,7 C 66 % 1010,9 hPa 0,0 l/m 12,3 km/h (3 Bft) NO 42 1 min 0,000 mm 3,2 UV-I 708 W/m 7,5 C 10,6 C 17,7 km/h (3 Bft) 100,00 %
11.04.2016 14:43 13,6 C 64 % 1010,9 hPa 0,0 l/m 11,5 km/h (2 Bft) NO 55 1 min 0,000 mm 3,2 UV-I 708 W/m 6,9 C 10,9 C 14,5 km/h (3 Bft) 100,00 %
11.04.2016 14:44 13,6 C 66 % 1010,9 hPa 0,0 l/m 10,6 km/h (2 Bft) O-NO 73 1 min 0,000 mm 3,2 UV-I 708 W/m 7,4 C 11,3 C 14,5 km/h (3 Bft) 100,00 %
11.04.2016 14:45 13,6 C 69 % 1010,9 hPa 0,0 l/m 17,0 km/h (3 Bft) O-NO 77 1 min 0,000 mm 3,1 UV-I 708 W/m 8,0 C 8,8 C 24,1 km/h (4 Bft) 100,00 %
11.04.2016 14:46 13,6 C 66 % 1010,9 hPa 0,0 l/m 12,5 km/h (3 Bft) O-NO 71 1 min 0,000 mm 3,1 UV-I 709 W/m 7,4 C 10,5 C 16,1 km/h (3 Bft) 100,00 %
11.04.2016 14:47 13,6 C 65 % 1010,8 hPa 0,0 l/m 9,4 km/h (2 Bft) N-NO 25 1 min 0,000 mm 3,1 UV-I 708 W/m 7,1 C 11,9 C 16,1 km/h (3 Bft) 100,00 %
11.04.2016 14:48 13,5 C 68 % 1010,9 hPa 0,0 l/m 5,9 km/h (2 Bft) N-NO 25 1 min 0,000 mm 3,1 UV-I 701 W/m 7,7 C 13,5 C 8,0 km/h (2 Bft) 100,00 %
11.04.2016 14:49 13,6 C 67 % 1010,8 hPa 0,0 l/m 7,4 km/h (2 Bft) O-NO 72 1 min 0,000 mm 3,1 UV-I 705 W/m 7,6 C 13,0 C 11,3 km/h (2 Bft) 100,00 %
11.04.2016 14:50 13,7 C 66 % 1010,8 hPa 0,0 l/m 13,5 km/h (3 Bft) O-NO 60 1 min 0,000 mm 3,1 UV-I 703 W/m 7,5 C 10,2 C 19,3 km/h (3 Bft) 100,00 %
11.04.2016 14:51 13,7 C 67 % 1010,7 hPa 0,0 l/m 14,1 km/h (3 Bft) O-NO 57 1 min 0,000 mm 3,1 UV-I 702 W/m 7,7 C 9,9 C 19,3 km/h (3 Bft) 100,00 %
11.04.2016 14:52 13,8 C 66 % 1010,7 hPa 0,0 l/m 16,1 km/h (3 Bft) O-NO 66 1 min 0,000 mm 3,1 UV-I 699 W/m 7,6 C 9,4 C 19,3 km/h (3 Bft) 96,15 %
11.04.2016 14:53 13,8 C 67 % 1010,7 hPa 0,0 l/m 15,2 km/h (3 Bft) NO 52 1 min 0,000 mm 3,1 UV-I 698 W/m 7,8 C 9,7 C 25,7 km/h (4 Bft) 100,00 %
11.04.2016 14:54 13,8 C 67 % 1010,7 hPa 0,0 l/m 16,6 km/h (3 Bft) NO 36 1 min 0,000 mm 3,1 UV-I 700 W/m 7,8 C 9,2 C 20,9 km/h (4 Bft) 100,00 %
11.04.2016 14:55 13,9 C 68 % 1010,7 hPa 0,0 l/m 12,7 km/h (3 Bft) O-NO 59 1 min 0,000 mm 3,0 UV-I 697 W/m 8,1 C 10,7 C 17,7 km/h (3 Bft) 100,00 %
11.04.2016 14:56 14,0 C 68 % 1010,7 hPa 0,0 l/m 8,0 km/h (2 Bft) NO 51 1 min 0,000 mm 3,0 UV-I 695 W/m 8,2 C 13,1 C 12,9 km/h (3 Bft) 100,00 %
11.04.2016 14:57 14,0 C 65 % 1010,7 hPa 0,0 l/m 11,0 km/h (2 Bft) O-NO 72 1 min 0,000 mm 3,0 UV-I 696 W/m 7,5 C 11,6 C 19,3 km/h (3 Bft) 100,00 %
11.04.2016 14:58 14,0 C 63 % 1010,7 hPa 0,0 l/m 16,0 km/h (3 Bft) NO 42 1 min 0,000 mm 3,0 UV-I 696 W/m 7,1 C 9,6 C 20,9 km/h (4 Bft) 100,00 %
11.04.2016 14:59 13,9 C 65 % 1010,7 hPa 0,0 l/m 15,0 km/h (3 Bft) NO 46 1 min 0,000 mm 3,0 UV-I 692 W/m 7,4 C 9,9 C 19,3 km/h (3 Bft) 96,15 %
11.04.2016 15:00 14,0 C 70 % 1010,6 hPa 0,0 l/m 17,5 km/h (3 Bft) NO 49 1 min 0,407 mm 3,0 UV-I 689 W/m 8,6 C 9,2 C 20,9 km/h (4 Bft) 100,00 %
11.04.2016 15:01 14,1 C 68 % 1010,7 hPa 0,0 l/m 16,1 km/h (3 Bft) NO 34 1 min 0,000 mm 3,0 UV-I 688 W/m 8,3 C 9,7 C 19,3 km/h (3 Bft) 100,00 %
11.04.2016 15:02 14,1 C 68 % 1010,6 hPa 0,0 l/m 14,2 km/h (3 Bft) N-NO 24 1 min 0,000 mm 2,9 UV-I 688 W/m 8,3 C 10,4 C 19,3 km/h (3 Bft) 100,00 %
11.04.2016 15:03 14,1 C 68 % 1010,6 hPa 0,0 l/m 13,6 km/h (3 Bft) O-NO 60 1 min 0,000 mm 2,9 UV-I 686 W/m 8,3 C 10,6 C 20,9 km/h (4 Bft) 100,00 %
11.04.2016 15:04 14,1 C 65 % 1010,7 hPa 0,0 l/m 17,7 km/h (3 Bft) O 83 1 min 0,000 mm 2,9 UV-I 684 W/m 7,6 C 9,2 C 24,1 km/h (4 Bft) 100,00 %
11.04.2016 15:05 14,0 C 65 % 1010,6 hPa 0,0 l/m 16,6 km/h (3 Bft) O-NO 65 1 min 0,000 mm 2,9 UV-I 684 W/m 7,5 C 9,4 C 22,5 km/h (4 Bft) 100,00 %
11.04.2016 15:06 13,9 C 64 % 1010,6 hPa 0,0 l/m 13,7 km/h (3 Bft) NO 38 1 min 0,000 mm 2,9 UV-I 682 W/m 7,2 C 10,3 C 19,3 km/h (3 Bft) 100,00 %
11.04.2016 15:07 13,9 C 66 % 1010,6 hPa 0,0 l/m 11,1 km/h (2 Bft) N-NO 19 1 min 0,000 mm 2,9 UV-I 678 W/m 7,7 C 11,4 C 16,1 km/h (3 Bft) 92,31 %
11.04.2016 15:08 13,9 C 69 % 1010,5 hPa 0,0 l/m 12,9 km/h (3 Bft) O-NO 76 1 min 0,000 mm 2,9 UV-I 677 W/m 8,3 C 10,6 C 19,3 km/h (3 Bft) 96,30 %
11.04.2016 15:09 14,0 C 65 % 1010,6 hPa 0,0 l/m 11,2 km/h (2 Bft) O-NO 65 1 min 0,000 mm 2,8 UV-I 676 W/m 7,5 C 11,5 C 14,5 km/h (3 Bft) 100,00 %
11.04.2016 15:10 14,1 C 65 % 1010,5 hPa 0,0 l/m 15,7 km/h (3 Bft) N-NO 16 1 min 0,000 mm 2,8 UV-I 672 W/m 7,6 C 9,9 C 19,3 km/h (3 Bft) 100,00 %
11.04.2016 15:11 14,2 C 67 % 1010,5 hPa 0,0 l/m 14,6 km/h (3 Bft) O-NO 65 1 min 0,000 mm 2,8 UV-I 670 W/m 8,2 C 10,4 C 20,9 km/h (4 Bft) 91,30 %
11.04.2016 15:12 14,2 C 66 % 1010,5 hPa 0,0 l/m 10,8 km/h (2 Bft) O-NO 75 1 min 0,000 mm 2,8 UV-I 671 W/m 7,9 C 11,9 C 16,1 km/h (3 Bft) 100,00 %
11.04.2016 15:13 14,2 C 65 % 1010,5 hPa 0,0 l/m 14,9 km/h (3 Bft) O-NO 73 1 min 0,000 mm 2,8 UV-I 670 W/m 7,7 C 10,3 C 20,9 km/h (4 Bft) 100,00 %
11.04.2016 15:14 14,1 C 64 % 1010,4 hPa 0,0 l/m 17,5 km/h (3 Bft) NO 44 1 min 0,000 mm 2,8 UV-I 668 W/m 7,4 C 9,3 C 24,1 km/h (4 Bft) 100,00 %
11.04.2016 15:15 14,1 C 65 % 1010,5 hPa 0,0 l/m 16,3 km/h (3 Bft) N-NO 32 1 min 0,000 mm 2,7 UV-I 664 W/m 7,6 C 9,7 C 19,3 km/h (3 Bft) 100,00 %
11.04.2016 15:16 14,1 C 67 % 1010,5 hPa 0,0 l/m 11,9 km/h (2 Bft) O-NO 62 1 min 0,000 mm 2,7 UV-I 663 W/m 8,1 C 11,3 C 16,1 km/h (3 Bft) 96,30 %
11.04.2016 15:17 14,2 C 64 % 1010,4 hPa 0,0 l/m 6,9 km/h (2 Bft) O-NO 63 1 min 0,000 mm 2,7 UV-I 663 W/m 7,5 C 13,9 C 9,7 km/h (2 Bft) 100,00 %
11.04.2016 15:18 14,2 C 66 % 1010,4 hPa 0,0 l/m 13,7 km/h (3 Bft) NO 42 1 min 0,000 mm 2,7 UV-I 660 W/m 7,9 C 10,7 C 20,9 km/h (4 Bft) 100,00 %
11.04.2016 15:19 14,2 C 64 % 1010,4 hPa 0,0 l/m 15,9 km/h (3 Bft) NO 45 1 min 0,000 mm 2,7 UV-I 657 W/m 7,5 C 9,9 C 20,9 km/h (4 Bft) 96,15 %
11.04.2016 15:20 14,3 C 66 % 1010,4 hPa 0,0 l/m 10,0 km/h (2 Bft) NO 50 1 min 0,000 mm 2,7 UV-I 655 W/m 8,0 C 12,3 C 19,3 km/h (3 Bft) 100,00 %
11.04.2016 15:21 14,4 C 68 % 1010,5 hPa 0,0 l/m 12,1 km/h (2 Bft) NO 34 1 min 0,000 mm 2,6 UV-I 651 W/m 8,6 C 11,5 C 19,3 km/h (3 Bft) 100,00 %
11.04.2016 15:22 14,5 C 65 % 1010,4 hPa 0,0 l/m 12,1 km/h (2 Bft) NO 42 1 min 0,000 mm 2,6 UV-I 651 W/m 8,0 C 11,7 C 19,3 km/h (3 Bft) 100,00 %
11.04.2016 15:23 14,4 C 63 % 1010,5 hPa 0,0 l/m 7,0 km/h (2 Bft) O-NO 76 1 min 0,000 mm 2,6 UV-I 649 W/m 7,4 C 14,1 C 11,3 km/h (2 Bft) 100,00 %
11.04.2016 15:24 14,4 C 64 % 1010,5 hPa 0,0 l/m 12,6 km/h (3 Bft) O-NO 74 1 min 0,000 mm 2,6 UV-I 647 W/m 7,7 C 11,3 C 20,9 km/h (4 Bft) 100,00 %
11.04.2016 15:25 14,3 C 64 % 1010,4 hPa 0,0 l/m 13,9 km/h (3 Bft) O-NO 60 1 min 0,000 mm 2,6 UV-I 647 W/m 7,6 C 10,7 C 19,3 km/h (3 Bft) 100,00 %
11.04.2016 15:26 14,3 C 64 % 1010,4 hPa 0,0 l/m 16,7 km/h (3 Bft) O-NO 57 1 min 0,000 mm 2,6 UV-I 643 W/m 7,6 C 9,8 C 22,5 km/h (4 Bft) 96,15 %
11.04.2016 15:27 14,3 C 64 % 1010,4 hPa 0,0 l/m 15,6 km/h (3 Bft) O-NO 72 1 min 0,000 mm 2,5 UV-I 636 W/m 7,6 C 10,1 C 20,9 km/h (4 Bft) 100,00 %
11.04.2016 15:28 14,2 C 64 % 1010,4 hPa 0,0 l/m 15,6 km/h (3 Bft) O-NO 68 1 min 0,000 mm 2,5 UV-I 626 W/m 7,5 C 10,0 C 19,3 km/h (3 Bft) 100,00 %
11.04.2016 15:29 14,2 C 63 % 1010,4 hPa 0,0 l/m 10,2 km/h (2 Bft) NO 40 1 min 0,000 mm 2,5 UV-I 637 W/m 7,3 C 12,1 C 14,5 km/h (3 Bft) 100,00 %
11.04.2016 15:30 14,2 C 65 % 1010,4 hPa 0,0 l/m 9,7 km/h (2 Bft) O-NO 57 1 min 0,000 mm 2,5 UV-I 635 W/m 7,7 C 12,4 C 16,1 km/h (3 Bft) 100,00 %
11.04.2016 15:31 14,2 C 64 % 1010,4 hPa 0,0 l/m 16,9 km/h (3 Bft) O-NO 59 1 min 0,000 mm 2,5 UV-I 632 W/m 7,5 C 9,6 C 19,3 km/h (3 Bft) 100,00 %
11.04.2016 15:32 14,3 C 65 % 1010,4 hPa 0,0 l/m 14,4 km/h (3 Bft) O-NO 57 1 min 0,000 mm 2,5 UV-I 632 W/m 7,8 C 10,6 C 19,3 km/h (3 Bft) 100,00 %
11.04.2016 15:33 14,2 C 65 % 1010,3 hPa 0,0 l/m 9,9 km/h (2 Bft) NO 50 1 min 0,000 mm 2,4 UV-I 630 W/m 7,7 C 12,3 C 16,1 km/h (3 Bft) 95,83 %
11.04.2016 15:34 14,3 C 64 % 1010,3 hPa 0,0 l/m 12,7 km/h (3 Bft) O-NO 65 1 min 0,000 mm 2,4 UV-I 629 W/m 7,6 C 11,2 C 17,7 km/h (3 Bft) 100,00 %
11.04.2016 15:35 14,3 C 63 % 1010,3 hPa 0,0 l/m 14,6 km/h (3 Bft) NO 44 1 min 0,000 mm 2,4 UV-I 626 W/m 7,4 C 10,5 C 19,3 km/h (3 Bft) 100,00 %
11.04.2016 15:36 14,3 C 65 % 1010,3 hPa 0,0 l/m 10,1 km/h (2 Bft) NO 46 1 min 0,000 mm 2,4 UV-I 624 W/m 7,8 C 12,3 C 14,5 km/h (3 Bft) 100,00 %
11.04.2016 15:37 14,4 C 66 % 1010,3 hPa 0,0 l/m 14,3 km/h (3 Bft) NO 55 1 min 0,000 mm 2,4 UV-I 622 W/m 8,1 C 10,7 C 20,9 km/h (4 Bft) 100,00 %
11.04.2016 15:38 14,5 C 64 % 1010,3 hPa 0,0 l/m 16,1 km/h (3 Bft) O-NO 59 1 min 0,000 mm 2,4 UV-I 622 W/m 7,8 C 10,2 C 20,9 km/h (4 Bft) 100,00 %
11.04.2016 15:39 14,6 C 65 % 1010,3 hPa 0,0 l/m 8,4 km/h (2 Bft) O-NO 59 1 min 0,000 mm 2,3 UV-I 622 W/m 8,1 C 13,5 C 12,9 km/h (3 Bft) 100,00 %
11.04.2016 15:40 14,6 C 66 % 1010,3 hPa 0,0 l/m 8,6 km/h (2 Bft) NO 44 1 min 0,000 mm 2,3 UV-I 620 W/m 8,3 C 13,4 C 20,9 km/h (4 Bft) 100,00 %
11.04.2016 15:41 14,6 C 67 % 1010,3 hPa 0,0 l/m 17,7 km/h (3 Bft) O-NO 57 1 min 0,000 mm 2,3 UV-I 617 W/m 8,5 C 9,9 C 24,1 km/h (4 Bft) 100,00 %
11.04.2016 15:42 14,6 C 63 % 1010,3 hPa 0,0 l/m 13,4 km/h (3 Bft) NO 36 1 min 0,000 mm 2,3 UV-I 612 W/m 7,6 C 11,3 C 20,9 km/h (4 Bft) 100,00 %
11.04.2016 15:43 14,6 C 65 % 1010,3 hPa 0,0 l/m 6,6 km/h (2 Bft) N-NO 13 1 min 0,000 mm 2,3 UV-I 608 W/m 8,1 C 14,5 C 12,9 km/h (3 Bft) 100,00 %
11.04.2016 15:44 14,5 C 66 % 1010,2 hPa 0,0 l/m 6,0 km/h (2 Bft) NO 38 1 min 0,000 mm 2,3 UV-I 606 W/m 8,2 C 14,5 C 9,7 km/h (2 Bft) 100,00 %
11.04.2016 15:45 14,6 C 63 % 1010,2 hPa 0,0 l/m 11,3 km/h (2 Bft) O-NO 69 1 min 0,000 mm 2,2 UV-I 600 W/m 7,6 C 12,1 C 19,3 km/h (3 Bft) 96,55 %
11.04.2016 15:46 14,6 C 63 % 1010,2 hPa 0,0 l/m 12,1 km/h (2 Bft) NO 44 1 min 0,000 mm 2,2 UV-I 603 W/m 7,6 C 11,8 C 17,7 km/h (3 Bft) 100,00 %
11.04.2016 15:47 14,7 C 64 % 1010,2 hPa 0,0 l/m 12,9 km/h (3 Bft) NO 42 1 min 0,000 mm 2,2 UV-I 603 W/m 8,0 C 11,6 C 19,3 km/h (3 Bft) 96,15 %
11.04.2016 15:48 14,7 C 64 % 1010,2 hPa 0,0 l/m 14,9 km/h (3 Bft) NO 44 1 min 0,000 mm 2,2 UV-I 600 W/m 8,0 C 10,9 C 17,7 km/h (3 Bft) 100,00 %
11.04.2016 15:49 14,8 C 64 % 1010,2 hPa 0,0 l/m 8,9 km/h (2 Bft) O-NO 65 1 min 0,000 mm 2,2 UV-I 596 W/m 8,1 C 13,4 C 12,9 km/h (3 Bft) 95,65 %
11.04.2016 15:50 14,7 C 61 % 1010,1 hPa 0,0 l/m 10,6 km/h (2 Bft) O-NO 66 1 min 0,000 mm 2,2 UV-I 596 W/m 7,3 C 12,5 C 14,5 km/h (3 Bft) 95,83 %
11.04.2016 15:51 14,7 C 62 % 1010,1 hPa 0,0 l/m 14,8 km/h (3 Bft) O-NO 65 1 min 0,000 mm 2,2 UV-I 595 W/m 7,5 C 10,9 C 20,9 km/h (4 Bft) 100,00 %
11.04.2016 15:52 14,6 C 62 % 1010,1 hPa 0,0 l/m 13,9 km/h (3 Bft) NO 49 1 min 0,000 mm 2,2 UV-I 596 W/m 7,4 C 11,1 C 19,3 km/h (3 Bft) 96,30 %
11.04.2016 15:53 14,6 C 62 % 1010,1 hPa 0,0 l/m 11,4 km/h (2 Bft) NO 52 1 min 0,000 mm 2,2 UV-I 592 W/m 7,4 C 12,1 C 14,5 km/h (3 Bft) 100,00 %
11.04.2016 15:54 14,6 C 62 % 1010,0 hPa 0,0 l/m 12,0 km/h (2 Bft) NO 49 1 min 0,000 mm 2,1 UV-I 590 W/m 7,4 C 11,8 C 17,7 km/h (3 Bft) 96,67 %
11.04.2016 15:55 14,6 C 63 % 1010,0 hPa 0,0 l/m 16,9 km/h (3 Bft) NO 42 1 min 0,000 mm 2,1 UV-I 585 W/m 7,6 C 10,1 C 22,5 km/h (4 Bft) 100,00 %
11.04.2016 15:56 14,7 C 63 % 1010,0 hPa 0,0 l/m 13,8 km/h (3 Bft) O-NO 64 1 min 0,000 mm 2,1 UV-I 584 W/m 7,7 C 11,2 C 17,7 km/h (3 Bft) 96,97 %
11.04.2016 15:57 14,7 C 63 % 1010,0 hPa 0,0 l/m 16,3 km/h (3 Bft) O-NO 59 1 min 0,000 mm 2,1 UV-I 585 W/m 7,7 C 10,4 C 22,5 km/h (4 Bft) 95,65 %
11.04.2016 15:58 14,7 C 62 % 1010,0 hPa 0,0 l/m 13,5 km/h (3 Bft) NO 45 1 min 0,000 mm 2,1 UV-I 581 W/m 7,5 C 11,4 C 17,7 km/h (3 Bft) 100,00 %
11.04.2016 15:59 14,7 C 61 % 1010,0 hPa 0,0 l/m 17,6 km/h (3 Bft) O-NO 60 1 min 0,000 mm 2,0 UV-I 577 W/m 7,3 C 10,0 C 22,5 km/h (4 Bft) 96,15 %
11.04.2016 16:00 14,7 C 61 % 1010,0 hPa 0,0 l/m 13,9 km/h (3 Bft) O-NO 76 1 min 0,381 mm 2,0 UV-I 577 W/m 7,3 C 11,2 C 19,3 km/h (3 Bft) 100,00 %
11.04.2016 16:01 14,7 C 62 % 1009,9 hPa 0,0 l/m 16,5 km/h (3 Bft) O-NO 64 1 min 0,000 mm 2,0 UV-I 574 W/m 7,5 C 10,3 C 19,3 km/h (3 Bft) 91,67 %
11.04.2016 16:02 14,7 C 61 % 1009,9 hPa 0,0 l/m 13,7 km/h (3 Bft) NO 46 1 min 0,000 mm 2,0 UV-I 571 W/m 7,3 C 11,3 C 19,3 km/h (3 Bft) 96,15 %
11.04.2016 16:03 14,7 C 62 % 1009,9 hPa 0,0 l/m 11,7 km/h (2 Bft) O-NO 75 1 min 0,000 mm 2,0 UV-I 569 W/m 7,5 C 12,0 C 17,7 km/h (3 Bft) 95,83 %
11.04.2016 16:04 14,7 C 63 % 1009,9 hPa 0,0 l/m 11,4 km/h (2 Bft) O-NO 62 1 min 0,000 mm 2,0 UV-I 565 W/m 7,7 C 12,2 C 20,9 km/h (4 Bft) 96,55 %
11.04.2016 16:05 14,7 C 61 % 1010,0 hPa 0,0 l/m 12,8 km/h (3 Bft) O-NO 69 1 min 0,000 mm 1,9 UV-I 563 W/m 7,3 C 11,6 C 17,7 km/h (3 Bft) 91,67 %
11.04.2016 16:06 14,7 C 62 % 1009,9 hPa 0,0 l/m 11,4 km/h (2 Bft) NO 49 1 min 0,000 mm 1,9 UV-I 561 W/m 7,5 C 12,2 C 14,5 km/h (3 Bft) 100,00 %
11.04.2016 16:07 14,7 C 62 % 1009,9 hPa 0,0 l/m 11,5 km/h (2 Bft) O 88 1 min 0,000 mm 1,9 UV-I 560 W/m 7,5 C 12,1 C 14,5 km/h (3 Bft) 96,30 %
11.04.2016 16:08 14,7 C 61 % 1009,9 hPa 0,0 l/m 12,0 km/h (2 Bft) O-NO 72 1 min 0,000 mm 1,9 UV-I 556 W/m 7,3 C 11,9 C 17,7 km/h (3 Bft) 96,15 %
11.04.2016 16:09 14,7 C 59 % 1010,0 hPa 0,0 l/m 13,3 km/h (3 Bft) NO 44 1 min 0,000 mm 1,9 UV-I 554 W/m 6,8 C 11,4 C 17,7 km/h (3 Bft) 100,00 %
11.04.2016 16:10 14,7 C 59 % 1009,9 hPa 0,0 l/m 11,6 km/h (2 Bft) O-NO 78 1 min 0,000 mm 1,9 UV-I 550 W/m 6,8 C 12,1 C 19,3 km/h (3 Bft) 96,15 %
11.04.2016 16:11 14,6 C 61 % 1009,9 hPa 0,0 l/m 12,3 km/h (3 Bft) O 90 1 min 0,000 mm 1,8 UV-I 547 W/m 7,2 C 11,7 C 16,1 km/h (3 Bft) 100,00 %
11.04.2016 16:12 14,7 C 61 % 1009,9 hPa 0,0 l/m 13,6 km/h (3 Bft) O-NO 58 1 min 0,000 mm 1,8 UV-I 546 W/m 7,3 C 11,3 C 19,3 km/h (3 Bft) 96,15 %
11.04.2016 16:13 14,7 C 62 % 1009,9 hPa 0,0 l/m 12,8 km/h (3 Bft) NO 42 1 min 0,000 mm 1,8 UV-I 544 W/m 7,5 C 11,6 C 16,1 km/h (3 Bft) 100,00 %
11.04.2016 16:14 14,8 C 63 % 1009,8 hPa 0,0 l/m 12,8 km/h (3 Bft) N-NO 32 1 min 0,000 mm 1,8 UV-I 543 W/m 7,8 C 11,7 C 16,1 km/h (3 Bft) 96,15 %
11.04.2016 16:15 14,8 C 60 % 1009,8 hPa 0,0 l/m 19,1 km/h (3 Bft) NO 53 1 min 0,000 mm 1,8 UV-I 543 W/m 7,1 C 9,7 C 24,1 km/h (4 Bft) 96,30 %
11.04.2016 16:16 14,8 C 59 % 1009,8 hPa 0,0 l/m 17,1 km/h (3 Bft) NO 43 1 min 0,000 mm 1,8 UV-I 538 W/m 6,9 C 10,3 C 22,5 km/h (4 Bft) 100,00 %
11.04.2016 16:17 14,8 C 59 % 1009,8 hPa 0,0 l/m 16,2 km/h (3 Bft) NO 54 1 min 0,000 mm 1,8 UV-I 536 W/m 6,9 C 10,6 C 20,9 km/h (4 Bft) 100,00 %
11.04.2016 16:18 14,8 C 59 % 1009,8 hPa 0,0 l/m 15,8 km/h (3 Bft) NO 40 1 min 0,000 mm 1,7 UV-I 533 W/m 6,9 C 10,7 C 20,9 km/h (4 Bft) 100,00 %
11.04.2016 16:19 14,8 C 59 % 1009,8 hPa 0,0 l/m 15,0 km/h (3 Bft) O 94 1 min 0,000 mm 1,7 UV-I 529 W/m 6,9 C 10,9 C 19,3 km/h (3 Bft) 96,15 %
11.04.2016 16:20 14,8 C 60 % 1009,8 hPa 0,0 l/m 14,4 km/h (3 Bft) NO 38 1 min 0,000 mm 1,7 UV-I 526 W/m 7,1 C 11,2 C 17,7 km/h (3 Bft) 100,00 %
11.04.2016 16:21 14,8 C 59 % 1009,8 hPa 0,0 l/m 10,8 km/h (2 Bft) NO 55 1 min 0,000 mm 1,7 UV-I 524 W/m 6,9 C 12,5 C 16,1 km/h (3 Bft) 100,00 %
11.04.2016 16:22 14,8 C 59 % 1009,7 hPa 0,0 l/m 14,6 km/h (3 Bft) NO 43 1 min 0,000 mm 1,7 UV-I 524 W/m 6,9 C 11,1 C 20,9 km/h (4 Bft) 100,00 %
11.04.2016 16:23 14,8 C 61 % 1009,7 hPa 0,0 l/m 15,2 km/h (3 Bft) N-NO 28 1 min 0,000 mm 1,7 UV-I 520 W/m 7,4 C 10,9 C 19,3 km/h (3 Bft) 100,00 %
11.04.2016 16:24 14,8 C 61 % 1009,8 hPa 0,0 l/m 15,2 km/h (3 Bft) O-NO 61 1 min 0,000 mm 1,6 UV-I 520 W/m 7,4 C 10,9 C 20,9 km/h (4 Bft) 100,00 %
11.04.2016 16:25 14,8 C 61 % 1009,8 hPa 0,0 l/m 14,0 km/h (3 Bft) NO 36 1 min 0,000 mm 1,6 UV-I 520 W/m 7,4 C 11,3 C 19,3 km/h (3 Bft) 96,15 %
11.04.2016 16:26 14,9 C 61 % 1009,7 hPa 0,0 l/m 12,0 km/h (2 Bft) NO 51 1 min 0,000 mm 1,6 UV-I 516 W/m 7,4 C 12,2 C 16,1 km/h (3 Bft) 100,00 %
11.04.2016 16:27 14,9 C 59 % 1009,8 hPa 0,0 l/m 7,9 km/h (2 Bft) NO 42 1 min 0,000 mm 1,6 UV-I 510 W/m 7,0 C 14,1 C 11,3 km/h (2 Bft) 100,00 %
11.04.2016 16:28 14,9 C 60 % 1009,7 hPa 0,0 l/m 9,5 km/h (2 Bft) N-NO 31 1 min 0,000 mm 1,6 UV-I 508 W/m 7,2 C 13,2 C 12,9 km/h (3 Bft) 93,33 %
11.04.2016 16:29 15,0 C 62 % 1009,7 hPa 0,0 l/m 7,6 km/h (2 Bft) N-NO 31 1 min 0,000 mm 1,6 UV-I 505 W/m 7,8 C 14,3 C 9,7 km/h (2 Bft) 100,00 %
11.04.2016 16:30 15,1 C 61 % 1009,8 hPa 0,0 l/m 8,5 km/h (2 Bft) N-NO 28 1 min 0,000 mm 1,6 UV-I 504 W/m 7,6 C 13,9 C 12,9 km/h (3 Bft) 100,00 %
11.04.2016 16:31 15,2 C 61 % 1009,8 hPa 0,0 l/m 16,0 km/h (3 Bft) NO 46 1 min 0,000 mm 1,5 UV-I 502 W/m 7,7 C 11,1 C 19,3 km/h (3 Bft) 100,00 %
11.04.2016 16:32 15,1 C 57 % 1009,7 hPa 0,0 l/m 10,9 km/h (2 Bft) O-NO 59 1 min 0,000 mm 1,5 UV-I 499 W/m 6,6 C 12,8 C 16,1 km/h (3 Bft) 100,00 %
11.04.2016 16:33 15,1 C 58 % 1009,7 hPa 0,0 l/m 11,5 km/h (2 Bft) NO 35 1 min 0,000 mm 1,5 UV-I 495 W/m 6,9 C 12,6 C 16,1 km/h (3 Bft) 100,00 %
11.04.2016 16:34 15,1 C 60 % 1009,7 hPa 0,0 l/m 11,1 km/h (2 Bft) NO 42 1 min 0,000 mm 1,5 UV-I 492 W/m 7,4 C 12,8 C 16,1 km/h (3 Bft) 95,83 %
11.04.2016 16:35 15,1 C 61 % 1009,7 hPa 0,0 l/m 7,8 km/h (2 Bft) NO 38 1 min 0,000 mm 1,5 UV-I 492 W/m 7,6 C 14,3 C 11,3 km/h (2 Bft) 100,00 %
11.04.2016 16:36 15,2 C 61 % 1009,7 hPa 0,0 l/m 11,0 km/h (2 Bft) NO 55 1 min 0,000 mm 1,5 UV-I 492 W/m 7,7 C 12,9 C 16,1 km/h (3 Bft) 96,30 %
11.04.2016 16:37 15,2 C 58 % 1009,7 hPa 0,0 l/m 15,4 km/h (3 Bft) O-NO 67 1 min 0,000 mm 1,5 UV-I 489 W/m 7,0 C 11,3 C 19,3 km/h (3 Bft) 100,00 %
11.04.2016 16:38 15,2 C 57 % 1009,7 hPa 0,0 l/m 13,5 km/h (3 Bft) NO 46 1 min 0,000 mm 1,4 UV-I 486 W/m 6,7 C 11,9 C 19,3 km/h (3 Bft) 100,00 %
11.04.2016 16:39 15,2 C 59 % 1009,7 hPa 0,0 l/m 9,6 km/h (2 Bft) NO 52 1 min 0,000 mm 1,4 UV-I 483 W/m 7,2 C 13,5 C 12,9 km/h (3 Bft) 100,00 %
11.04.2016 16:40 15,2 C 60 % 1009,7 hPa 0,0 l/m 10,3 km/h (2 Bft) N-NO 17 1 min 0,000 mm 1,4 UV-I 478 W/m 7,5 C 13,2 C 14,5 km/h (3 Bft) 100,00 %
11.04.2016 16:41 15,3 C 59 % 1009,8 hPa 0,0 l/m 13,0 km/h (3 Bft) O-NO 78 1 min 0,000 mm 1,4 UV-I 477 W/m 7,3 C 12,2 C 19,3 km/h (3 Bft) 100,00 %
11.04.2016 16:42 15,3 C 59 % 1009,7 hPa 0,0 l/m 12,6 km/h (3 Bft) NO 41 1 min 0,000 mm 1,4 UV-I 474 W/m 7,3 C 12,4 C 17,7 km/h (3 Bft) 100,00 %
11.04.2016 16:43 15,3 C 59 % 1009,7 hPa 0,0 l/m 9,9 km/h (2 Bft) O-NO 58 1 min 0,000 mm 1,4 UV-I 471 W/m 7,3 C 13,5 C 16,1 km/h (3 Bft) 100,00 %
11.04.2016 16:44 15,3 C 59 % 1009,8 hPa 0,0 l/m 14,3 km/h (3 Bft) O 82 1 min 0,000 mm 1,3 UV-I 468 W/m 7,3 C 11,8 C 17,7 km/h (3 Bft) 96,15 %
11.04.2016 16:45 15,3 C 57 % 1009,7 hPa 0,0 l/m 15,0 km/h (3 Bft) O-NO 65 1 min 0,000 mm 1,3 UV-I 466 W/m 6,8 C 11,6 C 20,9 km/h (4 Bft) 100,00 %
11.04.2016 16:46 15,3 C 55 % 1009,8 hPa 0,0 l/m 15,8 km/h (3 Bft) O-NO 74 1 min 0,000 mm 1,3 UV-I 462 W/m 6,3 C 11,3 C 19,3 km/h (3 Bft) 95,65 %
11.04.2016 16:47 15,3 C 56 % 1009,8 hPa 0,0 l/m 13,5 km/h (3 Bft) NO 54 1 min 0,000 mm 1,3 UV-I 457 W/m 6,6 C 12,1 C 16,1 km/h (3 Bft) 100,00 %
11.04.2016 16:48 15,2 C 56 % 1009,8 hPa 0,0 l/m 10,8 km/h (2 Bft) NO 46 1 min 0,000 mm 1,3 UV-I 447 W/m 6,5 C 13,0 C 16,1 km/h (3 Bft) 100,00 %
11.04.2016 16:49 15,2 C 58 % 1009,8 hPa 0,0 l/m 6,8 km/h (2 Bft) O-NO 67 1 min 0,000 mm 1,3 UV-I 440 W/m 7,0 C 15,0 C 9,7 km/h (2 Bft) 100,00 %
11.04.2016 16:50 15,1 C 57 % 1009,8 hPa 0,0 l/m 8,7 km/h (2 Bft) O-NO 76 1 min 0,000 mm 1,3 UV-I 452 W/m 6,6 C 13,8 C 12,9 km/h (3 Bft) 100,00 %
11.04.2016 16:51 15,1 C 56 % 1009,7 hPa 0,0 l/m 10,5 km/h (2 Bft) O-NO 70 1 min 0,000 mm 1,3 UV-I 450 W/m 6,4 C 13,0 C 14,5 km/h (3 Bft) 100,00 %
11.04.2016 16:52 15,1 C 58 % 1009,7 hPa 0,0 l/m 17,5 km/h (3 Bft) O-NO 59 1 min 0,000 mm 1,2 UV-I 446 W/m 6,9 C 10,5 C 22,5 km/h (4 Bft) 100,00 %
11.04.2016 16:53 15,1 C 57 % 1009,7 hPa 0,0 l/m 15,7 km/h (3 Bft) NO 51 1 min 0,000 mm 1,2 UV-I 445 W/m 6,6 C 11,1 C 19,3 km/h (3 Bft) 100,00 %
11.04.2016 16:54 15,1 C 57 % 1009,7 hPa 0,0 l/m 13,6 km/h (3 Bft) O-NO 60 1 min 0,000 mm 1,2 UV-I 442 W/m 6,6 C 11,8 C 17,7 km/h (3 Bft) 96,55 %
11.04.2016 16:55 15,1 C 58 % 1009,7 hPa 0,0 l/m 11,6 km/h (2 Bft) O-NO 60 1 min 0,000 mm 1,2 UV-I 438 W/m 6,9 C 12,5 C 16,1 km/h (3 Bft) 100,00 %
11.04.2016 16:56 15,1 C 57 % 1009,7 hPa 0,0 l/m 13,0 km/h (3 Bft) NO 42 1 min 0,000 mm 1,2 UV-I 437 W/m 6,6 C 12,0 C 17,7 km/h (3 Bft) 100,00 %
11.04.2016 16:57 15,1 C 58 % 1009,7 hPa 0,0 l/m 17,7 km/h (3 Bft) NO 44 1 min 0,000 mm 1,2 UV-I 434 W/m 6,9 C 10,5 C 25,7 km/h (4 Bft) 100,00 %
11.04.2016 16:58 15,1 C 57 % 1009,7 hPa 0,0 l/m 16,4 km/h (3 Bft) O-NO 76 1 min 0,000 mm 1,2 UV-I 430 W/m 6,6 C 10,9 C 20,9 km/h (4 Bft) 100,00 %
11.04.2016 16:59 15,2 C 58 % 1009,7 hPa 0,0 l/m 14,4 km/h (3 Bft) O-NO 57 1 min 0,000 mm 1,1 UV-I 427 W/m 7,0 C 11,6 C 19,3 km/h (3 Bft) 100,00 %
11.04.2016 17:00 15,2 C 59 % 1009,7 hPa 0,0 l/m 15,0 km/h (3 Bft) O-NO 77 1 min 0,000 mm 1,1 UV-I 426 W/m 7,2 C 11,4 C 22,5 km/h (4 Bft) 100,00 %
11.04.2016 17:01 15,2 C 58 % 1009,7 hPa 0,0 l/m 13,9 km/h (3 Bft) NO 56 1 min 0,330 mm 1,1 UV-I 424 W/m 7,0 C 11,8 C 17,7 km/h (3 Bft) 100,00 %
11.04.2016 17:02 15,1 C 59 % 1009,6 hPa 0,0 l/m 11,3 km/h (2 Bft) NO 44 1 min 0,000 mm 1,1 UV-I 421 W/m 7,1 C 12,7 C 17,7 km/h (3 Bft) 100,00 %
11.04.2016 17:03 15,1 C 59 % 1009,7 hPa 0,0 l/m 15,3 km/h (3 Bft) O-NO 60 1 min 0,000 mm 1,1 UV-I 418 W/m 7,1 C 11,2 C 22,5 km/h (4 Bft) 100,00 %
11.04.2016 17:04 15,1 C 58 % 1009,7 hPa 0,0 l/m 11,3 km/h (2 Bft) O-NO 64 1 min 0,000 mm 1,1 UV-I 414 W/m 6,9 C 12,7 C 16,1 km/h (3 Bft) 100,00 %
11.04.2016 17:05 15,2 C 59 % 1009,6 hPa 0,0 l/m 13,2 km/h (3 Bft) O-NO 59 1 min 0,000 mm 1,1 UV-I 410 W/m 7,2 C 12,1 C 17,7 km/h (3 Bft) 100,00 %
11.04.2016 17:06 15,2 C 58 % 1009,7 hPa 0,0 l/m 10,1 km/h (2 Bft) O 84 1 min 0,000 mm 1,0 UV-I 407 W/m 7,0 C 13,3 C 12,9 km/h (3 Bft) 93,33 %
11.04.2016 17:07 15,2 C 58 % 1009,6 hPa 0,0 l/m 11,1 km/h (2 Bft) NO 51 1 min 0,000 mm 1,0 UV-I 405 W/m 7,0 C 12,9 C 14,5 km/h (3 Bft) 100,00 %
11.04.2016 17:08 15,2 C 58 % 1009,6 hPa 0,0 l/m 14,6 km/h (3 Bft) NO 40 1 min 0,000 mm 1,0 UV-I 402 W/m 7,0 C 11,6 C 22,5 km/h (4 Bft) 100,00 %
11.04.2016 17:09 15,2 C 58 % 1009,7 hPa 0,0 l/m 13,9 km/h (3 Bft) NO 43 1 min 0,000 mm 1,0 UV-I 399 W/m 7,0 C 11,8 C 17,7 km/h (3 Bft) 100,00 %
11.04.2016 17:10 15,2 C 57 % 1009,6 hPa 0,0 l/m 11,6 km/h (2 Bft) NO 51 1 min 0,000 mm 1,0 UV-I 395 W/m 6,7 C 12,7 C 16,1 km/h (3 Bft) 100,00 %
11.04.2016 17:11 15,2 C 59 % 1009,6 hPa 0,0 l/m 11,3 km/h (2 Bft) NO 51 1 min 0,000 mm 1,0 UV-I 392 W/m 7,2 C 12,8 C 17,7 km/h (3 Bft) 100,00 %
11.04.2016 17:12 15,2 C 59 % 1009,6 hPa 0,0 l/m 11,3 km/h (2 Bft) O-NO 69 1 min 0,000 mm 1,0 UV-I 389 W/m 7,2 C 12,8 C 16,1 km/h (3 Bft) 100,00 %
11.04.2016 17:13 15,3 C 56 % 1009,7 hPa 0,0 l/m 13,6 km/h (3 Bft) O-NO 72 1 min 0,000 mm 0,9 UV-I 387 W/m 6,6 C 12,0 C 20,9 km/h (4 Bft) 100,00 %
11.04.2016 17:14 15,3 C 57 % 1009,7 hPa 0,0 l/m 15,0 km/h (3 Bft) O-SO 103 1 min 0,000 mm 0,9 UV-I 385 W/m 6,8 C 11,6 C 19,3 km/h (3 Bft) 100,00 %
11.04.2016 17:15 15,3 C 56 % 1009,7 hPa 0,0 l/m 15,0 km/h (3 Bft) O-NO 57 1 min 0,000 mm 0,9 UV-I 381 W/m 6,6 C 11,6 C 19,3 km/h (3 Bft) 100,00 %
11.04.2016 17:16 15,3 C 56 % 1009,6 hPa 0,0 l/m 12,7 km/h (3 Bft) O-NO 62 1 min 0,000 mm 0,9 UV-I 379 W/m 6,6 C 12,4 C 17,7 km/h (3 Bft) 100,00 %
11.04.2016 17:17 15,3 C 56 % 1009,7 hPa 0,0 l/m 16,7 km/h (3 Bft) O-NO 67 1 min 0,000 mm 0,9 UV-I 376 W/m 6,6 C 11,0 C 20,9 km/h (4 Bft) 100,00 %
11.04.2016 17:18 15,2 C 54 % 1009,7 hPa 0,0 l/m 16,7 km/h (3 Bft) O-NO 76 1 min 0,000 mm 0,9 UV-I 375 W/m 6,0 C 10,9 C 19,3 km/h (3 Bft) 100,00 %
11.04.2016 17:19 15,2 C 54 % 1009,7 hPa 0,0 l/m 13,9 km/h (3 Bft) O 80 1 min 0,000 mm 0,9 UV-I 373 W/m 6,0 C 11,8 C 19,3 km/h (3 Bft) 100,00 %
11.04.2016 17:20 15,2 C 55 % 1009,7 hPa 0,0 l/m 13,6 km/h (3 Bft) O-NO 74 1 min 0,000 mm 0,9 UV-I 371 W/m 6,2 C 11,9 C 17,7 km/h (3 Bft) 100,00 %
11.04.2016 17:21 15,1 C 56 % 1009,6 hPa 0,0 l/m 12,1 km/h (2 Bft) O-SO 105 1 min 0,000 mm 0,8 UV-I 366 W/m 6,4 C 12,3 C 20,9 km/h (4 Bft) 100,00 %
11.04.2016 17:22 15,1 C 56 % 1009,6 hPa 0,0 l/m 13,6 km/h (3 Bft) O-NO 63 1 min 0,000 mm 0,8 UV-I 363 W/m 6,4 C 11,8 C 20,9 km/h (4 Bft) 100,00 %
11.04.2016 17:23 15,1 C 57 % 1009,6 hPa 0,0 l/m 16,3 km/h (3 Bft) NO 52 1 min 0,000 mm 0,8 UV-I 360 W/m 6,6 C 10,9 C 22,5 km/h (4 Bft) 100,00 %
11.04.2016 17:24 15,1 C 56 % 1009,7 hPa 0,0 l/m 14,1 km/h (3 Bft) NO 56 1 min 0,000 mm 0,8 UV-I 358 W/m 6,4 C 11,6 C 17,7 km/h (3 Bft) 100,00 %
11.04.2016 17:25 15,1 C 57 % 1009,6 hPa 0,0 l/m 17,5 km/h (3 Bft) O-NO 78 1 min 0,000 mm 0,8 UV-I 356 W/m 6,6 C 10,5 C 22,5 km/h (4 Bft) 96,67 %
11.04.2016 17:26 15,1 C 57 % 1009,6 hPa 0,0 l/m 14,2 km/h (3 Bft) O-NO 59 1 min 0,000 mm 0,8 UV-I 352 W/m 6,6 C 11,6 C 20,9 km/h (4 Bft) 100,00 %
11.04.2016 17:27 15,1 C 57 % 1009,6 hPa 0,0 l/m 15,5 km/h (3 Bft) NO 48 1 min 0,000 mm 0,8 UV-I 350 W/m 6,6 C 11,2 C 22,5 km/h (4 Bft) 100,00 %
11.04.2016 17:28 15,1 C 58 % 1009,6 hPa 0,0 l/m 15,9 km/h (3 Bft) NO 53 1 min 0,000 mm 0,8 UV-I 346 W/m 6,9 C 11,0 C 19,3 km/h (3 Bft) 100,00 %
11.04.2016 17:29 15,1 C 57 % 1009,5 hPa 0,0 l/m 12,6 km/h (3 Bft) NO 48 1 min 0,000 mm 0,7 UV-I 344 W/m 6,6 C 12,2 C 17,7 km/h (3 Bft) 100,00 %
11.04.2016 17:30 15,1 C 57 % 1009,5 hPa 0,0 l/m 11,7 km/h (2 Bft) NO 46 1 min 0,000 mm 0,7 UV-I 340 W/m 6,6 C 12,5 C 16,1 km/h (3 Bft) 100,00 %
11.04.2016 17:31 15,1 C 59 % 1009,6 hPa 0,0 l/m 13,7 km/h (3 Bft) NO 45 1 min 0,000 mm 0,7 UV-I 338 W/m 7,1 C 11,8 C 17,7 km/h (3 Bft) 100,00 %
11.04.2016 17:32 15,1 C 58 % 1009,5 hPa 0,0 l/m 10,1 km/h (2 Bft) O 82 1 min 0,000 mm 0,7 UV-I 334 W/m 6,9 C 13,2 C 16,1 km/h (3 Bft) 100,00 %
11.04.2016 17:33 15,1 C 58 % 1009,5 hPa 0,0 l/m 12,0 km/h (2 Bft) NO 45 1 min 0,000 mm 0,7 UV-I 331 W/m 6,9 C 12,4 C 14,5 km/h (3 Bft) 100,00 %
11.04.2016 17:34 15,1 C 58 % 1009,5 hPa 0,0 l/m 12,3 km/h (3 Bft) NO 51 1 min 0,000 mm 0,7 UV-I 328 W/m 6,9 C 12,3 C 14,5 km/h (3 Bft) 100,00 %
11.04.2016 17:35 15,2 C 58 % 1009,5 hPa 0,0 l/m 14,3 km/h (3 Bft) NO 54 1 min 0,000 mm 0,7 UV-I 326 W/m 7,0 C 11,7 C 19,3 km/h (3 Bft) 100,00 %
11.04.2016 17:36 15,2 C 59 % 1009,5 hPa 0,0 l/m 11,7 km/h (2 Bft) NO 53 1 min 0,000 mm 0,7 UV-I 323 W/m 7,2 C 12,6 C 16,1 km/h (3 Bft) 100,00 %
11.04.2016 17:37 15,2 C 59 % 1009,5 hPa 0,0 l/m 12,3 km/h (3 Bft) O 82 1 min 0,000 mm 0,7 UV-I 319 W/m 7,2 C 12,4 C 17,7 km/h (3 Bft) 100,00 %
11.04.2016 17:38 15,2 C 58 % 1009,5 hPa 0,0 l/m 12,0 km/h (2 Bft) O-NO 60 1 min 0,000 mm 0,6 UV-I 315 W/m 7,0 C 12,5 C 17,7 km/h (3 Bft) 98,71 %
11.04.2016 17:39 15,3 C 56 % 1009,4 hPa 0,0 l/m 11,6 km/h (2 Bft) O-NO 57 1 min 0,000 mm 0,6 UV-I 314 W/m 6,6 C 12,8 C 16,1 km/h (3 Bft) 100,00 %
11.04.2016 17:40 15,3 C 57 % 1009,5 hPa 0,0 l/m 16,6 km/h (3 Bft) NO 56 1 min 0,000 mm 0,6 UV-I 311 W/m 6,8 C 11,1 C 22,5 km/h (4 Bft) 96,15 %
11.04.2016 17:41 15,3 C 57 % 1009,4 hPa 0,0 l/m 19,1 km/h (3 Bft) NO 45 1 min 0,000 mm 0,6 UV-I 308 W/m 6,8 C 10,4 C 25,7 km/h (4 Bft) 100,00 %
11.04.2016 17:42 15,3 C 56 % 1009,5 hPa 0,0 l/m 18,1 km/h (3 Bft) O 86 1 min 0,000 mm 0,6 UV-I 306 W/m 6,6 C 10,6 C 24,1 km/h (4 Bft) 96,30 %
11.04.2016 17:43 15,2 C 56 % 1009,4 hPa 0,0 l/m 16,3 km/h (3 Bft) O-NO 62 1 min 0,000 mm 0,6 UV-I 304 W/m 6,5 C 11,0 C 19,3 km/h (3 Bft) 96,55 %
11.04.2016 17:44 15,2 C 56 % 1009,4 hPa 0,0 l/m 12,7 km/h (3 Bft) O-NO 60 1 min 0,000 mm 0,6 UV-I 301 W/m 6,5 C 12,2 C 16,1 km/h (3 Bft) 100,00 %
11.04.2016 17:45 15,2 C 58 % 1009,4 hPa 0,0 l/m 16,9 km/h (3 Bft) O-NO 78 1 min 0,000 mm 0,6 UV-I 298 W/m 7,0 C 10,8 C 20,9 km/h (4 Bft) 96,55 %
11.04.2016 17:46 15,2 C 58 % 1009,4 hPa 0,0 l/m 15,5 km/h (3 Bft) NO 52 1 min 0,000 mm 0,6 UV-I 295 W/m 7,0 C 11,3 C 19,3 km/h (3 Bft) 100,00 %
11.04.2016 17:47 15,2 C 58 % 1009,3 hPa 0,0 l/m 17,6 km/h (3 Bft) O-NO 77 1 min 0,000 mm 0,6 UV-I 293 W/m 7,0 C 10,6 C 22,5 km/h (4 Bft) 91,30 %
11.04.2016 17:48 15,2 C 57 % 1009,3 hPa 0,0 l/m 16,1 km/h (3 Bft) NO 44 1 min 0,000 mm 0,5 UV-I 291 W/m 6,7 C 11,1 C 20,9 km/h (4 Bft) 100,00 %
11.04.2016 17:49 15,2 C 58 % 1009,3 hPa 0,0 l/m 14,6 km/h (3 Bft) NO 36 1 min 0,000 mm 0,5 UV-I 288 W/m 7,0 C 11,6 C 19,3 km/h (3 Bft) 96,55 %
11.04.2016 17:50 15,2 C 58 % 1009,3 hPa 0,0 l/m 14,9 km/h (3 Bft) O-NO 69 1 min 0,000 mm 0,5 UV-I 283 W/m 7,0 C 11,5 C 20,9 km/h (4 Bft) 96,30 %
11.04.2016 17:51 15,2 C 59 % 1009,3 hPa 0,0 l/m 15,3 km/h (3 Bft) O-NO 76 1 min 0,000 mm 0,5 UV-I 279 W/m 7,2 C 11,3 C 22,5 km/h (4 Bft) 100,00 %
11.04.2016 17:52 15,2 C 59 % 1009,3 hPa 0,0 l/m 13,8 km/h (3 Bft) O-NO 57 1 min 0,000 mm 0,5 UV-I 277 W/m 7,2 C 11,8 C 20,9 km/h (4 Bft) 91,67 %
11.04.2016 17:53 15,1 C 59 % 1009,3 hPa 0,0 l/m 15,8 km/h (3 Bft) O-NO 67 1 min 0,000 mm 0,5 UV-I 276 W/m 7,1 C 11,1 C 19,3 km/h (3 Bft) 92,86 %
11.04.2016 17:54 15,1 C 59 % 1009,3 hPa 0,0 l/m 16,3 km/h (3 Bft) O-NO 63 1 min 0,000 mm 0,5 UV-I 273 W/m 7,1 C 10,9 C 20,9 km/h (4 Bft) 96,30 %
11.04.2016 17:55 15,1 C 59 % 1009,4 hPa 0,0 l/m 14,0 km/h (3 Bft) O-NO 72 1 min 0,000 mm 0,5 UV-I 268 W/m 7,1 C 11,6 C 19,3 km/h (3 Bft) 100,00 %
11.04.2016 17:56 15,1 C 59 % 1009,4 hPa 0,0 l/m 11,3 km/h (2 Bft) O-NO 67 1 min 0,000 mm 0,5 UV-I 264 W/m 7,1 C 12,7 C 16,1 km/h (3 Bft) 93,33 %
11.04.2016 17:57 15,1 C 60 % 1009,3 hPa 0,0 l/m 16,4 km/h (3 Bft) NO 51 1 min 0,000 mm 0,5 UV-I 260 W/m 7,4 C 10,9 C 20,9 km/h (4 Bft) 100,00 %
11.04.2016 17:58 15,2 C 61 % 1009,3 hPa 0,0 l/m 11,7 km/h (2 Bft) N-NO 28 1 min 0,000 mm 0,0 UV-I 257 W/m 7,7 C 12,6 C 16,1 km/h (3 Bft) 93,75 %
11.04.2016 17:59 15,2 C 61 % 1009,3 hPa 0,0 l/m 11,4 km/h (2 Bft) NO 54 1 min 0,000 mm 0,0 UV-I 254 W/m 7,7 C 12,7 C 17,7 km/h (3 Bft) 91,67 %
11.04.2016 18:00 15,2 C 60 % 1009,2 hPa 0,0 l/m 12,2 km/h (2 Bft) N-NO 24 1 min 0,254 mm 0,0 UV-I 251 W/m 7,5 C 12,4 C 17,7 km/h (3 Bft) 96,15 %
11.04.2016 18:01 15,2 C 61 % 1009,3 hPa 0,0 l/m 14,7 km/h (3 Bft) N-NO 28 1 min 0,000 mm 0,0 UV-I 246 W/m 7,7 C 11,5 C 19,3 km/h (3 Bft) 95,83 %
11.04.2016 18:02 15,2 C 60 % 1009,4 hPa 0,0 l/m 10,5 km/h (2 Bft) O-NO 59 1 min 0,000 mm 0,0 UV-I 244 W/m 7,5 C 13,1 C 17,7 km/h (3 Bft) 100,00 %
11.04.2016 18:03 15,2 C 60 % 1009,4 hPa 0,0 l/m 14,3 km/h (3 Bft) O-NO 61 1 min 0,000 mm 0,0 UV-I 240 W/m 7,5 C 11,7 C 19,3 km/h (3 Bft) 95,83 %
11.04.2016 18:04 15,2 C 60 % 1009,4 hPa 0,0 l/m 11,0 km/h (2 Bft) O-NO 65 1 min 0,000 mm 0,0 UV-I 238 W/m 7,5 C 12,9 C 14,5 km/h (3 Bft) 100,00 %
11.04.2016 18:05 15,1 C 61 % 1009,4 hPa 0,0 l/m 12,8 km/h (3 Bft) O-NO 59 1 min 0,000 mm 0,0 UV-I 235 W/m 7,6 C 12,1 C 17,7 km/h (3 Bft) 96,30 %
11.04.2016 18:06 15,2 C 61 % 1009,4 hPa 0,0 l/m 12,7 km/h (3 Bft) O 80 1 min 0,000 mm 0,0 UV-I 231 W/m 7,7 C 12,2 C 16,1 km/h (3 Bft) 100,00 %
11.04.2016 18:07 15,2 C 61 % 1009,4 hPa 0,0 l/m 15,3 km/h (3 Bft) O-NO 75 1 min 0,000 mm 0,0 UV-I 227 W/m 7,7 C 11,3 C 17,7 km/h (3 Bft) 96,67 %
11.04.2016 18:08 15,1 C 61 % 1009,4 hPa 0,0 l/m 17,3 km/h (3 Bft) O 82 1 min 0,000 mm 0,0 UV-I 224 W/m 7,6 C 10,6 C 22,5 km/h (4 Bft) 96,15 %
11.04.2016 18:09 15,1 C 62 % 1009,4 hPa 0,0 l/m 17,4 km/h (3 Bft) O-NO 70 1 min 0,000 mm 0,0 UV-I 220 W/m 7,9 C 10,6 C 20,9 km/h (4 Bft) 100,00 %
11.04.2016 18:10 15,1 C 61 % 1009,4 hPa 0,0 l/m 17,7 km/h (3 Bft) O-NO 63 1 min 0,000 mm 0,0 UV-I 216 W/m 7,6 C 10,5 C 22,5 km/h (4 Bft) 100,00 %
11.04.2016 18:11 15,1 C 62 % 1009,4 hPa 0,0 l/m 17,5 km/h (3 Bft) O-NO 61 1 min 0,000 mm 0,0 UV-I 213 W/m 7,9 C 10,5 C 24,1 km/h (4 Bft) 96,30 %
11.04.2016 18:12 15,1 C 61 % 1009,4 hPa 0,0 l/m 16,6 km/h (3 Bft) NO 54 1 min 0,000 mm 0,0 UV-I 210 W/m 7,6 C 10,8 C 20,9 km/h (4 Bft) 98,65 %
11.04.2016 18:13 15,0 C 61 % 1009,3 hPa 0,0 l/m 15,1 km/h (3 Bft) N-NO 30 1 min 0,000 mm 0,0 UV-I 206 W/m 7,5 C 11,2 C 19,3 km/h (3 Bft) 100,00 %
11.04.2016 18:14 15,0 C 62 % 1009,3 hPa 0,0 l/m 15,2 km/h (3 Bft) NO 47 1 min 0,000 mm 0,0 UV-I 203 W/m 7,8 C 11,1 C 19,3 km/h (3 Bft) 100,00 %
11.04.2016 18:15 14,9 C 62 % 1009,4 hPa 0,0 l/m 14,6 km/h (3 Bft) O-NO 72 1 min 0,000 mm 0,0 UV-I 200 W/m 7,7 C 11,2 C 19,3 km/h (3 Bft) 100,00 %
11.04.2016 18:16 14,9 C 63 % 1009,4 hPa 0,0 l/m 12,7 km/h (3 Bft) O-NO 63 1 min 0,000 mm 0,0 UV-I 197 W/m 7,9 C 11,9 C 16,1 km/h (3 Bft) 95,65 %
11.04.2016 18:17 14,9 C 63 % 1009,4 hPa 0,0 l/m 11,0 km/h (2 Bft) O-NO 74 1 min 0,000 mm 0,0 UV-I 193 W/m 7,9 C 12,6 C 16,1 km/h (3 Bft) 100,00 %
11.04.2016 18:18 14,9 C 64 % 1009,4 hPa 0,0 l/m 12,2 km/h (2 Bft) O-NO 77 1 min 0,000 mm 0,0 UV-I 189 W/m 8,2 C 12,1 C 19,3 km/h (3 Bft) 93,33 %
11.04.2016 18:19 14,9 C 63 % 1009,4 hPa 0,0 l/m 15,9 km/h (3 Bft) O-NO 67 1 min 0,000 mm 0,0 UV-I 185 W/m 7,9 C 10,8 C 19,3 km/h (3 Bft) 100,00 %
11.04.2016 18:20 14,9 C 63 % 1009,4 hPa 0,0 l/m 15,8 km/h (3 Bft) O-NO 64 1 min 0,000 mm 0,0 UV-I 182 W/m 7,9 C 10,8 C 19,3 km/h (3 Bft) 100,00 %
11.04.2016 18:21 14,8 C 63 % 1009,4 hPa 0,0 l/m 14,1 km/h (3 Bft) O 79 1 min 0,000 mm 0,0 UV-I 180 W/m 7,8 C 11,3 C 19,3 km/h (3 Bft) 100,00 %
11.04.2016 18:22 14,8 C 63 % 1009,4 hPa 0,0 l/m 10,8 km/h (2 Bft) NO 53 1 min 0,000 mm 0,0 UV-I 176 W/m 7,8 C 12,5 C 14,5 km/h (3 Bft) 100,00 %
11.04.2016 18:23 14,8 C 65 % 1009,4 hPa 0,0 l/m 10,2 km/h (2 Bft) O-NO 66 1 min 0,000 mm 0,0 UV-I 172 W/m 8,3 C 12,8 C 17,7 km/h (3 Bft) 100,00 %
11.04.2016 18:24 14,8 C 63 % 1009,4 hPa 0,0 l/m 10,1 km/h (2 Bft) O 81 1 min 0,000 mm 0,0 UV-I 169 W/m 7,8 C 12,9 C 14,5 km/h (3 Bft) 100,00 %
11.04.2016 18:25 14,8 C 64 % 1009,4 hPa 0,0 l/m 11,2 km/h (2 Bft) O 89 1 min 0,000 mm 0,0 UV-I 165 W/m 8,1 C 12,4 C 16,1 km/h (3 Bft) 96,55 %
11.04.2016 18:26 14,8 C 63 % 1009,5 hPa 0,0 l/m 10,3 km/h (2 Bft) O-NO 67 1 min 0,000 mm 0,0 UV-I 162 W/m 7,8 C 12,8 C 14,5 km/h (3 Bft) 100,00 %
11.04.2016 18:27 14,7 C 64 % 1009,5 hPa 0,0 l/m 13,6 km/h (3 Bft) O-NO 70 1 min 0,000 mm 0,0 UV-I 157 W/m 8,0 C 11,3 C 22,5 km/h (4 Bft) 100,00 %
11.04.2016 18:28 14,7 C 63 % 1009,5 hPa 0,0 l/m 15,2 km/h (3 Bft) O-NO 61 1 min 0,000 mm 0,0 UV-I 154 W/m 7,7 C 10,8 C 19,3 km/h (3 Bft) 100,00 %
11.04.2016 18:29 14,7 C 63 % 1009,5 hPa 0,0 l/m 13,2 km/h (3 Bft) O-NO 68 1 min 0,000 mm 0,0 UV-I 152 W/m 7,7 C 11,5 C 19,3 km/h (3 Bft) 100,00 %
11.04.2016 18:30 14,7 C 63 % 1009,5 hPa 0,0 l/m 15,4 km/h (3 Bft) O-NO 61 1 min 0,000 mm 0,0 UV-I 149 W/m 7,7 C 10,7 C 19,3 km/h (3 Bft) 100,00 %
11.04.2016 18:31 14,7 C 63 % 1009,4 hPa 0,0 l/m 16,9 km/h (3 Bft) O-NO 60 1 min 0,000 mm 0,0 UV-I 146 W/m 7,7 C 10,2 C 25,7 km/h (4 Bft) 100,00 %
11.04.2016 18:32 14,7 C 64 % 1009,4 hPa 0,0 l/m 15,2 km/h (3 Bft) NO 53 1 min 0,000 mm 0,0 UV-I 141 W/m 8,0 C 10,8 C 17,7 km/h (3 Bft) 100,00 %
11.04.2016 18:33 14,7 C 64 % 1009,5 hPa 0,0 l/m 18,2 km/h (3 Bft) O-NO 71 1 min 0,000 mm 0,0 UV-I 138 W/m 8,0 C 9,8 C 22,5 km/h (4 Bft) 100,00 %
11.04.2016 18:34 14,6 C 63 % 1009,4 hPa 0,0 l/m 15,2 km/h (3 Bft) O-NO 60 1 min 0,000 mm 0,0 UV-I 135 W/m 7,6 C 10,6 C 20,9 km/h (4 Bft) 100,00 %
11.04.2016 18:35 14,6 C 64 % 1009,4 hPa 0,0 l/m 14,7 km/h (3 Bft) O-NO 68 1 min 0,000 mm 0,0 UV-I 133 W/m 7,9 C 10,8 C 19,3 km/h (3 Bft) 100,00 %
11.04.2016 18:36 14,6 C 65 % 1009,4 hPa 0,0 l/m 10,2 km/h (2 Bft) O-NO 62 1 min 0,000 mm 0,0 UV-I 129 W/m 8,1 C 12,6 C 19,3 km/h (3 Bft) 100,00 %
11.04.2016 18:37 14,6 C 65 % 1009,4 hPa 0,0 l/m 11,3 km/h (2 Bft) O 87 1 min 0,000 mm 0,0 UV-I 124 W/m 8,1 C 12,1 C 14,5 km/h (3 Bft) 100,00 %
11.04.2016 18:38 14,6 C 65 % 1009,4 hPa 0,0 l/m 10,9 km/h (2 Bft) O-NO 76 1 min 0,000 mm 0,0 UV-I 121 W/m 8,1 C 12,3 C 12,9 km/h (3 Bft) 100,00 %
11.04.2016 18:39 14,6 C 66 % 1009,4 hPa 0,0 l/m 11,7 km/h (2 Bft) O-SO 119 1 min 0,000 mm 0,0 UV-I 119 W/m 8,3 C 11,9 C 16,1 km/h (3 Bft) 100,00 %
11.04.2016 18:40 14,6 C 66 % 1009,4 hPa 0,0 l/m 9,1 km/h (2 Bft) O-NO 69 1 min 0,000 mm 0,0 UV-I 117 W/m 8,3 C 13,1 C 14,5 km/h (3 Bft) 96,15 %
11.04.2016 18:41 14,5 C 66 % 1009,4 hPa 0,0 l/m 12,5 km/h (3 Bft) O-NO 62 1 min 0,000 mm 0,0 UV-I 114 W/m 8,2 C 11,5 C 17,7 km/h (3 Bft) 96,30 %
11.04.2016 18:42 14,5 C 67 % 1009,4 hPa 0,0 l/m 11,3 km/h (2 Bft) O-NO 78 1 min 0,000 mm 0,0 UV-I 111 W/m 8,4 C 12,0 C 16,1 km/h (3 Bft) 100,00 %
11.04.2016 18:43 14,4 C 67 % 1009,4 hPa 0,0 l/m 11,9 km/h (2 Bft) O-NO 67 1 min 0,000 mm 0,0 UV-I 107 W/m 8,4 C 11,6 C 16,1 km/h (3 Bft) 100,00 %
11.04.2016 18:44 14,4 C 66 % 1009,3 hPa 0,0 l/m 14,5 km/h (3 Bft) O-NO 74 1 min 0,000 mm 0,0 UV-I 104 W/m 8,1 C 10,6 C 19,3 km/h (3 Bft) 96,15 %
11.04.2016 18:45 14,4 C 66 % 1009,4 hPa 0,0 l/m 14,1 km/h (3 Bft) O-NO 62 1 min 0,000 mm 0,0 UV-I 101 W/m 8,1 C 10,8 C 19,3 km/h (3 Bft) 95,83 %
11.04.2016 18:46 14,3 C 67 % 1009,4 hPa 0,0 l/m 13,8 km/h (3 Bft) O-NO 58 1 min 0,000 mm 0,0 UV-I 99 W/m 8,3 C 10,8 C 19,3 km/h (3 Bft) 100,00 %
11.04.2016 18:47 14,3 C 67 % 1009,3 hPa 0,0 l/m 13,0 km/h (3 Bft) O-NO 61 1 min 0,000 mm 0,0 UV-I 96 W/m 8,3 C 11,1 C 16,1 km/h (3 Bft) 100,00 %
11.04.2016 18:48 14,3 C 67 % 1009,3 hPa 0,0 l/m 11,0 km/h (2 Bft) O-NO 65 1 min 0,000 mm 0,0 UV-I 93 W/m 8,3 C 11,9 C 16,1 km/h (3 Bft) 100,00 %
11.04.2016 18:49 14,2 C 67 % 1009,3 hPa 0,0 l/m 10,8 km/h (2 Bft) O-NO 58 1 min 0,000 mm 0,0 UV-I 90 W/m 8,2 C 11,9 C 16,1 km/h (3 Bft) 100,00 %
11.04.2016 18:50 14,2 C 68 % 1009,3 hPa 0,0 l/m 14,4 km/h (3 Bft) NO 51 1 min 0,000 mm 0,0 UV-I 86 W/m 8,4 C 10,4 C 19,3 km/h (3 Bft) 94,12 %
11.04.2016 18:51 14,1 C 68 % 1009,3 hPa 0,0 l/m 12,6 km/h (3 Bft) O 79 1 min 0,000 mm 0,0 UV-I 83 W/m 8,3 C 11,0 C 17,7 km/h (3 Bft) 100,00 %
11.04.2016 18:52 14,1 C 68 % 1009,3 hPa 0,0 l/m 11,7 km/h (2 Bft) O-NO 71 1 min 0,000 mm 0,0 UV-I 82 W/m 8,3 C 11,4 C 14,5 km/h (3 Bft) 100,00 %
11.04.2016 18:53 14,0 C 68 % 1009,3 hPa 0,0 l/m 13,9 km/h (3 Bft) O-NO 73 0 min 0,000 mm 0,0 UV-I 77 W/m 8,2 C 10,4 C 19,3 km/h (3 Bft) 100,00 %
11.04.2016 18:54 14,0 C 68 % 1009,3 hPa 0,0 l/m 16,6 km/h (3 Bft) O 92 0 min 0,000 mm 0,0 UV-I 76 W/m 8,2 C 9,4 C 19,3 km/h (3 Bft) 100,00 %
11.04.2016 18:55 13,9 C 68 % 1009,3 hPa 0,0 l/m 16,2 km/h (3 Bft) O-NO 62 0 min 0,000 mm 0,0 UV-I 74 W/m 8,1 C 9,5 C 19,3 km/h (3 Bft) 100,00 %
11.04.2016 18:56 13,9 C 68 % 1009,3 hPa 0,0 l/m 13,7 km/h (3 Bft) O-NO 65 0 min 0,000 mm 0,0 UV-I 72 W/m 8,1 C 10,3 C 17,7 km/h (3 Bft) 100,00 %
11.04.2016 18:57 13,8 C 69 % 1009,4 hPa 0,0 l/m 8,8 km/h (2 Bft) O 80 0 min 0,000 mm 0,0 UV-I 68 W/m 8,2 C 12,4 C 14,5 km/h (3 Bft) 100,00 %
11.04.2016 18:58 13,8 C 70 % 1009,5 hPa 0,0 l/m 10,1 km/h (2 Bft) O-NO 63 0 min 0,000 mm 0,0 UV-I 66 W/m 8,4 C 11,7 C 16,1 km/h (3 Bft) 100,00 %
11.04.2016 18:59 13,7 C 69 % 1009,5 hPa 0,0 l/m 11,5 km/h (2 Bft) O-NO 78 0 min 0,000 mm 0,0 UV-I 64 W/m 8,1 C 11,0 C 17,7 km/h (3 Bft) 95,65 %
11.04.2016 19:00 13,7 C 68 % 1009,6 hPa 0,0 l/m 13,3 km/h (3 Bft) O 87 0 min 0,000 mm 0,0 UV-I 62 W/m 7,9 C 10,2 C 24,1 km/h (4 Bft) 100,00 %
11.04.2016 19:02 13,7 C 67 % 1009,5 hPa 0,0 l/m 14,6 km/h (3 Bft) O-NO 73 0 min 0,127 mm 0,0 UV-I 52 W/m 7,7 C 9,8 C 22,5 km/h (4 Bft) 100,00 %
11.04.2016 19:03 13,7 C 67 % 1009,5 hPa 0,0 l/m 17,4 km/h (3 Bft) O-NO 64 0 min 0,000 mm 0,0 UV-I 36 W/m 7,7 C 8,8 C 25,7 km/h (4 Bft) 95,65 %
11.04.2016 19:04 13,6 C 67 % 1009,5 hPa 0,0 l/m 17,4 km/h (3 Bft) O-NO 69 0 min 0,000 mm 0,0 UV-I 30 W/m 7,6 C 8,7 C 22,5 km/h (4 Bft) 96,30 %
11.04.2016 19:05 13,6 C 67 % 1009,5 hPa 0,0 l/m 22,2 km/h (4 Bft) O 82 0 min 0,000 mm 0,0 UV-I 35 W/m 7,6 C 7,4 C 25,7 km/h (4 Bft) 100,00 %
11.04.2016 19:06 13,6 C 66 % 1009,5 hPa 0,0 l/m 19,7 km/h (3 Bft) O 86 0 min 0,000 mm 0,0 UV-I 37 W/m 7,4 C 8,0 C 24,1 km/h (4 Bft) 100,00 %
11.04.2016 19:07 13,6 C 66 % 1009,5 hPa 0,0 l/m 17,9 km/h (3 Bft) O 94 0 min 0,000 mm 0,0 UV-I 39 W/m 7,4 C 8,5 C 24,1 km/h (4 Bft) 100,00 %
11.04.2016 19:08 13,5 C 66 % 1009,5 hPa 0,0 l/m 17,9 km/h (3 Bft) O-NO 60 0 min 0,000 mm 0,0 UV-I 39 W/m 7,3 C 8,4 C 22,5 km/h (4 Bft) 100,00 %
11.04.2016 19:09 13,5 C 66 % 1009,5 hPa 0,0 l/m 17,5 km/h (3 Bft) O-NO 57 0 min 0,000 mm 0,0 UV-I 40 W/m 7,3 C 8,5 C 22,5 km/h (4 Bft) 100,00 %
11.04.2016 19:10 13,4 C 67 % 1009,5 hPa 0,0 l/m 15,4 km/h (3 Bft) O 82 0 min 0,000 mm 0,0 UV-I 40 W/m 7,4 C 9,1 C 19,3 km/h (3 Bft) 100,00 %
11.04.2016 19:11 13,4 C 67 % 1009,5 hPa 0,0 l/m 12,9 km/h (3 Bft) NO 54 0 min 0,000 mm 0,0 UV-I 40 W/m 7,4 C 10,1 C 17,7 km/h (3 Bft) 96,15 %
11.04.2016 19:12 13,3 C 68 % 1009,7 hPa 0,0 l/m 15,3 km/h (3 Bft) NO 50 0 min 0,000 mm 0,0 UV-I 40 W/m 7,5 C 9,0 C 20,9 km/h (4 Bft) 100,00 %
11.04.2016 19:13 13,3 C 67 % 1009,6 hPa 0,0 l/m 13,8 km/h (3 Bft) O-NO 69 0 min 0,000 mm 0,0 UV-I 35 W/m 7,3 C 9,6 C 17,7 km/h (3 Bft) 100,00 %
11.04.2016 19:14 13,3 C 67 % 1009,6 hPa 0,0 l/m 17,6 km/h (3 Bft) O-NO 74 0 min 0,000 mm 0,0 UV-I 29 W/m 7,3 C 8,3 C 24,1 km/h (4 Bft) 100,00 %
11.04.2016 19:15 13,2 C 67 % 1009,6 hPa 0,0 l/m 13,6 km/h (3 Bft) O-NO 57 0 min 0,000 mm 0,0 UV-I 25 W/m 7,2 C 9,5 C 16,1 km/h (3 Bft) 100,00 %
11.04.2016 19:16 13,2 C 67 % 1009,6 hPa 0,0 l/m 13,9 km/h (3 Bft) O-NO 67 0 min 0,000 mm 0,0 UV-I 24 W/m 7,2 C 9,4 C 20,9 km/h (4 Bft) 100,00 %
11.04.2016 19:17 13,2 C 68 % 1009,6 hPa 0,0 l/m 17,8 km/h (3 Bft) NO 53 0 min 0,000 mm 0,0 UV-I 23 W/m 7,4 C 8,1 C 20,9 km/h (4 Bft) 100,00 %
11.04.2016 19:18 13,1 C 67 % 1009,6 hPa 0,0 l/m 18,0 km/h (3 Bft) O-NO 61 0 min 0,000 mm 0,0 UV-I 21 W/m 7,1 C 7,9 C 20,9 km/h (4 Bft) 100,00 %
11.04.2016 19:19 13,1 C 67 % 1009,7 hPa 0,0 l/m 15,7 km/h (3 Bft) O 85 0 min 0,000 mm 0,0 UV-I 21 W/m 7,1 C 8,6 C 20,9 km/h (4 Bft) 100,00 %
11.04.2016 19:20 13,1 C 67 % 1009,7 hPa 0,0 l/m 16,4 km/h (3 Bft) NO 56 0 min 0,000 mm 0,0 UV-I 20 W/m 7,1 C 8,4 C 20,9 km/h (4 Bft) 100,00 %
11.04.2016 19:21 13,0 C 68 % 1009,6 hPa 0,0 l/m 17,3 km/h (3 Bft) NO 44 0 min 0,000 mm 0,0 UV-I 19 W/m 7,2 C 8,0 C 20,9 km/h (4 Bft) 100,00 %
11.04.2016 19:22 13,0 C 67 % 1009,6 hPa 0,0 l/m 19,8 km/h (3 Bft) O 81 0 min 0,000 mm 0,0 UV-I 18 W/m 7,0 C 7,2 C 29,0 km/h (5 Bft) 100,00 %
11.04.2016 19:23 13,0 C 68 % 1009,6 hPa 0,0 l/m 16,1 km/h (3 Bft) NO 52 0 min 0,000 mm 0,0 UV-I 18 W/m 7,2 C 8,4 C 20,9 km/h (4 Bft) 96,30 %
11.04.2016 19:24 12,9 C 68 % 1009,6 hPa 0,0 l/m 17,9 km/h (3 Bft) O-NO 68 0 min 0,000 mm 0,0 UV-I 18 W/m 7,1 C 7,7 C 24,1 km/h (4 Bft) 96,15 %
11.04.2016 19:25 12,9 C 68 % 1009,7 hPa 0,0 l/m 19,1 km/h (3 Bft) NO 55 0 min 0,000 mm 0,0 UV-I 18 W/m 7,1 C 7,3 C 25,7 km/h (4 Bft) 100,00 %
11.04.2016 19:26 12,9 C 68 % 1009,7 hPa 0,0 l/m 15,3 km/h (3 Bft) O 87 0 min 0,000 mm 0,0 UV-I 17 W/m 7,1 C 8,5 C 19,3 km/h (3 Bft) 100,00 %
11.04.2016 19:27 12,9 C 68 % 1009,7 hPa 0,0 l/m 21,0 km/h (4 Bft) O 84 0 min 0,000 mm 0,0 UV-I 16 W/m 7,1 C 6,8 C 27,4 km/h (4 Bft) 100,00 %
11.04.2016 19:28 12,9 C 68 % 1009,7 hPa 0,0 l/m 19,6 km/h (3 Bft) N-NO 27 0 min 0,000 mm 0,0 UV-I 16 W/m 7,1 C 7,1 C 29,0 km/h (5 Bft) 100,00 %
11.04.2016 19:29 12,9 C 69 % 1009,7 hPa 0,0 l/m 20,7 km/h (4 Bft) O 91 0 min 0,000 mm 0,0 UV-I 16 W/m 7,4 C 6,8 C 29,0 km/h (5 Bft) 100,00 %
11.04.2016 19:30 12,8 C 69 % 1009,7 hPa 0,0 l/m 21,3 km/h (4 Bft) NO 49 0 min 0,000 mm 0,0 UV-I 16 W/m 7,3 C 6,5 C 29,0 km/h (5 Bft) 95,65 %
11.04.2016 19:31 12,8 C 69 % 1009,7 hPa 0,0 l/m 20,3 km/h (4 Bft) O 91 0 min 0,000 mm 0,0 UV-I 16 W/m 7,3 C 6,8 C 22,5 km/h (4 Bft) 100,00 %
11.04.2016 19:32 12,8 C 70 % 1009,8 hPa 0,0 l/m 14,1 km/h (3 Bft) O-NO 69 0 min 0,000 mm 0,0 UV-I 14 W/m 7,5 C 8,9 C 22,5 km/h (4 Bft) 100,00 %
11.04.2016 19:33 12,8 C 70 % 1009,8 hPa 0,0 l/m 17,7 km/h (3 Bft) O-NO 67 0 min 0,000 mm 0,0 UV-I 14 W/m 7,5 C 7,6 C 22,5 km/h (4 Bft) 100,00 %
11.04.2016 19:34 12,7 C 70 % 1009,9 hPa 0,0 l/m 19,9 km/h (4 Bft) O 92 0 min 0,000 mm 0,0 UV-I 14 W/m 7,4 C 6,8 C 27,4 km/h (4 Bft) 95,65 %
11.04.2016 19:35 12,7 C 70 % 1009,9 hPa 0,0 l/m 15,0 km/h (3 Bft) NO 49 0 min 0,000 mm 0,0 UV-I 12 W/m 7,4 C 8,4 C 25,7 km/h (4 Bft) 100,00 %
11.04.2016 19:36 12,7 C 71 % 1009,9 hPa 0,0 l/m 13,4 km/h (3 Bft) O 81 1 min 0,000 mm 0,0 UV-I 12 W/m 7,6 C 9,0 C 17,7 km/h (3 Bft) 100,00 %
11.04.2016 19:37 12,6 C 71 % 1009,9 hPa 0,0 l/m 14,9 km/h (3 Bft) O-NO 74 1 min 0,000 mm 0,0 UV-I 12 W/m 7,5 C 8,3 C 20,9 km/h (4 Bft) 100,00 %
11.04.2016 19:38 12,6 C 71 % 1009,8 hPa 0,0 l/m 14,6 km/h (3 Bft) NO 53 1 min 0,000 mm 0,0 UV-I 12 W/m 7,5 C 8,4 C 19,3 km/h (3 Bft) 100,00 %
11.04.2016 19:39 12,6 C 71 % 1009,9 hPa 0,0 l/m 12,4 km/h (3 Bft) O-NO 69 0 min 0,000 mm 0,0 UV-I 11 W/m 7,5 C 9,3 C 16,1 km/h (3 Bft) 100,00 %
11.04.2016 19:40 12,6 C 72 % 1009,8 hPa 0,0 l/m 14,2 km/h (3 Bft) O-NO 76 0 min 0,000 mm 0,0 UV-I 11 W/m 7,7 C 8,6 C 16,1 km/h (3 Bft) 93,33 %
11.04.2016 19:41 12,5 C 72 % 1009,8 hPa 0,0 l/m 12,3 km/h (3 Bft) O-NO 74 0 min 0,000 mm 0,0 UV-I 11 W/m 7,6 C 9,3 C 16,1 km/h (3 Bft) 96,15 %
11.04.2016 19:42 12,4 C 72 % 1009,8 hPa 0,0 l/m 13,1 km/h (3 Bft) NO 42 0 min 0,000 mm 0,0 UV-I 11 W/m 7,5 C 8,8 C 17,7 km/h (3 Bft) 91,67 %
11.04.2016 19:43 12,4 C 72 % 1009,8 hPa 0,0 l/m 16,9 km/h (3 Bft) NO 42 0 min 0,000 mm 0,0 UV-I 9 W/m 7,5 C 7,4 C 19,3 km/h (3 Bft) 100,00 %
11.04.2016 19:44 12,4 C 72 % 1009,8 hPa 0,0 l/m 12,6 km/h (3 Bft) NO 53 0 min 0,000 mm 0,0 UV-I 9 W/m 7,5 C 9,0 C 16,1 km/h (3 Bft) 96,30 %
11.04.2016 19:45 12,3 C 73 % 1009,9 hPa 0,0 l/m 15,0 km/h (3 Bft) NO 44 0 min 0,000 mm 0,0 UV-I 8 W/m 7,6 C 7,9 C 19,3 km/h (3 Bft) 92,31 %
11.04.2016 19:46 12,3 C 73 % 1009,8 hPa 0,0 l/m 15,6 km/h (3 Bft) O-NO 63 0 min 0,000 mm 0,0 UV-I 7 W/m 7,6 C 7,7 C 19,3 km/h (3 Bft) 100,00 %
11.04.2016 19:47 12,3 C 73 % 1009,9 hPa 0,0 l/m 13,3 km/h (3 Bft) NO 45 0 min 0,000 mm 0,0 UV-I 7 W/m 7,6 C 8,6 C 17,7 km/h (3 Bft) 98,68 %
11.04.2016 19:48 12,3 C 73 % 1009,9 hPa 0,0 l/m 16,3 km/h (3 Bft) NO 42 0 min 0,000 mm 0,0 UV-I 7 W/m 7,6 C 7,4 C 20,9 km/h (4 Bft) 95,12 %
11.04.2016 19:49 12,2 C 73 % 1009,9 hPa 0,0 l/m 15,4 km/h (3 Bft) O-NO 66 0 min 0,000 mm 0,0 UV-I 6 W/m 7,5 C 7,6 C 25,7 km/h (4 Bft) 94,12 %
11.04.2016 19:50 12,2 C 73 % 1009,9 hPa 0,0 l/m 16,2 km/h (3 Bft) O 84 0 min 0,000 mm 0,0 UV-I 5 W/m 7,5 C 7,4 C 22,5 km/h (4 Bft) 100,00 %
11.04.2016 19:51 12,2 C 74 % 1009,9 hPa 0,0 l/m 15,1 km/h (3 Bft) O-NO 65 0 min 0,000 mm 0,0 UV-I 5 W/m 7,7 C 7,8 C 19,3 km/h (3 Bft) 95,65 %
11.04.2016 19:52 12,1 C 74 % 1009,9 hPa 0,0 l/m 15,4 km/h (3 Bft) O-NO 59 0 min 0,000 mm 0,0 UV-I 5 W/m 7,6 C 7,5 C 19,3 km/h (3 Bft) 100,00 %
11.04.2016 19:53 12,1 C 74 % 1010,0 hPa 0,0 l/m 13,5 km/h (3 Bft) O-NO 71 0 min 0,000 mm 0,0 UV-I 5 W/m 7,6 C 8,3 C 17,7 km/h (3 Bft) 92,31 %
11.04.2016 19:54 12,1 C 74 % 1010,0 hPa 0,0 l/m 13,8 km/h (3 Bft) O-NO 69 0 min 0,000 mm 0,0 UV-I 3 W/m 7,6 C 8,2 C 19,3 km/h (3 Bft) 90,48 %
11.04.2016 19:55 12,1 C 74 % 1010,0 hPa 0,0 l/m 13,7 km/h (3 Bft) O-NO 78 0 min 0,000 mm 0,0 UV-I 0 W/m 7,6 C 8,2 C 19,3 km/h (3 Bft) 96,55 %
11.04.2016 19:56 12,0 C 74 % 1010,0 hPa 0,0 l/m 12,6 km/h (3 Bft) NO 49 0 min 0,000 mm 0,0 UV-I 0 W/m 7,5 C 8,5 C 17,7 km/h (3 Bft) 95,83 %
11.04.2016 19:57 11,9 C 74 % 1010,0 hPa 0,0 l/m 12,5 km/h (3 Bft) O-NO 64 0 min 0,000 mm 0,0 UV-I 0 W/m 7,4 C 8,5 C 17,7 km/h (3 Bft) 100,00 %
11.04.2016 19:58 11,9 C 74 % 1010,0 hPa 0,0 l/m 10,9 km/h (2 Bft) O-NO 62 0 min 0,000 mm 0,0 UV-I 0 W/m 7,4 C 9,2 C 14,5 km/h (3 Bft) 95,83 %
11.04.2016 19:59 11,9 C 75 % 1010,0 hPa 0,0 l/m 10,1 km/h (2 Bft) NO 52 0 min 0,000 mm 0,0 UV-I 0 W/m 7,6 C 9,6 C 14,5 km/h (3 Bft) 95,65 %
11.04.2016 20:00 11,8 C 75 % 1010,0 hPa 0,0 l/m 10,1 km/h (2 Bft) NO 50 0 min 0,000 mm 0,0 UV-I 0 W/m 7,5 C 9,5 C 14,5 km/h (3 Bft) 95,83 %
11.04.2016 20:01 11,8 C 75 % 1010,0 hPa 0,0 l/m 9,7 km/h (2 Bft) NO 46 0 min 0,076 mm 0,0 UV-I 0 W/m 7,5 C 9,7 C 14,5 km/h (3 Bft) 95,83 %
11.04.2016 20:02 11,8 C 75 % 1010,0 hPa 0,0 l/m 11,0 km/h (2 Bft) O-NO 61 0 min 0,000 mm 0,0 UV-I 0 W/m 7,5 C 9,1 C 16,1 km/h (3 Bft) 100,00 %
11.04.2016 20:03 11,8 C 76 % 1010,1 hPa 0,0 l/m 8,4 km/h (2 Bft) NO 46 0 min 0,000 mm 0,0 UV-I 0 W/m 7,7 C 10,5 C 9,7 km/h (2 Bft) 91,67 %
11.04.2016 20:04 11,7 C 76 % 1010,1 hPa 0,0 l/m 8,4 km/h (2 Bft) O-NO 72 0 min 0,000 mm 0,0 UV-I 0 W/m 7,6 C 10,4 C 11,3 km/h (2 Bft) 96,15 %
11.04.2016 20:05 11,6 C 76 % 1010,1 hPa 0,0 l/m 8,9 km/h (2 Bft) NO 55 0 min 0,000 mm 0,0 UV-I 0 W/m 7,5 C 10,0 C 12,9 km/h (3 Bft) 96,67 %
11.04.2016 20:06 11,6 C 77 % 1010,2 hPa 0,0 l/m 8,5 km/h (2 Bft) NO 52 0 min 0,000 mm 0,0 UV-I 0 W/m 7,7 C 10,2 C 9,7 km/h (2 Bft) 100,00 %
11.04.2016 20:07 11,5 C 77 % 1010,2 hPa 0,0 l/m 9,8 km/h (2 Bft) O-NO 61 0 min 0,000 mm 0,0 UV-I 0 W/m 7,6 C 9,4 C 12,9 km/h (3 Bft) 96,97 %
11.04.2016 20:08 11,4 C 78 % 1010,3 hPa 0,0 l/m 6,6 km/h (2 Bft) O-NO 65 0 min 0,000 mm 0,0 UV-I 0 W/m 7,7 C 11,3 C 11,3 km/h (2 Bft) 100,00 %
11.04.2016 20:09 11,3 C 78 % 1010,3 hPa 0,0 l/m 4,8 km/h (1 Bft) NO 38 0 min 0,000 mm 0,0 UV-I 0 W/m 7,6 C 11,3 C 8,0 km/h (2 Bft) 95,83 %
11.04.2016 20:10 11,3 C 78 % 1010,3 hPa 0,0 l/m 7,2 km/h (2 Bft) O-NO 61 0 min 0,000 mm 0,0 UV-I 0 W/m 7,6 C 10,8 C 9,7 km/h (2 Bft) 96,15 %
11.04.2016 20:11 11,2 C 78 % 1010,3 hPa 0,0 l/m 8,5 km/h (2 Bft) NO 52 0 min 0,000 mm 0,0 UV-I 0 W/m 7,5 C 9,8 C 12,9 km/h (3 Bft) 100,00 %
11.04.2016 20:12 11,2 C 79 % 1010,3 hPa 0,0 l/m 8,4 km/h (2 Bft) O 86 0 min 0,000 mm 0,0 UV-I 0 W/m 7,7 C 9,9 C 12,9 km/h (3 Bft) 91,30 %
11.04.2016 20:13 11,1 C 79 % 1010,3 hPa 0,0 l/m 7,6 km/h (2 Bft) NO 49 0 min 0,000 mm 0,0 UV-I 0 W/m 7,6 C 10,3 C 11,3 km/h (2 Bft) 95,83 %
11.04.2016 20:14 11,1 C 79 % 1010,3 hPa 0,0 l/m 12,2 km/h (2 Bft) NO 53 0 min 0,000 mm 0,0 UV-I 0 W/m 7,6 C 7,7 C 16,1 km/h (3 Bft) 100,00 %
11.04.2016 20:15 11,1 C 79 % 1010,4 hPa 0,0 l/m 13,1 km/h (3 Bft) NO 49 0 min 0,000 mm 0,0 UV-I 0 W/m 7,6 C 7,3 C 19,3 km/h (3 Bft) 100,00 %
11.04.2016 20:16 11,1 C 78 % 1010,4 hPa 0,0 l/m 13,4 km/h (3 Bft) NO 53 0 min 0,000 mm 0,0 UV-I 0 W/m 7,4 C 7,1 C 22,5 km/h (4 Bft) 100,00 %
11.04.2016 20:17 11,1 C 78 % 1010,4 hPa 0,0 l/m 13,7 km/h (3 Bft) O-NO 69 0 min 0,000 mm 0,0 UV-I 0 W/m 7,4 C 7,0 C 20,9 km/h (4 Bft) 100,00 %
11.04.2016 20:18 11,1 C 78 % 1010,4 hPa 0,0 l/m 11,0 km/h (2 Bft) O-NO 65 0 min 0,000 mm 0,0 UV-I 0 W/m 7,4 C 8,3 C 14,5 km/h (3 Bft) 100,00 %
11.04.2016 20:19 11,1 C 79 % 1010,5 hPa 0,0 l/m 11,8 km/h (2 Bft) O-NO 65 0 min 0,000 mm 0,0 UV-I 0 W/m 7,6 C 7,9 C 16,1 km/h (3 Bft) 100,00 %
11.04.2016 20:20 11,1 C 78 % 1010,5 hPa 0,0 l/m 13,6 km/h (3 Bft) O-NO 61 0 min 0,000 mm 0,0 UV-I 0 W/m 7,4 C 7,1 C 19,3 km/h (3 Bft) 100,00 %
11.04.2016 20:21 11,0 C 78 % 1010,5 hPa 0,0 l/m 14,3 km/h (3 Bft) O-NO 63 0 min 0,000 mm 0,0 UV-I 0 W/m 7,3 C 6,6 C 19,3 km/h (3 Bft) 92,86 %
11.04.2016 20:22 11,0 C 78 % 1010,5 hPa 0,0 l/m 13,0 km/h (3 Bft) NO 55 0 min 0,000 mm 0,0 UV-I 0 W/m 7,3 C 7,2 C 17,7 km/h (3 Bft) 100,00 %
11.04.2016 20:23 11,0 C 78 % 1010,5 hPa 0,0 l/m 15,2 km/h (3 Bft) NO 44 0 min 0,000 mm 0,0 UV-I 0 W/m 7,3 C 6,3 C 19,3 km/h (3 Bft) 95,65 %
11.04.2016 20:24 11,0 C 78 % 1010,5 hPa 0,0 l/m 15,6 km/h (3 Bft) O-NO 62 0 min 0,000 mm 0,0 UV-I 0 W/m 7,3 C 6,1 C 20,9 km/h (4 Bft) 100,00 %
11.04.2016 20:25 11,0 C 78 % 1010,5 hPa 0,0 l/m 12,5 km/h (3 Bft) NO 54 0 min 0,000 mm 0,0 UV-I 0 W/m 7,3 C 7,4 C 19,3 km/h (3 Bft) 100,00 %
11.04.2016 20:26 11,0 C 79 % 1010,5 hPa 0,0 l/m 11,5 km/h (2 Bft) O-NO 63 0 min 0,000 mm 0,0 UV-I 0 W/m 7,5 C 7,9 C 14,5 km/h (3 Bft) 100,00 %
11.04.2016 20:27 11,0 C 79 % 1010,5 hPa 0,0 l/m 10,9 km/h (2 Bft) NO 44 0 min 0,000 mm 0,0 UV-I 0 W/m 7,5 C 8,2 C 14,5 km/h (3 Bft) 91,30 %
11.04.2016 20:28 11,0 C 79 % 1010,5 hPa 0,0 l/m 11,6 km/h (2 Bft) NO 55 0 min 0,000 mm 0,0 UV-I 0 W/m 7,5 C 7,9 C 14,5 km/h (3 Bft) 98,61 %
11.04.2016 20:29 10,9 C 79 % 1010,6 hPa 0,0 l/m 11,5 km/h (2 Bft) O-NO 68 0 min 0,000 mm 0,0 UV-I 0 W/m 7,4 C 7,8 C 16,1 km/h (3 Bft) 100,00 %
11.04.2016 20:30 10,9 C 79 % 1010,5 hPa 0,0 l/m 11,1 km/h (2 Bft) O-NO 57 0 min 0,000 mm 0,0 UV-I 0 W/m 7,4 C 8,0 C 16,1 km/h (3 Bft) 100,00 %
11.04.2016 20:31 10,9 C 79 % 1010,6 hPa 0,0 l/m 11,5 km/h (2 Bft) NO 50 0 min 0,000 mm 0,0 UV-I 0 W/m 7,4 C 7,8 C 14,5 km/h (3 Bft) 100,00 %
11.04.2016 20:32 10,8 C 79 % 1010,6 hPa 0,0 l/m 10,3 km/h (2 Bft) NO 56 0 min 0,000 mm 0,0 UV-I 0 W/m 7,3 C 8,3 C 14,5 km/h (3 Bft) 100,00 %
11.04.2016 20:33 10,8 C 79 % 1010,6 hPa 0,0 l/m 11,9 km/h (2 Bft) O-NO 65 0 min 0,000 mm 0,0 UV-I 0 W/m 7,3 C 7,5 C 16,1 km/h (3 Bft) 100,00 %
11.04.2016 20:34 10,8 C 79 % 1010,5 hPa 0,0 l/m 12,8 km/h (3 Bft) NO 51 0 min 0,000 mm 0,0 UV-I 0 W/m 7,3 C 7,1 C 16,1 km/h (3 Bft) 100,00 %
11.04.2016 20:35 10,7 C 80 % 1010,5 hPa 0,0 l/m 11,4 km/h (2 Bft) O-NO 70 0 min 0,000 mm 0,0 UV-I 0 W/m 7,4 C 7,6 C 14,5 km/h (3 Bft) 100,00 %
11.04.2016 20:36 10,7 C 80 % 1010,5 hPa 0,0 l/m 12,5 km/h (3 Bft) O-NO 61 0 min 0,000 mm 0,0 UV-I 0 W/m 7,4 C 7,1 C 17,7 km/h (3 Bft) 100,00 %
11.04.2016 20:37 10,7 C 80 % 1010,5 hPa 0,0 l/m 14,6 km/h (3 Bft) O-NO 63 0 min 0,000 mm 0,0 UV-I 0 W/m 7,4 C 6,1 C 20,9 km/h (4 Bft) 100,00 %
11.04.2016 20:38 10,7 C 80 % 1010,5 hPa 0,0 l/m 15,2 km/h (3 Bft) O 84 0 min 0,000 mm 0,0 UV-I 0 W/m 7,4 C 5,9 C 20,9 km/h (4 Bft) 100,00 %
11.04.2016 20:39 10,7 C 80 % 1010,5 hPa 0,0 l/m 13,9 km/h (3 Bft) O 89 0 min 0,000 mm 0,0 UV-I 0 W/m 7,4 C 6,4 C 20,9 km/h (4 Bft) 100,00 %
11.04.2016 20:40 10,7 C 80 % 1010,5 hPa 0,0 l/m 20,3 km/h (4 Bft) O-NO 62 0 min 0,000 mm 0,0 UV-I 0 W/m 7,4 C 4,1 C 27,4 km/h (4 Bft) 100,00 %
11.04.2016 20:41 10,7 C 80 % 1010,5 hPa 0,0 l/m 19,7 km/h (3 Bft) O-NO 75 0 min 0,000 mm 0,0 UV-I 0 W/m 7,4 C 4,3 C 27,4 km/h (4 Bft) 100,00 %
11.04.2016 20:42 10,7 C 80 % 1010,5 hPa 0,0 l/m 19,8 km/h (3 Bft) O-NO 64 0 min 0,000 mm 0,0 UV-I 0 W/m 7,4 C 4,3 C 24,1 km/h (4 Bft) 100,00 %
11.04.2016 20:43 10,7 C 80 % 1010,5 hPa 0,0 l/m 19,2 km/h (3 Bft) O-NO 67 0 min 0,000 mm 0,0 UV-I 0 W/m 7,4 C 4,4 C 22,5 km/h (4 Bft) 100,00 %
11.04.2016 20:44 10,7 C 80 % 1010,5 hPa 0,0 l/m 17,7 km/h (3 Bft) O-NO 74 0 min 0,000 mm 0,0 UV-I 0 W/m 7,4 C 5,0 C 29,0 km/h (5 Bft) 96,15 %
11.04.2016 20:45 10,7 C 80 % 1010,5 hPa 0,0 l/m 17,9 km/h (3 Bft) NO 55 0 min 0,000 mm 0,0 UV-I 0 W/m 7,4 C 4,9 C 22,5 km/h (4 Bft) 100,00 %
11.04.2016 20:46 10,6 C 80 % 1010,5 hPa 0,0 l/m 19,1 km/h (3 Bft) NO 38 0 min 0,000 mm 0,0 UV-I 0 W/m 7,3 C 4,4 C 25,7 km/h (4 Bft) 100,00 %
11.04.2016 20:47 10,6 C 80 % 1010,6 hPa 0,0 l/m 19,5 km/h (3 Bft) O 80 0 min 0,000 mm 0,0 UV-I 0 W/m 7,3 C 4,2 C 29,0 km/h (5 Bft) 100,00 %
11.04.2016 20:48 10,6 C 80 % 1010,6 hPa 0,0 l/m 20,5 km/h (4 Bft) O-NO 67 0 min 0,000 mm 0,0 UV-I 0 W/m 7,3 C 3,9 C 27,4 km/h (4 Bft) 95,65 %
11.04.2016 20:49 10,6 C 80 % 1010,5 hPa 0,0 l/m 20,6 km/h (4 Bft) O 80 0 min 0,000 mm 0,0 UV-I 0 W/m 7,3 C 3,9 C 27,4 km/h (4 Bft) 100,00 %
11.04.2016 20:50 10,6 C 80 % 1010,6 hPa 0,0 l/m 19,2 km/h (3 Bft) NO 47 0 min 0,000 mm 0,0 UV-I 0 W/m 7,3 C 4,3 C 25,7 km/h (4 Bft) 100,00 %
11.04.2016 20:51 10,6 C 80 % 1010,6 hPa 0,0 l/m 16,7 km/h (3 Bft) O-NO 72 0 min 0,000 mm 0,0 UV-I 0 W/m 7,3 C 5,2 C 27,4 km/h (4 Bft) 100,00 %
11.04.2016 20:52 10,6 C 80 % 1010,6 hPa 0,0 l/m 19,7 km/h (3 Bft) O-NO 71 0 min 0,000 mm 0,0 UV-I 0 W/m 7,3 C 4,2 C 27,4 km/h (4 Bft) 100,00 %
11.04.2016 20:53 10,5 C 80 % 1010,6 hPa 0,0 l/m 14,9 km/h (3 Bft) O 83 0 min 0,000 mm 0,0 UV-I 0 W/m 7,2 C 5,8 C 17,7 km/h (3 Bft) 100,00 %
11.04.2016 20:54 10,5 C 80 % 1010,6 hPa 0,0 l/m 15,8 km/h (3 Bft) NO 51 0 min 0,000 mm 0,0 UV-I 0 W/m 7,2 C 5,4 C 22,5 km/h (4 Bft) 100,00 %
11.04.2016 20:55 10,5 C 80 % 1010,7 hPa 0,0 l/m 19,4 km/h (3 Bft) O-NO 74 0 min 0,000 mm 0,0 UV-I 0 W/m 7,2 C 4,1 C 25,7 km/h (4 Bft) 100,00 %
11.04.2016 20:56 10,5 C 80 % 1010,6 hPa 0,0 l/m 19,4 km/h (3 Bft) NO 56 0 min 0,000 mm 0,0 UV-I 0 W/m 7,2 C 4,1 C 24,1 km/h (4 Bft) 100,00 %
11.04.2016 20:57 10,4 C 80 % 1010,6 hPa 0,0 l/m 19,5 km/h (3 Bft) O 91 0 min 0,000 mm 0,0 UV-I 0 W/m 7,1 C 4,0 C 27,4 km/h (4 Bft) 100,00 %
11.04.2016 20:58 10,4 C 80 % 1010,6 hPa 0,0 l/m 16,0 km/h (3 Bft) O-NO 78 0 min 0,000 mm 0,0 UV-I 0 W/m 7,1 C 5,2 C 20,9 km/h (4 Bft) 96,30 %
11.04.2016 20:59 10,4 C 80 % 1010,7 hPa 0,0 l/m 16,8 km/h (3 Bft) NO 55 0 min 0,000 mm 0,0 UV-I 0 W/m 7,1 C 4,9 C 24,1 km/h (4 Bft) 100,00 %
11.04.2016 21:00 10,4 C 81 % 1010,7 hPa 0,0 l/m 15,9 km/h (3 Bft) O-NO 76 0 min 0,026 mm 0,0 UV-I 0 W/m 7,3 C 5,3 C 22,5 km/h (4 Bft) 100,00 %
11.04.2016 21:01 10,4 C 81 % 1010,7 hPa 0,0 l/m 15,9 km/h (3 Bft) O-NO 62 0 min 0,000 mm 0,0 UV-I 0 W/m 7,3 C 5,3 C 20,9 km/h (4 Bft) 100,00 %
11.04.2016 21:02 10,3 C 81 % 1010,6 hPa 0,0 l/m 16,9 km/h (3 Bft) O-NO 71 0 min 0,000 mm 0,0 UV-I 0 W/m 7,2 C 4,7 C 22,5 km/h (4 Bft) 96,30 %
11.04.2016 21:03 10,3 C 81 % 1010,7 hPa 0,0 l/m 17,2 km/h (3 Bft) O 86 0 min 0,000 mm 0,0 UV-I 0 W/m 7,2 C 4,6 C 22,5 km/h (4 Bft) 100,00 %
11.04.2016 21:04 10,3 C 81 % 1010,7 hPa 0,0 l/m 16,1 km/h (3 Bft) O-NO 57 0 min 0,000 mm 0,0 UV-I 0 W/m 7,2 C 5,1 C 22,5 km/h (4 Bft) 100,00 %
11.04.2016 21:05 10,3 C 81 % 1010,7 hPa 0,0 l/m 16,9 km/h (3 Bft) NO 46 0 min 0,000 mm 0,0 UV-I 0 W/m 7,2 C 4,7 C 22,5 km/h (4 Bft) 100,00 %
11.04.2016 21:06 10,2 C 81 % 1010,8 hPa 0,0 l/m 15,1 km/h (3 Bft) O 86 0 min 0,000 mm 0,0 UV-I 0 W/m 7,1 C 5,3 C 17,7 km/h (3 Bft) 91,67 %
11.04.2016 21:07 10,2 C 81 % 1010,8 hPa 0,0 l/m 15,0 km/h (3 Bft) NO 53 0 min 0,000 mm 0,0 UV-I 0 W/m 7,1 C 5,4 C 19,3 km/h (3 Bft) 100,00 %
11.04.2016 21:08 10,2 C 82 % 1010,8 hPa 0,0 l/m 13,8 km/h (3 Bft) O-NO 77 0 min 0,000 mm 0,0 UV-I 0 W/m 7,3 C 5,9 C 19,3 km/h (3 Bft) 96,67 %
11.04.2016 21:09 10,2 C 82 % 1010,8 hPa 0,0 l/m 15,9 km/h (3 Bft) O-NO 74 0 min 0,000 mm 0,0 UV-I 0 W/m 7,3 C 5,0 C 19,3 km/h (3 Bft) 100,00 %
11.04.2016 21:10 10,2 C 82 % 1010,9 hPa 0,0 l/m 16,7 km/h (3 Bft) NO 51 0 min 0,000 mm 0,0 UV-I 0 W/m 7,3 C 4,7 C 22,5 km/h (4 Bft) 100,00 %
11.04.2016 21:11 10,1 C 82 % 1010,9 hPa 0,0 l/m 12,0 km/h (2 Bft) O-NO 65 0 min 0,000 mm 0,0 UV-I 0 W/m 7,2 C 6,6 C 17,7 km/h (3 Bft) 95,65 %
11.04.2016 21:12 10,1 C 82 % 1010,9 hPa 0,0 l/m 14,6 km/h (3 Bft) O-NO 76 0 min 0,000 mm 0,0 UV-I 0 W/m 7,2 C 5,4 C 22,5 km/h (4 Bft) 100,00 %
11.04.2016 21:13 10,1 C 82 % 1010,9 hPa 0,0 l/m 14,4 km/h (3 Bft) O-NO 71 0 min 0,000 mm 0,0 UV-I 0 W/m 7,2 C 5,5 C 19,3 km/h (3 Bft) 100,00 %
11.04.2016 21:14 10,1 C 82 % 1011,0 hPa 0,0 l/m 14,1 km/h (3 Bft) O 84 0 min 0,000 mm 0,0 UV-I 0 W/m 7,2 C 5,6 C 17,7 km/h (3 Bft) 100,00 %
11.04.2016 21:15 10,0 C 82 % 1011,1 hPa 0,0 l/m 13,6 km/h (3 Bft) O-NO 62 0 min 0,000 mm 0,0 UV-I 0 W/m 7,1 C 5,7 C 19,3 km/h (3 Bft) 100,00 %
11.04.2016 21:16 9,9 C 82 % 1011,0 hPa 0,0 l/m 15,0 km/h (3 Bft) O-NO 74 0 min 0,000 mm 0,0 UV-I 0 W/m 7,0 C 5,0 C 24,1 km/h (4 Bft) 100,00 %
11.04.2016 21:17 9,9 C 82 % 1011,1 hPa 0,0 l/m 16,6 km/h (3 Bft) O-NO 59 0 min 0,000 mm 0,0 UV-I 0 W/m 7,0 C 4,4 C 20,9 km/h (4 Bft) 98,65 %
11.04.2016 21:18 9,9 C 82 % 1011,1 hPa 0,0 l/m 18,0 km/h (3 Bft) O 84 0 min 0,000 mm 0,0 UV-I 0 W/m 7,0 C 3,8 C 24,1 km/h (4 Bft) 100,00 %
11.04.2016 21:19 9,9 C 82 % 1011,1 hPa 0,0 l/m 17,3 km/h (3 Bft) O-NO 65 0 min 0,000 mm 0,0 UV-I 0 W/m 7,0 C 4,1 C 20,9 km/h (4 Bft) 100,00 %
11.04.2016 21:20 9,9 C 82 % 1011,1 hPa 0,0 l/m 18,4 km/h (3 Bft) O 82 0 min 0,000 mm 0,0 UV-I 0 W/m 7,0 C 3,7 C 25,7 km/h (4 Bft) 100,00 %
11.04.2016 21:21 9,9 C 82 % 1011,0 hPa 0,0 l/m 16,7 km/h (3 Bft) O-NO 61 0 min 0,000 mm 0,0 UV-I 0 W/m 7,0 C 4,3 C 20,9 km/h (4 Bft) 100,00 %
11.04.2016 21:22 9,9 C 82 % 1011,0 hPa 0,0 l/m 15,1 km/h (3 Bft) O 80 0 min 0,000 mm 0,0 UV-I 0 W/m 7,0 C 5,0 C 19,3 km/h (3 Bft) 100,00 %
11.04.2016 21:23 9,9 C 82 % 1011,0 hPa 0,0 l/m 18,3 km/h (3 Bft) NO 42 0 min 0,000 mm 0,0 UV-I 0 W/m 7,0 C 3,7 C 24,1 km/h (4 Bft) 100,00 %
11.04.2016 21:24 9,9 C 83 % 1011,0 hPa 0,0 l/m 18,3 km/h (3 Bft) O-NO 77 0 min 0,000 mm 0,0 UV-I 0 W/m 7,2 C 3,7 C 22,5 km/h (4 Bft) 100,00 %
11.04.2016 21:25 9,8 C 83 % 1011,0 hPa 0,0 l/m 19,5 km/h (3 Bft) O-NO 69 0 min 0,000 mm 0,0 UV-I 0 W/m 7,1 C 3,2 C 30,6 km/h (5 Bft) 96,30 %
11.04.2016 21:26 9,8 C 83 % 1010,9 hPa 0,0 l/m 16,9 km/h (3 Bft) O 84 0 min 0,000 mm 0,0 UV-I 0 W/m 7,1 C 4,1 C 20,9 km/h (4 Bft) 100,00 %
11.04.2016 21:27 9,8 C 83 % 1010,9 hPa 0,0 l/m 16,6 km/h (3 Bft) O 92 0 min 0,000 mm 0,0 UV-I 0 W/m 7,1 C 4,2 C 19,3 km/h (3 Bft) 100,00 %
11.04.2016 21:28 9,8 C 83 % 1011,0 hPa 0,0 l/m 13,7 km/h (3 Bft) O 92 0 min 0,000 mm 0,0 UV-I 0 W/m 7,1 C 5,5 C 19,3 km/h (3 Bft) 96,15 %
11.04.2016 21:29 9,8 C 83 % 1011,0 hPa 0,0 l/m 15,8 km/h (3 Bft) O 79 0 min 0,000 mm 0,0 UV-I 0 W/m 7,1 C 4,6 C 22,5 km/h (4 Bft) 95,83 %
11.04.2016 21:30 9,8 C 83 % 1011,1 hPa 0,0 l/m 16,8 km/h (3 Bft) O 85 0 min 0,000 mm 0,0 UV-I 0 W/m 7,1 C 4,2 C 24,1 km/h (4 Bft) 100,00 %
11.04.2016 21:31 9,7 C 83 % 1011,0 hPa 0,0 l/m 15,1 km/h (3 Bft) O-NO 70 0 min 0,000 mm 0,0 UV-I 0 W/m 7,0 C 4,7 C 20,9 km/h (4 Bft) 100,00 %
11.04.2016 21:32 9,7 C 83 % 1011,0 hPa 0,0 l/m 17,6 km/h (3 Bft) O 97 0 min 0,000 mm 0,0 UV-I 0 W/m 7,0 C 3,7 C 25,7 km/h (4 Bft) 96,15 %
11.04.2016 21:33 9,7 C 83 % 1011,0 hPa 0,0 l/m 17,3 km/h (3 Bft) O-NO 76 0 min 0,000 mm 0,0 UV-I 0 W/m 7,0 C 3,9 C 22,5 km/h (4 Bft) 100,00 %
11.04.2016 21:34 9,7 C 83 % 1011,0 hPa 0,0 l/m 17,4 km/h (3 Bft) O 87 0 min 0,000 mm 0,0 UV-I 0 W/m 7,0 C 3,8 C 22,5 km/h (4 Bft) 100,00 %
11.04.2016 21:35 9,7 C 83 % 1011,1 hPa 0,0 l/m 17,6 km/h (3 Bft) O 83 0 min 0,000 mm 0,0 UV-I 0 W/m 7,0 C 3,7 C 22,5 km/h (4 Bft) 100,00 %
11.04.2016 21:36 9,7 C 83 % 1011,1 hPa 0,0 l/m 13,9 km/h (3 Bft) O-NO 69 0 min 0,000 mm 0,0 UV-I 0 W/m 7,0 C 5,3 C 17,7 km/h (3 Bft) 100,00 %
11.04.2016 21:37 9,7 C 83 % 1011,1 hPa 0,0 l/m 17,1 km/h (3 Bft) O-NO 71 0 min 0,000 mm 0,0 UV-I 0 W/m 7,0 C 3,9 C 20,9 km/h (4 Bft) 96,88 %
11.04.2016 21:38 9,7 C 83 % 1011,1 hPa 0,0 l/m 16,2 km/h (3 Bft) O-NO 65 0 min 0,000 mm 0,0 UV-I 0 W/m 7,0 C 4,3 C 19,3 km/h (3 Bft) 100,00 %
11.04.2016 21:39 9,6 C 83 % 1011,1 hPa 0,0 l/m 16,7 km/h (3 Bft) O-NO 63 0 min 0,000 mm 0,0 UV-I 0 W/m 6,9 C 4,0 C 20,9 km/h (4 Bft) 96,15 %
11.04.2016 21:40 9,6 C 83 % 1011,2 hPa 0,0 l/m 17,4 km/h (3 Bft) O-NO 74 0 min 0,000 mm 0,0 UV-I 0 W/m 6,9 C 3,7 C 24,1 km/h (4 Bft) 100,00 %
11.04.2016 21:41 9,6 C 83 % 1011,1 hPa 0,0 l/m 16,7 km/h (3 Bft) O-NO 75 0 min 0,000 mm 0,0 UV-I 0 W/m 6,9 C 4,0 C 19,3 km/h (3 Bft) 100,00 %
11.04.2016 21:42 9,6 C 84 % 1011,2 hPa 0,0 l/m 16,3 km/h (3 Bft) O 81 0 min 0,000 mm 0,0 UV-I 0 W/m 7,0 C 4,1 C 20,9 km/h (4 Bft) 95,83 %
11.04.2016 21:43 9,6 C 84 % 1011,2 hPa 0,0 l/m 15,3 km/h (3 Bft) O-NO 74 0 min 0,000 mm 0,0 UV-I 0 W/m 7,0 C 4,5 C 19,3 km/h (3 Bft) 95,65 %
11.04.2016 21:44 9,6 C 84 % 1011,2 hPa 0,0 l/m 17,5 km/h (3 Bft) O-NO 74 0 min 0,000 mm 0,0 UV-I 0 W/m 7,0 C 3,6 C 20,9 km/h (4 Bft) 95,83 %
11.04.2016 21:45 9,6 C 84 % 1011,2 hPa 0,0 l/m 18,7 km/h (3 Bft) O-NO 65 0 min 0,000 mm 0,0 UV-I 0 W/m 7,0 C 3,2 C 25,7 km/h (4 Bft) 96,15 %
11.04.2016 21:46 9,5 C 84 % 1011,1 hPa 0,0 l/m 19,2 km/h (3 Bft) O 80 0 min 0,000 mm 0,0 UV-I 0 W/m 6,9 C 2,9 C 24,1 km/h (4 Bft) 100,00 %
11.04.2016 21:47 9,5 C 84 % 1011,2 hPa 0,0 l/m 17,9 km/h (3 Bft) O-NO 62 0 min 0,000 mm 0,0 UV-I 0 W/m 6,9 C 3,4 C 25,7 km/h (4 Bft) 92,86 %
11.04.2016 21:48 9,5 C 84 % 1011,1 hPa 0,0 l/m 16,1 km/h (3 Bft) O-NO 74 0 min 0,000 mm 0,0 UV-I 0 W/m 6,9 C 4,1 C 20,9 km/h (4 Bft) 100,00 %
11.04.2016 21:49 9,4 C 84 % 1011,2 hPa 0,0 l/m 15,3 km/h (3 Bft) O-NO 59 0 min 0,000 mm 0,0 UV-I 0 W/m 6,8 C 4,3 C 24,1 km/h (4 Bft) 96,15 %
11.04.2016 21:50 9,4 C 84 % 1011,2 hPa 0,0 l/m 19,0 km/h (3 Bft) O-NO 67 0 min 0,000 mm 0,0 UV-I 0 W/m 6,8 C 2,9 C 24,1 km/h (4 Bft) 100,00 %
11.04.2016 21:51 9,4 C 84 % 1011,1 hPa 0,0 l/m 17,5 km/h (3 Bft) NO 45 0 min 0,000 mm 0,0 UV-I 0 W/m 6,8 C 3,4 C 20,9 km/h (4 Bft) 93,33 %
11.04.2016 21:52 9,4 C 84 % 1011,1 hPa 0,0 l/m 17,4 km/h (3 Bft) O-NO 68 0 min 0,000 mm 0,0 UV-I 0 W/m 6,8 C 3,4 C 24,1 km/h (4 Bft) 96,15 %
11.04.2016 21:53 9,4 C 84 % 1011,1 hPa 0,0 l/m 15,9 km/h (3 Bft) O-NO 74 0 min 0,000 mm 0,0 UV-I 0 W/m 6,8 C 4,0 C 20,9 km/h (4 Bft) 93,10 %
11.04.2016 21:54 9,4 C 84 % 1011,1 hPa 0,0 l/m 16,4 km/h (3 Bft) O-NO 78 0 min 0,000 mm 0,0 UV-I 0 W/m 6,8 C 3,8 C 20,9 km/h (4 Bft) 95,83 %
11.04.2016 21:55 9,3 C 84 % 1011,1 hPa 0,0 l/m 13,1 km/h (3 Bft) NO 55 0 min 0,000 mm 0,0 UV-I 0 W/m 6,7 C 5,2 C 16,1 km/h (3 Bft) 100,00 %
11.04.2016 21:56 9,3 C 84 % 1011,2 hPa 0,0 l/m 15,0 km/h (3 Bft) O-NO 62 0 min 0,000 mm 0,0 UV-I 0 W/m 6,7 C 4,3 C 19,3 km/h (3 Bft) 95,83 %
11.04.2016 21:57 9,3 C 84 % 1011,1 hPa 0,0 l/m 16,1 km/h (3 Bft) NO 51 0 min 0,000 mm 0,0 UV-I 0 W/m 6,7 C 3,8 C 25,7 km/h (4 Bft) 100,00 %
11.04.2016 21:58 9,3 C 84 % 1011,1 hPa 0,0 l/m 19,2 km/h (3 Bft) O 79 0 min 0,000 mm 0,0 UV-I 0 W/m 6,7 C 2,7 C 24,1 km/h (4 Bft) 95,83 %
11.04.2016 21:59 9,3 C 84 % 1011,1 hPa 0,0 l/m 15,6 km/h (3 Bft) O-NO 65 0 min 0,000 mm 0,0 UV-I 0 W/m 6,7 C 4,0 C 24,1 km/h (4 Bft) 95,83 %
11.04.2016 22:00 9,3 C 84 % 1011,2 hPa 0,0 l/m 18,0 km/h (3 Bft) O-NO 64 0 min 0,000 mm 0,0 UV-I 0 W/m 6,7 C 3,1 C 20,9 km/h (4 Bft) 90,91 %
11.04.2016 22:01 9,3 C 84 % 1011,2 hPa 0,0 l/m 14,2 km/h (3 Bft) O-NO 57 0 min 0,025 mm 0,0 UV-I 0 W/m 6,7 C 4,6 C 17,7 km/h (3 Bft) 100,00 %
11.04.2016 22:02 9,3 C 84 % 1011,2 hPa 0,0 l/m 16,3 km/h (3 Bft) O 83 0 min 0,000 mm 0,0 UV-I 0 W/m 6,7 C 3,7 C 22,5 km/h (4 Bft) 96,30 %
11.04.2016 22:03 9,3 C 84 % 1011,2 hPa 0,0 l/m 16,3 km/h (3 Bft) O-NO 69 0 min 0,000 mm 0,0 UV-I 0 W/m 6,7 C 3,7 C 24,1 km/h (4 Bft) 100,00 %
11.04.2016 22:04 9,3 C 84 % 1011,2 hPa 0,0 l/m 15,9 km/h (3 Bft) O-NO 76 0 min 0,000 mm 0,0 UV-I 0 W/m 6,7 C 3,9 C 19,3 km/h (3 Bft) 96,15 %
11.04.2016 22:05 9,3 C 84 % 1011,2 hPa 0,0 l/m 15,2 km/h (3 Bft) O 86 0 min 0,000 mm 0,0 UV-I 0 W/m 6,7 C 4,2 C 19,3 km/h (3 Bft) 96,30 %
11.04.2016 22:06 9,2 C 84 % 1011,2 hPa 0,0 l/m 13,2 km/h (3 Bft) O-NO 62 0 min 0,000 mm 0,0 UV-I 0 W/m 6,6 C 5,0 C 16,1 km/h (3 Bft) 100,00 %
11.04.2016 22:07 9,2 C 84 % 1011,3 hPa 0,0 l/m 12,0 km/h (2 Bft) O-NO 65 0 min 0,000 mm 0,0 UV-I 0 W/m 6,6 C 5,6 C 16,1 km/h (3 Bft) 91,67 %
11.04.2016 22:08 9,2 C 84 % 1011,3 hPa 0,0 l/m 12,4 km/h (3 Bft) O-NO 70 0 min 0,000 mm 0,0 UV-I 0 W/m 6,6 C 5,4 C 16,1 km/h (3 Bft) 100,00 %
11.04.2016 22:09 9,1 C 85 % 1011,3 hPa 0,0 l/m 13,9 km/h (3 Bft) O-NO 78 0 min 0,000 mm 0,0 UV-I 0 W/m 6,7 C 4,5 C 17,7 km/h (3 Bft) 97,56 %
11.04.2016 22:10 9,1 C 85 % 1011,3 hPa 0,0 l/m 12,4 km/h (3 Bft) O-NO 67 0 min 0,000 mm 0,0 UV-I 0 W/m 6,7 C 5,3 C 17,7 km/h (3 Bft) 95,65 %
11.04.2016 22:11 9,1 C 85 % 1011,3 hPa 0,0 l/m 14,4 km/h (3 Bft) NO 52 0 min 0,000 mm 0,0 UV-I 0 W/m 6,7 C 4,3 C 19,3 km/h (3 Bft) 100,00 %
11.04.2016 22:12 9,1 C 85 % 1011,3 hPa 0,0 l/m 9,8 km/h (2 Bft) O-NO 57 0 min 0,000 mm 0,0 UV-I 0 W/m 6,7 C 6,7 C 14,5 km/h (3 Bft) 96,15 %
11.04.2016 22:13 9,1 C 85 % 1011,3 hPa 0,0 l/m 10,8 km/h (2 Bft) O 81 0 min 0,000 mm 0,0 UV-I 0 W/m 6,7 C 6,1 C 16,1 km/h (3 Bft) 100,00 %
11.04.2016 22:14 9,0 C 85 % 1011,3 hPa 0,0 l/m 12,0 km/h (2 Bft) O-NO 62 0 min 0,000 mm 0,0 UV-I 0 W/m 6,6 C 5,4 C 14,5 km/h (3 Bft) 96,88 %
11.04.2016 22:15 9,0 C 85 % 1011,4 hPa 0,0 l/m 14,0 km/h (3 Bft) O 86 0 min 0,000 mm 0,0 UV-I 0 W/m 6,6 C 4,4 C 17,7 km/h (3 Bft) 100,00 %
11.04.2016 22:16 8,9 C 85 % 1011,4 hPa 0,0 l/m 15,4 km/h (3 Bft) O-NO 72 0 min 0,000 mm 0,0 UV-I 0 W/m 6,5 C 3,6 C 19,3 km/h (3 Bft) 100,00 %
11.04.2016 22:17 8,9 C 85 % 1011,4 hPa 0,0 l/m 13,8 km/h (3 Bft) O 96 0 min 0,000 mm 0,0 UV-I 0 W/m 6,5 C 4,3 C 17,7 km/h (3 Bft) 92,31 %
11.04.2016 22:18 8,9 C 85 % 1011,3 hPa 0,0 l/m 11,4 km/h (2 Bft) O-NO 76 0 min 0,000 mm 0,0 UV-I 0 W/m 6,5 C 5,6 C 14,5 km/h (3 Bft) 96,30 %
11.04.2016 22:19 8,9 C 85 % 1011,3 hPa 0,0 l/m 11,5 km/h (2 Bft) O-NO 73 0 min 0,000 mm 0,0 UV-I 0 W/m 6,5 C 5,5 C 16,1 km/h (3 Bft) 92,86 %
11.04.2016 22:20 8,9 C 85 % 1011,3 hPa 0,0 l/m 13,7 km/h (3 Bft) O-NO 67 0 min 0,000 mm 0,0 UV-I 0 W/m 6,5 C 4,4 C 16,1 km/h (3 Bft) 100,00 %
11.04.2016 22:21 8,9 C 85 % 1011,3 hPa 0,0 l/m 13,3 km/h (3 Bft) O-NO 66 0 min 0,000 mm 0,0 UV-I 0 W/m 6,5 C 4,6 C 17,7 km/h (3 Bft) 100,00 %
11.04.2016 22:22 8,9 C 85 % 1011,3 hPa 0,0 l/m 14,8 km/h (3 Bft) O 84 0 min 0,000 mm 0,0 UV-I 0 W/m 6,5 C 3,9 C 19,3 km/h (3 Bft) 100,00 %
11.04.2016 22:23 8,8 C 86 % 1011,3 hPa 0,0 l/m 13,7 km/h (3 Bft) O-NO 74 0 min 0,000 mm 0,0 UV-I 0 W/m 6,6 C 4,3 C 19,3 km/h (3 Bft) 100,00 %
11.04.2016 22:24 8,8 C 85 % 1011,3 hPa 0,0 l/m 10,6 km/h (2 Bft) O-NO 57 0 min 0,000 mm 0,0 UV-I 0 W/m 6,4 C 5,9 C 16,1 km/h (3 Bft) 100,00 %
11.04.2016 22:25 8,8 C 86 % 1011,3 hPa 0,0 l/m 13,7 km/h (3 Bft) O 85 0 min 0,000 mm 0,0 UV-I 0 W/m 6,6 C 4,3 C 16,1 km/h (3 Bft) 100,00 %
11.04.2016 22:26 8,8 C 86 % 1011,3 hPa 0,0 l/m 9,7 km/h (2 Bft) NO 55 0 min 0,000 mm 0,0 UV-I 0 W/m 6,6 C 6,5 C 14,5 km/h (3 Bft) 100,00 %
11.04.2016 22:27 8,8 C 86 % 1011,3 hPa 0,0 l/m 8,5 km/h (2 Bft) NO 46 0 min 0,000 mm 0,0 UV-I 0 W/m 6,6 C 7,2 C 11,3 km/h (2 Bft) 96,15 %
11.04.2016 22:28 8,8 C 86 % 1011,3 hPa 0,0 l/m 9,0 km/h (2 Bft) NO 49 0 min 0,000 mm 0,0 UV-I 0 W/m 6,6 C 6,9 C 14,5 km/h (3 Bft) 100,00 %
11.04.2016 22:29 8,7 C 86 % 1011,3 hPa 0,0 l/m 11,4 km/h (2 Bft) O-NO 59 0 min 0,000 mm 0,0 UV-I 0 W/m 6,5 C 5,3 C 16,1 km/h (3 Bft) 92,31 %
11.04.2016 22:30 8,7 C 86 % 1011,3 hPa 0,0 l/m 12,3 km/h (3 Bft) O-NO 67 0 min 0,000 mm 0,0 UV-I 0 W/m 6,5 C 4,9 C 19,3 km/h (3 Bft) 100,00 %
11.04.2016 22:31 8,7 C 86 % 1011,4 hPa 0,0 l/m 8,1 km/h (2 Bft) O-NO 71 0 min 0,000 mm 0,0 UV-I 0 W/m 6,5 C 7,4 C 12,9 km/h (3 Bft) 100,00 %
11.04.2016 22:32 8,7 C 86 % 1011,4 hPa 0,0 l/m 7,0 km/h (2 Bft) NO 54 0 min 0,000 mm 0,0 UV-I 0 W/m 6,5 C 8,2 C 8,0 km/h (2 Bft) 100,00 %
11.04.2016 22:33 8,7 C 86 % 1011,4 hPa 0,0 l/m 6,4 km/h (2 Bft) NO 35 0 min 0,000 mm 0,0 UV-I 0 W/m 6,5 C 8,7 C 9,7 km/h (2 Bft) 100,00 %
11.04.2016 22:34 8,7 C 86 % 1011,4 hPa 0,0 l/m 7,7 km/h (2 Bft) NO 51 0 min 0,000 mm 0,0 UV-I 0 W/m 6,5 C 7,7 C 9,7 km/h (2 Bft) 93,33 %
11.04.2016 22:35 8,6 C 86 % 1011,4 hPa 0,0 l/m 8,1 km/h (2 Bft) N-NO 15 0 min 0,000 mm 0,0 UV-I 0 W/m 6,4 C 7,3 C 14,5 km/h (3 Bft) 100,00 %
11.04.2016 22:36 8,5 C 86 % 1011,4 hPa 0,0 l/m 6,4 km/h (2 Bft) N-NO 33 0 min 0,000 mm 0,0 UV-I 0 W/m 6,3 C 8,5 C 8,0 km/h (2 Bft) 100,00 %
11.04.2016 22:37 8,4 C 86 % 1011,4 hPa 0,0 l/m 8,2 km/h (2 Bft) NO 36 0 min 0,000 mm 0,0 UV-I 0 W/m 6,2 C 7,0 C 9,7 km/h (2 Bft) 100,00 %
11.04.2016 22:38 8,3 C 87 % 1011,4 hPa 0,0 l/m 7,9 km/h (2 Bft) NO 53 0 min 0,000 mm 0,0 UV-I 0 W/m 6,3 C 7,1 C 9,7 km/h (2 Bft) 100,00 %
11.04.2016 22:39 8,3 C 87 % 1011,4 hPa 0,0 l/m 6,9 km/h (2 Bft) NO 48 0 min 0,000 mm 0,0 UV-I 0 W/m 6,3 C 7,9 C 9,7 km/h (2 Bft) 100,00 %
11.04.2016 22:40 8,3 C 87 % 1011,4 hPa 0,0 l/m 5,6 km/h (1 Bft) NO 40 0 min 0,000 mm 0,0 UV-I 0 W/m 6,3 C 8,3 C 8,0 km/h (2 Bft) 100,00 %
11.04.2016 22:41 8,3 C 87 % 1011,5 hPa 0,0 l/m 6,5 km/h (2 Bft) NO 44 0 min 0,000 mm 0,0 UV-I 0 W/m 6,3 C 8,2 C 9,7 km/h (2 Bft) 100,00 %
11.04.2016 22:42 8,2 C 88 % 1011,4 hPa 0,0 l/m 7,8 km/h (2 Bft) N-NO 33 0 min 0,000 mm 0,0 UV-I 0 W/m 6,3 C 7,1 C 11,3 km/h (2 Bft) 100,00 %
11.04.2016 22:43 8,2 C 88 % 1011,4 hPa 0,0 l/m 6,9 km/h (2 Bft) NO 40 0 min 0,000 mm 0,0 UV-I 0 W/m 6,3 C 7,8 C 9,7 km/h (2 Bft) 100,00 %
11.04.2016 22:44 8,2 C 88 % 1011,4 hPa 0,0 l/m 7,8 km/h (2 Bft) NO 38 0 min 0,000 mm 0,0 UV-I 0 W/m 6,3 C 7,1 C 12,9 km/h (3 Bft) 100,00 %
11.04.2016 22:45 8,2 C 88 % 1011,5 hPa 0,0 l/m 8,0 km/h (2 Bft) N-NO 20 0 min 0,000 mm 0,0 UV-I 0 W/m 6,3 C 7,0 C 12,9 km/h (3 Bft) 100,00 %
11.04.2016 22:46 8,1 C 88 % 1011,5 hPa 0,0 l/m 8,5 km/h (2 Bft) NO 41 0 min 0,000 mm 0,0 UV-I 0 W/m 6,2 C 6,5 C 12,9 km/h (3 Bft) 100,00 %
11.04.2016 22:47 8,1 C 88 % 1011,5 hPa 0,0 l/m 9,5 km/h (2 Bft) O-NO 65 0 min 0,000 mm 0,0 UV-I 0 W/m 6,2 C 5,8 C 12,9 km/h (3 Bft) 96,30 %
11.04.2016 22:48 8,1 C 88 % 1011,6 hPa 0,0 l/m 6,3 km/h (2 Bft) NO 47 0 min 0,000 mm 0,0 UV-I 0 W/m 6,2 C 8,1 C 8,0 km/h (2 Bft) 100,00 %
11.04.2016 22:49 8,1 C 88 % 1011,5 hPa 0,0 l/m 4,8 km/h (1 Bft) NO 37 0 min 0,000 mm 0,0 UV-I 0 W/m 6,2 C 8,1 C 6,4 km/h (2 Bft) 100,00 %
11.04.2016 22:50 8,1 C 88 % 1011,6 hPa 0,0 l/m 8,0 km/h (2 Bft) N-NO 19 0 min 0,000 mm 0,0 UV-I 0 W/m 6,2 C 6,9 C 11,3 km/h (2 Bft) 100,00 %
11.04.2016 22:51 8,1 C 88 % 1011,5 hPa 0,0 l/m 7,2 km/h (2 Bft) N-NO 32 0 min 0,000 mm 0,0 UV-I 0 W/m 6,2 C 7,5 C 12,9 km/h (3 Bft) 93,33 %
11.04.2016 22:52 8,1 C 88 % 1011,5 hPa 0,0 l/m 8,9 km/h (2 Bft) NO 47 0 min 0,000 mm 0,0 UV-I 0 W/m 6,2 C 6,2 C 14,5 km/h (3 Bft) 100,00 %
11.04.2016 22:53 8,1 C 88 % 1011,6 hPa 0,0 l/m 7,0 km/h (2 Bft) N-NO 32 0 min 0,000 mm 0,0 UV-I 0 W/m 6,2 C 7,6 C 9,7 km/h (2 Bft) 100,00 %
11.04.2016 22:54 8,0 C 89 % 1011,5 hPa 0,0 l/m 8,3 km/h (2 Bft) NO 42 0 min 0,000 mm 0,0 UV-I 0 W/m 6,3 C 6,5 C 9,7 km/h (2 Bft) 100,00 %
11.04.2016 22:55 8,0 C 89 % 1011,5 hPa 0,0 l/m 8,2 km/h (2 Bft) O-NO 69 0 min 0,000 mm 0,0 UV-I 0 W/m 6,3 C 6,6 C 9,7 km/h (2 Bft) 96,15 %
11.04.2016 22:56 8,0 C 89 % 1011,5 hPa 0,0 l/m 7,0 km/h (2 Bft) O-NO 57 0 min 0,000 mm 0,0 UV-I 0 W/m 6,3 C 7,5 C 9,7 km/h (2 Bft) 100,00 %
11.04.2016 22:57 8,1 C 89 % 1011,5 hPa 0,0 l/m 6,7 km/h (2 Bft) O-NO 63 0 min 0,000 mm 0,0 UV-I 0 W/m 6,4 C 7,9 C 8,0 km/h (2 Bft) 96,15 %
11.04.2016 22:58 8,1 C 88 % 1011,5 hPa 0,0 l/m 6,7 km/h (2 Bft) O 84 0 min 0,000 mm 0,0 UV-I 0 W/m 6,2 C 7,9 C 8,0 km/h (2 Bft) 100,00 %
11.04.2016 22:59 8,1 C 88 % 1011,4 hPa 0,0 l/m 5,5 km/h (1 Bft) O-NO 62 0 min 0,000 mm 0,0 UV-I 0 W/m 6,2 C 8,1 C 8,0 km/h (2 Bft) 100,00 %
11.04.2016 23:00 8,1 C 88 % 1011,5 hPa 0,0 l/m 4,5 km/h (1 Bft) NO 56 0 min 0,000 mm 0,0 UV-I 0 W/m 6,2 C 8,1 C 6,4 km/h (2 Bft) 100,00 %
11.04.2016 23:01 8,1 C 88 % 1011,5 hPa 0,0 l/m 3,9 km/h (1 Bft) NO 53 0 min 0,025 mm 0,0 UV-I 0 W/m 6,2 C 8,1 C 6,4 km/h (2 Bft) 100,00 %
11.04.2016 23:02 8,1 C 88 % 1011,5 hPa 0,0 l/m 5,0 km/h (1 Bft) NO 46 0 min 0,000 mm 0,0 UV-I 0 W/m 6,2 C 8,1 C 6,4 km/h (2 Bft) 100,00 %
11.04.2016 23:03 8,1 C 88 % 1011,5 hPa 0,0 l/m 5,5 km/h (1 Bft) O-NO 67 0 min 0,000 mm 0,0 UV-I 0 W/m 6,2 C 8,1 C 8,0 km/h (2 Bft) 100,00 %
11.04.2016 23:04 8,1 C 88 % 1011,5 hPa 0,0 l/m 4,0 km/h (1 Bft) O-NO 62 0 min 0,000 mm 0,0 UV-I 0 W/m 6,2 C 8,1 C 6,4 km/h (2 Bft) 100,00 %
11.04.2016 23:05 8,1 C 88 % 1011,5 hPa 0,0 l/m 4,1 km/h (1 Bft) O-NO 61 0 min 0,000 mm 0,0 UV-I 0 W/m 6,2 C 8,1 C 6,4 km/h (2 Bft) 100,00 %
11.04.2016 23:06 8,0 C 88 % 1011,5 hPa 0,0 l/m 3,8 km/h (1 Bft) NO 55 0 min 0,000 mm 0,0 UV-I 0 W/m 6,1 C 8,0 C 4,8 km/h (1 Bft) 100,00 %
11.04.2016 23:07 8,0 C 88 % 1011,5 hPa 0,0 l/m 4,9 km/h (1 Bft) O-NO 62 0 min 0,000 mm 0,0 UV-I 0 W/m 6,1 C 8,0 C 8,0 km/h (2 Bft) 100,00 %
11.04.2016 23:08 8,0 C 88 % 1011,5 hPa 0,0 l/m 4,3 km/h (1 Bft) O-NO 57 0 min 0,000 mm 0,0 UV-I 0 W/m 6,1 C 8,0 C 6,4 km/h (2 Bft) 100,00 %
11.04.2016 23:09 7,9 C 88 % 1011,6 hPa 0,0 l/m 5,4 km/h (1 Bft) O-NO 61 0 min 0,000 mm 0,0 UV-I 0 W/m 6,0 C 7,9 C 9,7 km/h (2 Bft) 100,00 %
11.04.2016 23:10 7,9 C 88 % 1011,6 hPa 0,0 l/m 6,1 km/h (2 Bft) O-NO 63 0 min 0,000 mm 0,0 UV-I 0 W/m 6,0 C 7,9 C 8,0 km/h (2 Bft) 100,00 %
11.04.2016 23:11 7,9 C 88 % 1011,5 hPa 0,0 l/m 5,6 km/h (1 Bft) NO 55 0 min 0,000 mm 0,0 UV-I 0 W/m 6,0 C 7,9 C 8,0 km/h (2 Bft) 95,83 %
11.04.2016 23:12 7,8 C 88 % 1011,6 hPa 0,0 l/m 6,7 km/h (2 Bft) O-NO 69 0 min 0,000 mm 0,0 UV-I 0 W/m 5,9 C 7,6 C 9,7 km/h (2 Bft) 100,00 %
11.04.2016 23:13 7,8 C 89 % 1011,6 hPa 0,0 l/m 7,0 km/h (2 Bft) NO 47 0 min 0,000 mm 0,0 UV-I 0 W/m 6,1 C 7,3 C 11,3 km/h (2 Bft) 100,00 %
11.04.2016 23:14 7,8 C 89 % 1011,5 hPa 0,0 l/m 7,2 km/h (2 Bft) NO 54 0 min 0,000 mm 0,0 UV-I 0 W/m 6,1 C 7,2 C 11,3 km/h (2 Bft) 100,00 %
11.04.2016 23:15 7,8 C 89 % 1011,6 hPa 0,0 l/m 6,2 km/h (2 Bft) O-NO 58 0 min 0,000 mm 0,0 UV-I 0 W/m 6,1 C 7,8 C 8,0 km/h (2 Bft) 100,00 %
11.04.2016 23:16 7,8 C 89 % 1011,6 hPa 0,0 l/m 6,3 km/h (2 Bft) O-NO 60 0 min 0,000 mm 0,0 UV-I 0 W/m 6,1 C 7,8 C 8,0 km/h (2 Bft) 100,00 %
11.04.2016 23:17 7,8 C 89 % 1011,6 hPa 0,0 l/m 5,1 km/h (1 Bft) NO 51 0 min 0,000 mm 0,0 UV-I 0 W/m 6,1 C 7,8 C 6,4 km/h (2 Bft) 100,00 %
11.04.2016 23:18 7,8 C 89 % 1011,6 hPa 0,0 l/m 3,8 km/h (1 Bft) NO 53 0 min 0,000 mm 0,0 UV-I 0 W/m 6,1 C 7,8 C 4,8 km/h (1 Bft) 100,00 %
11.04.2016 23:19 7,8 C 89 % 1011,5 hPa 0,0 l/m 5,7 km/h (1 Bft) NO 36 0 min 0,000 mm 0,0 UV-I 0 W/m 6,1 C 7,8 C 8,0 km/h (2 Bft) 100,00 %
11.04.2016 23:20 7,8 C 89 % 1011,6 hPa 0,0 l/m 4,7 km/h (1 Bft) O-NO 62 0 min 0,000 mm 0,0 UV-I 0 W/m 6,1 C 7,8 C 6,4 km/h (2 Bft) 92,31 %
11.04.2016 23:21 7,7 C 89 % 1011,5 hPa 0,0 l/m 5,3 km/h (1 Bft) N-NO 24 0 min 0,000 mm 0,0 UV-I 0 W/m 6,0 C 7,7 C 8,0 km/h (2 Bft) 100,00 %
11.04.2016 23:22 7,7 C 89 % 1011,5 hPa 0,0 l/m 5,4 km/h (1 Bft) O-NO 57 0 min 0,000 mm 0,0 UV-I 0 W/m 6,0 C 7,7 C 6,4 km/h (2 Bft) 100,00 %
11.04.2016 23:23 7,7 C 89 % 1011,6 hPa 0,0 l/m 5,2 km/h (1 Bft) O 82 0 min 0,000 mm 0,0 UV-I 0 W/m 6,0 C 7,7 C 8,0 km/h (2 Bft) 100,00 %
11.04.2016 23:24 7,7 C 89 % 1011,5 hPa 0,0 l/m 5,4 km/h (1 Bft) O-NO 61 0 min 0,000 mm 0,0 UV-I 0 W/m 6,0 C 7,7 C 9,7 km/h (2 Bft) 100,00 %
11.04.2016 23:25 7,7 C 89 % 1011,5 hPa 0,0 l/m 7,1 km/h (2 Bft) O-NO 67 0 min 0,000 mm 0,0 UV-I 0 W/m 6,0 C 7,1 C 11,3 km/h (2 Bft) 100,00 %
11.04.2016 23:26 7,7 C 89 % 1011,6 hPa 0,0 l/m 5,6 km/h (1 Bft) NO 56 0 min 0,000 mm 0,0 UV-I 0 W/m 6,0 C 7,7 C 8,0 km/h (2 Bft) 95,65 %
11.04.2016 23:27 7,7 C 89 % 1011,5 hPa 0,0 l/m 5,0 km/h (1 Bft) NO 55 0 min 0,000 mm 0,0 UV-I 0 W/m 6,0 C 7,7 C 6,4 km/h (2 Bft) 100,00 %
11.04.2016 23:28 7,7 C 89 % 1011,5 hPa 0,0 l/m 6,0 km/h (2 Bft) O-NO 61 0 min 0,000 mm 0,0 UV-I 0 W/m 6,0 C 7,7 C 8,0 km/h (2 Bft) 100,00 %
11.04.2016 23:29 7,7 C 89 % 1011,5 hPa 0,0 l/m 6,0 km/h (2 Bft) NO 52 0 min 0,000 mm 0,0 UV-I 0 W/m 6,0 C 7,7 C 8,0 km/h (2 Bft) 95,83 %
11.04.2016 23:30 7,7 C 89 % 1011,5 hPa 0,0 l/m 6,9 km/h (2 Bft) O-NO 64 0 min 0,000 mm 0,0 UV-I 0 W/m 6,0 C 7,3 C 8,0 km/h (2 Bft) 100,00 %
11.04.2016 23:31 7,7 C 89 % 1011,5 hPa 0,0 l/m 6,8 km/h (2 Bft) O-NO 61 0 min 0,000 mm 0,0 UV-I 0 W/m 6,0 C 7,4 C 8,0 km/h (2 Bft) 100,00 %
11.04.2016 23:32 7,7 C 89 % 1011,4 hPa 0,0 l/m 5,3 km/h (1 Bft) O-NO 71 0 min 0,000 mm 0,0 UV-I 0 W/m 6,0 C 7,7 C 8,0 km/h (2 Bft) 93,33 %
11.04.2016 23:33 7,7 C 89 % 1011,4 hPa 0,0 l/m 9,2 km/h (2 Bft) NO 53 0 min 0,000 mm 0,0 UV-I 0 W/m 6,0 C 5,6 C 12,9 km/h (3 Bft) 100,00 %
11.04.2016 23:34 7,7 C 89 % 1011,4 hPa 0,0 l/m 8,9 km/h (2 Bft) NO 56 0 min 0,000 mm 0,0 UV-I 0 W/m 6,0 C 5,8 C 14,5 km/h (3 Bft) 100,00 %
11.04.2016 23:35 7,7 C 89 % 1011,5 hPa 0,0 l/m 9,4 km/h (2 Bft) NO 54 0 min 0,000 mm 0,0 UV-I 0 W/m 6,0 C 5,4 C 12,9 km/h (3 Bft) 100,00 %
11.04.2016 23:36 7,7 C 89 % 1011,4 hPa 0,0 l/m 9,1 km/h (2 Bft) O-NO 59 0 min 0,000 mm 0,0 UV-I 0 W/m 6,0 C 5,6 C 14,5 km/h (3 Bft) 100,00 %
11.04.2016 23:37 7,7 C 89 % 1011,4 hPa 0,0 l/m 8,6 km/h (2 Bft) O-NO 63 0 min 0,000 mm 0,0 UV-I 0 W/m 6,0 C 6,0 C 14,5 km/h (3 Bft) 100,00 %
11.04.2016 23:38 7,7 C 89 % 1011,4 hPa 0,0 l/m 9,5 km/h (2 Bft) NO 44 0 min 0,000 mm 0,0 UV-I 0 W/m 6,0 C 5,4 C 14,5 km/h (3 Bft) 100,00 %
11.04.2016 23:39 7,7 C 89 % 1011,4 hPa 0,0 l/m 9,5 km/h (2 Bft) O-NO 74 0 min 0,000 mm 0,0 UV-I 0 W/m 6,0 C 5,4 C 12,9 km/h (3 Bft) 95,65 %
11.04.2016 23:40 7,7 C 89 % 1011,4 hPa 0,0 l/m 9,7 km/h (2 Bft) NO 47 0 min 0,000 mm 0,0 UV-I 0 W/m 6,0 C 5,2 C 12,9 km/h (3 Bft) 100,00 %
11.04.2016 23:41 7,7 C 89 % 1011,3 hPa 0,0 l/m 8,2 km/h (2 Bft) O-NO 71 0 min 0,000 mm 0,0 UV-I 0 W/m 6,0 C 6,3 C 9,7 km/h (2 Bft) 100,00 %
11.04.2016 23:42 7,7 C 89 % 1011,4 hPa 0,0 l/m 8,1 km/h (2 Bft) NO 34 0 min 0,000 mm 0,0 UV-I 0 W/m 6,0 C 6,4 C 9,7 km/h (2 Bft) 100,00 %
11.04.2016 23:43 7,7 C 89 % 1011,3 hPa 0,0 l/m 8,6 km/h (2 Bft) NO 42 0 min 0,000 mm 0,0 UV-I 0 W/m 6,0 C 6,0 C 12,9 km/h (3 Bft) 100,00 %
11.04.2016 23:44 7,7 C 89 % 1011,3 hPa 0,0 l/m 7,0 km/h (2 Bft) O-NO 59 0 min 0,000 mm 0,0 UV-I 0 W/m 6,0 C 7,2 C 8,0 km/h (2 Bft) 96,30 %
11.04.2016 23:45 7,7 C 89 % 1011,3 hPa 0,0 l/m 6,0 km/h (2 Bft) NO 54 0 min 0,000 mm 0,0 UV-I 0 W/m 6,0 C 7,7 C 8,0 km/h (2 Bft) 100,00 %
11.04.2016 23:46 7,6 C 89 % 1011,3 hPa 0,0 l/m 5,8 km/h (2 Bft) O-NO 57 0 min 0,000 mm 0,0 UV-I 0 W/m 5,9 C 7,6 C 8,0 km/h (2 Bft) 96,67 %
11.04.2016 23:47 7,6 C 89 % 1011,3 hPa 0,0 l/m 6,3 km/h (2 Bft) NO 41 0 min 0,000 mm 0,0 UV-I 0 W/m 5,9 C 7,6 C 8,0 km/h (2 Bft) 96,15 %
11.04.2016 23:48 7,4 C 89 % 1011,3 hPa 0,0 l/m 8,4 km/h (2 Bft) NO 53 0 min 0,000 mm 0,0 UV-I 0 W/m 5,7 C 5,8 C 11,3 km/h (2 Bft) 100,00 %
11.04.2016 23:49 7,4 C 89 % 1011,3 hPa 0,0 l/m 8,0 km/h (2 Bft) NO 44 0 min 0,000 mm 0,0 UV-I 0 W/m 5,7 C 6,1 C 9,7 km/h (2 Bft) 96,55 %
11.04.2016 23:50 7,3 C 90 % 1011,4 hPa 0,0 l/m 6,8 km/h (2 Bft) O-NO 60 0 min 0,000 mm 0,0 UV-I 0 W/m 5,8 C 7,0 C 8,0 km/h (2 Bft) 100,00 %
11.04.2016 23:51 7,3 C 90 % 1011,4 hPa 0,0 l/m 7,7 km/h (2 Bft) NO 42 0 min 0,000 mm 0,0 UV-I 0 W/m 5,8 C 6,2 C 9,7 km/h (2 Bft) 96,15 %
11.04.2016 23:52 7,3 C 90 % 1011,3 hPa 0,0 l/m 8,0 km/h (2 Bft) NO 52 0 min 0,000 mm 0,0 UV-I 0 W/m 5,8 C 6,0 C 11,3 km/h (2 Bft) 95,83 %
11.04.2016 23:53 7,3 C 90 % 1011,3 hPa 0,0 l/m 8,8 km/h (2 Bft) O-NO 70 0 min 0,000 mm 0,0 UV-I 0 W/m 5,8 C 5,4 C 9,7 km/h (2 Bft) 91,67 %
11.04.2016 23:54 7,3 C 90 % 1011,4 hPa 0,0 l/m 8,7 km/h (2 Bft) O-NO 57 0 min 0,000 mm 0,0 UV-I 0 W/m 5,8 C 5,5 C 14,5 km/h (3 Bft) 100,00 %
11.04.2016 23:55 7,3 C 90 % 1011,4 hPa 0,0 l/m 9,0 km/h (2 Bft) O-NO 57 0 min 0,000 mm 0,0 UV-I 0 W/m 5,8 C 5,3 C 12,9 km/h (3 Bft) 95,83 %
11.04.2016 23:56 7,3 C 90 % 1011,4 hPa 0,0 l/m 8,1 km/h (2 Bft) O-NO 65 0 min 0,000 mm 0,0 UV-I 0 W/m 5,8 C 5,9 C 14,5 km/h (3 Bft) 96,55 %
11.04.2016 23:57 7,4 C 90 % 1011,4 hPa 0,0 l/m 7,6 km/h (2 Bft) O-NO 63 0 min 0,000 mm 0,0 UV-I 0 W/m 5,9 C 6,4 C 11,3 km/h (2 Bft) 95,83 %
11.04.2016 23:58 7,4 C 90 % 1011,4 hPa 0,0 l/m 7,8 km/h (2 Bft) NO 51 0 min 0,000 mm 0,0 UV-I 0 W/m 5,9 C 6,3 C 9,7 km/h (2 Bft) 94,12 %
11.04.2016 23:59 7,4 C 90 % 1011,4 hPa 0,0 l/m 5,4 km/h (1 Bft) O-NO 62 0 min 0,000 mm 0,0 UV-I 0 W/m 5,9 C 7,4 C 6,4 km/h (2 Bft) 100,00 %
_ Min-Zeit 06:15 17:18 18:00 - 04:29 - - - - - - 06:17 00:40 04:24 09:09
Minimum _ 3,3 C 54 % 1009,2 hPa - 2,0 km/h (1 Bft) - - - - - - 1,7 C -0,5 C 4,8 km/h (1 Bft) 83,33 %
_ Max-Zeit 16:41 06:14 08:08 00:00 19:05 - - 12:02 15:00 12:41 11:31 14:17 16:49 21:25 00:00
Maximum _ 15,3 C 90 % 1013,5 hPa 0,0 l/m 22,2 km/h
O (4 Bft)
- - 2 min 0,407 mm 3,9 UV-I 962 W/m 8,7 C 15,0 C 30,6 km/h
O-NO (5 Bft)
100,00 %
Durchschnitt _ 8,9 C 78 % 1011,8 hPa #0,0 l/m 11,3 km/h (2 Bft) O-NO - #9:56 h #3,327 mm 2,3 UV-I 415 W/m 5,2 C 6,1 C 15,5 km/h (3 Bft) 98,57 %